[[{"header":{"parameterUnit":"m.s-1","parameterCategory":1,"la1":30.6,"la2":28.766,"lo1":-90.7593,"lo2":-88.6598,"dy":0.0162,"dx":0.0183,"nx":116,"ny":114,"refTime":"2024-03-01T18:00:00:Z","depth":0,"parameterNumber":2,"parameterNumberName":"U-component_of_WINDS"},"data":[0.0,0.0,0.0,0.0,0.0,0.0,0.0,0.0,0.0,0.0,0.0,0.0,0.0,0.0,0.0,0.0,0.0,0.0,0.0,0.0,0.0,0.0,0.0,0.0,0.0,0.0,0.0,0.0,0.0,0.0,0.0,0.0,0.0,0.0,0.0,0.0,0.0,0.0,0.0,0.0,0.0,0.0,0.0,0.0,0.0,0.0,0.0,0.0,0.0,0.0,0.0,0.0,0.0,0.0,0.0,0.0,0.0,0.0,0.0,0.0,0.0,0.0,0.0,0.0,0.0,0.0,0.0,0.0,0.0,0.0,0.0,0.0,0.0,0.0,0.0,0.0,0.0,0.0,0.0,0.0,0.0,0.0,0.0,0.0,0.0,0.0,0.0,0.0,0.0,0.0,0.0,0.0,0.0,0.0,0.0,0.0,0.0,0.0,0.0,0.0,0.0,0.0,0.0,0.0,0.0,0.0,0.0,0.0,0.0,0.0,0.0,0.0,0.0,0.0,0.0,0.0,0.0,0.0,0.0,0.0,0.0,0.0,0.0,0.0,0.0,0.0,0.0,0.0,0.0,0.0,0.0,0.0,0.0,0.0,0.0,0.0,0.0,0.0,0.0,0.0,0.0,0.0,0.0,0.0,0.0,0.0,0.0,0.0,0.0,0.0,0.0,0.0,0.0,0.0,0.0,0.0,0.0,0.0,0.0,0.0,0.0,0.0,0.0,0.0,0.0,0.0,0.0,0.0,0.0,0.0,0.0,0.0,0.0,0.0,0.0,0.0,0.0,0.0,0.0,0.0,0.0,0.0,0.0,0.0,0.0,0.0,0.0,0.0,0.0,0.0,0.0,0.0,0.0,0.0,0.0,0.0,0.0,0.0,0.0,0.0,0.0,0.0,0.0,0.0,0.0,0.0,0.0,0.0,0.0,0.0,0.0,0.0,0.0,0.0,0.0,0.0,0.0,0.0,0.0,0.0,0.0,0.0,0.0,0.0,0.0,0.0,0.0,0.0,0.0,0.0,0.0,0.0,0.0,0.0,0.0,0.0,0.0,0.0,0.0,0.0,0.0,0.0,0.0,0.0,0.0,0.0,0.0,0.0,0.0,0.0,0.0,0.0,0.0,0.0,0.0,0.0,0.0,0.0,0.0,0.0,0.0,0.0,0.0,0.0,0.0,0.0,0.0,0.0,0.0,0.0,0.0,0.0,0.0,0.0,0.0,0.0,0.0,0.0,0.0,0.0,0.0,0.0,0.0,0.0,0.0,0.0,0.0,0.0,0.0,0.0,0.0,0.0,0.0,0.0,0.0,0.0,0.0,0.0,0.0,0.0,0.0,0.0,0.0,0.0,0.0,0.0,0.0,0.0,0.0,0.0,0.0,0.0,0.0,0.0,0.0,0.0,0.0,0.0,0.0,0.0,0.0,0.0,0.0,0.0,0.0,0.0,0.0,0.0,0.0,0.0,0.0,0.0,0.0,0.0,0.0,0.0,0.0,0.0,0.0,0.0,0.0,0.0,0.0,0.0,0.0,0.0,0.0,0.0,0.0,0.0,0.0,0.0,0.0,0.0,0.0,0.0,0.0,0.0,0.0,0.0,0.0,0.0,0.0,0.0,0.0,0.0,0.0,0.0,0.0,0.0,0.0,0.0,0.0,0.0,0.0,0.0,0.0,0.0,0.0,0.0,0.0,0.0,0.0,0.0,0.0,0.0,0.0,0.0,0.0,0.0,0.0,0.0,0.0,0.0,0.0,0.0,0.0,0.0,0.0,0.0,0.0,0.0,0.0,0.0,0.0,0.0,0.0,0.0,0.0,0.0,0.0,0.0,0.0,0.0,0.0,0.0,0.0,0.0,0.0,0.0,0.0,0.0,0.0,0.0,0.0,0.0,0.0,0.0,0.0,0.0,0.0,0.0,0.0,0.0,0.0,0.0,0.0,0.0,0.0,0.0,0.0,0.0,0.0,0.0,0.0,0.0,0.0,0.0,0.0,0.0,0.0,0.0,0.0,0.0,0.0,0.0,0.0,0.0,0.0,0.0,0.0,0.0,0.0,0.0,0.0,0.0,0.0,0.0,0.0,0.0,0.0,0.0,0.0,0.0,0.0,0.0,0.0,0.0,0.0,0.0,0.0,0.0,0.0,0.0,0.0,0.0,0.0,0.0,0.0,0.0,0.0,0.0,0.0,0.0,0.0,0.0,0.0,0.0,0.0,0.0,0.0,0.0,0.0,0.0,0.0,0.0,0.0,0.0,0.0,0.0,0.0,0.0,0.0,0.0,0.0,0.0,0.0,0.0,0.0,0.0,0.0,0.0,0.0,0.0,0.0,0.0,0.0,0.0,0.0,0.0,0.0,0.0,0.0,0.0,0.0,0.0,0.0,0.0,0.0,0.0,0.0,0.0,0.0,0.0,0.0,0.0,0.0,0.0,0.0,0.0,0.0,0.0,0.0,0.0,0.0,0.0,0.0,0.0,0.0,0.0,0.0,0.0,0.0,0.0,0.0,0.0,0.0,0.0,0.0,0.0,0.0,0.0,0.0,0.0,0.0,0.0,0.0,0.0,0.0,0.0,0.0,0.0,0.0,0.0,0.0,0.0,0.0,0.0,0.0,0.0,0.0,0.0,0.0,0.0,0.0,0.0,0.0,0.0,0.0,0.0,0.0,0.0,0.0,0.0,0.0,0.0,0.0,0.0,0.0,0.0,0.0,0.0,0.0,0.0,0.0,0.0,0.0,0.0,0.0,0.0,0.0,0.0,0.0,0.0,0.0,0.0,0.0,0.0,0.0,0.0,0.0,0.0,0.0,0.0,0.0,0.0,0.0,0.0,0.0,0.0,0.0,0.0,0.0,0.0,0.0,0.0,0.0,0.0,0.0,0.0,0.0,0.0,0.0,0.0,0.0,0.0,0.0,0.0,0.0,0.0,0.0,0.0,0.0,0.0,0.0,0.0,0.0,0.0,0.0,0.0,0.0,0.0,0.0,0.0,0.0,0.0,0.0,0.0,0.0,0.0,0.0,0.0,0.0,0.0,0.0,0.0,0.0,0.0,0.0,0.0,0.0,0.0,0.0,0.0,0.0,0.0,0.0,0.0,0.0,0.0,0.0,0.0,0.0,0.0,0.0,0.0,0.0,0.0,0.0,0.0,0.0,0.0,0.0,0.0,0.0,0.0,0.0,0.0,0.0,0.0,0.0,0.0,0.0,0.0,0.0,0.0,0.0,0.0,0.0,0.0,0.0,0.0,0.0,0.0,0.0,0.0,0.0,0.0,0.0,0.0,0.0,0.0,0.0,0.0,0.0,0.0,0.0,0.0,0.0,0.0,0.0,0.0,0.0,0.0,0.0,0.0,0.0,0.0,0.0,0.0,0.0,0.0,0.0,0.0,0.0,0.0,0.0,0.0,0.0,0.0,0.0,0.0,0.0,0.0,0.0,0.0,0.0,0.0,0.0,0.0,0.0,0.0,0.0,0.0,0.0,0.0,0.0,0.0,0.0,0.0,0.0,0.0,0.0,0.0,0.0,0.0,0.0,0.0,0.0,0.0,0.0,0.0,0.0,0.0,0.0,0.0,0.0,0.0,0.0,0.0,0.0,0.0,0.0,0.0,0.0,0.0,0.0,0.0,0.0,0.0,0.0,0.0,0.0,0.0,0.0,0.0,0.0,0.0,0.0,0.0,0.0,0.0,0.0,0.0,0.0,0.0,0.0,0.0,0.0,0.0,0.0,0.0,0.0,0.0,0.0,0.0,0.0,0.0,0.0,0.0,0.0,0.0,0.0,0.0,0.0,0.0,0.0,0.0,0.0,0.0,0.0,0.0,0.0,0.0,0.0,0.0,0.0,0.0,0.0,0.0,0.0,0.0,0.0,0.0,0.0,0.0,0.0,0.0,0.0,0.0,0.0,0.0,0.0,0.0,0.0,0.0,0.0,0.0,0.0,0.0,0.0,0.0,0.0,0.0,0.0,0.0,0.0,0.0,0.0,0.0,0.0,0.0,0.0,0.0,0.0,0.0,0.0,0.0,0.0,0.0,0.0,0.0,0.0,0.0,0.0,0.0,0.0,0.0,0.0,0.0,0.0,0.0,0.0,0.0,0.0,0.0,0.0,0.0,0.0,0.0,0.0,0.0,0.0,0.0,0.0,0.0,0.0,0.0,0.0,0.0,0.0,0.0,0.0,0.0,0.0,0.0,0.0,0.0,0.0,0.0,0.0,0.0,0.0,0.0,0.0,0.0,0.0,0.0,0.0,0.0,0.0,0.0,0.0,0.0,0.0,0.0,0.0,0.0,0.0,0.0,0.0,0.0,0.0,0.0,0.0,0.0,0.0,0.0,0.0,0.0,0.0,0.0,0.0,0.0,0.0,0.0,0.0,0.0,0.0,0.0,0.0,0.0,0.0,0.0,0.0,0.0,0.0,0.0,0.0,0.0,0.0,0.0,0.0,0.0,0.0,0.0,0.0,0.0,0.0,0.0,0.0,0.0,0.0,0.0,0.0,0.0,0.0,0.0,0.0,0.0,0.0,0.0,0.0,0.0,0.0,0.0,0.0,0.0,0.0,0.0,0.0,0.0,0.0,0.0,0.0,0.0,0.0,0.0,0.0,0.0,0.0,0.0,0.0,0.0,0.0,0.0,0.0,0.0,0.0,0.0,0.0,0.0,0.0,0.0,0.0,0.0,0.0,0.0,0.0,0.0,0.0,0.0,0.0,0.0,0.0,0.0,0.0,0.0,0.0,0.0,0.0,0.0,0.0,0.0,0.0,0.0,0.0,0.0,0.0,0.0,0.0,0.0,0.0,0.0,0.0,0.0,0.0,0.0,0.0,0.0,0.0,0.0,0.0,0.0,0.0,0.0,0.0,0.0,0.0,0.0,0.0,0.0,0.0,0.0,0.0,0.0,0.0,0.0,0.0,0.0,0.0,0.0,0.0,0.0,0.0,0.0,0.0,0.0,0.0,0.0,0.0,0.0,0.0,0.0,0.0,0.0,0.0,0.0,0.0,0.0,0.0,0.0,0.0,0.0,0.0,0.0,0.0,0.0,0.0,0.0,0.0,0.0,0.0,0.0,0.0,0.0,0.0,0.0,0.0,0.0,0.0,0.0,0.0,0.0,0.0,0.0,0.0,0.0,0.0,0.0,0.0,0.0,0.0,0.0,0.0,0.0,0.0,0.0,0.0,0.0,0.0,0.0,0.0,0.0,0.0,0.0,0.0,0.0,0.0,0.0,0.0,0.0,0.0,0.0,0.0,0.0,0.0,0.0,0.0,0.0,0.0,0.0,0.0,0.0,0.0,0.0,0.0,0.0,0.0,0.0,0.0,0.0,0.0,0.0,0.0,0.0,0.0,0.0,0.0,0.0,0.0,0.0,0.0,0.0,0.0,0.0,0.0,0.0,0.0,0.0,0.0,0.0,0.0,0.0,0.0,0.0,0.0,0.0,0.0,0.0,0.0,0.0,0.0,0.0,0.0,0.0,0.0,0.0,0.0,0.0,0.0,0.0,0.0,0.0,0.0,0.0,0.0,0.0,0.0,0.0,0.0,0.0,0.0,0.0,0.0,0.0,0.0,0.0,0.0,0.0,0.0,0.0,0.0,0.0,0.0,0.0,0.0,0.0,0.0,0.0,0.0,0.0,0.0,0.0,0.0,0.0,0.0,0.0,0.0,0.0,0.0,0.0,0.0,0.0,0.0,0.0,0.0,0.0,0.0,0.0,0.0,0.0,0.0,0.0,0.0,0.0,0.0,0.0,0.0,0.0,0.0,0.0,0.0,0.0,0.0,0.0,0.0,0.0,0.0,0.0,0.0,0.0,0.0,0.0,0.0,0.0,0.0,0.0,0.0,0.0,0.0,0.0,0.0,0.0,0.0,0.0,0.0,0.0,0.0,0.0,0.0,0.0,0.0,0.0,0.0,0.0,0.0,0.0,0.0,0.0,0.0,0.0,0.0,0.0,0.0,0.0,0.0,0.0,0.0,0.0,0.0,0.0,0.0,0.0,0.0,0.0,0.0,0.0,0.0,0.0,0.0,0.0,0.0,0.0,0.0,0.0,0.0,0.0,0.0,0.0,0.0,0.0,0.0,0.0,0.0,0.0,0.0,0.0,0.0,0.0,0.1132,0.0,0.0,0.0,0.0,0.0,0.0,0.0,0.0,0.0,0.0,0.0,0.0,0.0,0.0,0.0,0.0,0.0,0.0,0.0,0.0,0.0,0.0,0.0,0.0,0.0,0.0,0.0,0.0,0.0,0.0,0.0,0.0,0.0,0.0,0.0,-0.5634,-0.569,-0.5788,-0.5885,-0.5885,-0.5962,-0.6167,-0.6167,-0.5846,-0.53,0.0,0.0,0.0,0.0,0.0,0.0,0.0,0.0,0.0,0.0,0.0,0.0,0.0,0.0,0.0,0.0,0.0,0.0,0.0,0.0,0.0,0.0,0.0,0.0,0.0,0.0,0.0,0.0,0.0,0.0,0.0,0.0,0.0,0.0,0.0,0.0,0.0,0.0,0.0,0.0,0.0,0.0,0.0,0.0,0.0,0.0,0.0,0.0,0.0,0.0,0.0,0.0,0.0,0.0,0.0,0.0,0.0,0.0,0.0,0.0,0.0,0.0,0.0,0.0,0.0,0.0,0.0,0.0,0.0,0.0,0.0,0.1312,0.0,0.0,0.0,0.0,0.0,0.0,0.0,0.0,0.0,0.0,0.0,0.0,0.0,0.0,0.0,0.0,0.0,0.0,0.0,0.0,0.0,0.0,0.0,-0.4767,-0.4976,-0.5161,-0.5317,-0.5464,0.0,0.0,0.0,0.0,-0.6036,-0.6137,-0.6137,-0.6253,-0.6393,-0.6615,-0.6644,-0.6822,-0.7146,-0.7146,-0.662,-0.5659,-0.5659,0.0,0.0,0.0,0.0,0.0,0.0,0.0,0.0,0.0,0.0,0.0,0.0,0.0,0.0,0.0,0.0,0.0,0.0,0.0,0.0,0.0,0.0,0.0,0.0,0.0,0.0,0.0,0.0,0.0,0.0,0.0,0.0,0.0,0.0,0.0,0.0,0.0,0.0,0.0,0.0,0.0,0.0,0.0,0.0,0.0,0.0,0.0,0.0,0.0,0.0,0.0,0.0,0.0,0.0,0.0,0.0,0.0,0.0,0.0,0.0,0.0,0.0,0.0,0.0029,0.0257,0.0428,0.0599,0.0828,0.1081,0.121,0.1327,0.1466,0.0,0.0,0.0,0.0,0.0,0.0,0.0,0.0,0.0,0.0,0.0,0.0,0.0,0.0,0.0,0.0,0.0,0.0,0.0,0.0,0.0,0.0,-0.5139,-0.5309,-0.5512,-0.5642,-0.5741,-0.5763,0.0,-0.6245,-0.6245,-0.6526,-0.6682,-0.6682,-0.6712,-0.681,-0.7012,-0.719,-0.7324,-0.735,-0.735,-0.7289,-0.7114,-0.7114,-0.6979,-0.6766,0.0,0.0,0.0,0.0,0.0,0.0,0.0,0.0,0.0,0.0,0.0,0.0,0.0,0.0,0.0,0.0,0.0,0.0,0.0,0.0,0.0,0.0,0.0,0.0,0.0,0.0,0.0,0.0,0.0,0.0,0.0,0.0,0.0,0.0,0.0,0.0,0.0,0.0,0.0,0.0,0.0,-0.2755,-0.2646,0.0,0.0,0.0,0.0,0.0,0.0,0.0,0.0,0.0,0.0,0.0,0.0,0.0,0.0,-0.0793,-0.058,-0.0427,-0.0275,-0.0061,0.0183,0.0488,0.0519,0.0702,0.1036,0.1331,0.0,0.1605,0.1851,0.0,0.0,0.0,0.0,0.0,0.0,0.0,0.0,0.0,0.0,0.0,0.0,0.0,0.0,0.0,0.0,0.0,0.0,0.0,0.0,0.0,-0.5465,-0.5622,-0.57,-0.5947,-0.607,-0.607,-0.6399,-0.6567,-0.6567,-0.6715,-0.6851,-0.6966,-0.6971,-0.7119,-0.7425,-0.7754,-0.7977,-0.8084,-0.824,-0.833,-0.8423,-0.8423,-0.7954,-0.7231,-0.713,0.0,0.0,0.0,0.0,0.0,0.0,0.0,0.0,0.0,0.0,0.0,0.0,0.0,0.0,0.0,0.0,0.0,0.0,0.0,0.0,0.0,0.0,0.0,0.0,0.0,0.0,0.0,0.0,0.0,0.0,0.0,0.0,0.0,0.0,0.0,0.0,0.0,0.0,0.0,-0.3199,-0.3116,-0.2901,-0.2807,-0.269,0.0,0.0,0.0,0.0,0.0,0.0,0.0,0.0,0.0,-0.1297,-0.1204,-0.1081,-0.0927,-0.0741,-0.0587,-0.0401,-0.0247,0.0,0.034,0.0463,0.0617,0.0865,0.1174,0.14,0.1572,0.1864,0.216,0.2368,0.0,0.0,0.0,0.0,0.0,0.3698,0.0,0.0,0.0,0.0,0.0,0.0,0.0,0.0,0.0,0.0,0.0,0.0,-0.5567,-0.5778,-0.5925,-0.5925,-0.6245,-0.6421,-0.6421,-0.6729,-0.6932,-0.6957,-0.7014,-0.7159,-0.7392,-0.7509,-0.7749,-0.8045,-0.8369,-0.8601,-0.8754,-0.8957,-0.9106,-0.9206,-0.9206,-0.8648,-0.7674,-0.7674,-0.7607,-0.7498,0.0,0.0,0.0,0.0,0.0,0.0,0.0,0.0,0.0,0.0,0.0,0.0,0.0,0.0,0.0,0.0,0.0,0.0,0.0,0.0,0.0,0.0,0.0,0.0,0.0,0.0,0.0,0.0,0.0,0.0,0.0,0.0,0.0,0.0,0.0,0.0,0.0,-0.3574,-0.3448,-0.3209,-0.3095,-0.2987,0.0,0.0,0.0,0.0,0.0,0.0,-0.1807,-0.1744,-0.1628,-0.1453,-0.1358,-0.1232,-0.1074,-0.0885,-0.0696,-0.0506,-0.0379,-0.0126,0.0221,0.0411,0.0569,0.0758,0.1074,0.1327,0.1546,0.1799,0.2157,0.2499,0.2499,0.2774,0.3202,0.3357,0.3513,0.376,0.0,0.0,0.0,0.0,0.0,0.0,0.0,0.0,0.0,0.0,0.0,-0.5567,-0.576,-0.6066,-0.6268,-0.6268,-0.6572,-0.6777,-0.6777,-0.7031,-0.7233,-0.7353,-0.7553,-0.7823,-0.8216,-0.8679,-0.8908,-0.8919,-0.9074,-0.9149,-0.9155,-0.92,-0.9206,-0.9206,-0.9206,-0.8931,-0.8447,-0.8447,-0.8184,-0.7771,-0.7771,0.0,0.0,0.0,0.0,0.0,0.0,0.0,0.0,0.0,0.0,0.0,0.0,0.0,0.0,0.0,0.0,0.0,0.0,0.0,0.0,0.0,0.0,0.0,0.0,0.0,0.0,0.0,0.0,0.0,0.0,0.0,0.0,0.0,0.0,0.0,0.0,0.0,0.0,-0.3679,-0.3381,0.0,0.0,0.0,0.0,-0.2219,-0.2188,-0.2153,-0.2088,-0.1897,-0.1824,-0.1874,-0.1507,-0.1306,-0.1272,-0.0973,-0.0705,-0.0504,-0.0369,-0.0101,0.0302,0.0436,0.0604,0.0806,0.1139,0.1406,0.1601,0.1671,0.2034,0.2499,0.2499,0.2774,0.3202,0.3357,0.3513,0.376,0.0,0.0,0.0,0.0,0.0,0.0,0.0,0.0,-0.5049,-0.5399,-0.5667,-0.5919,-0.6206,-0.6345,-0.6476,-0.6611,-0.6901,-0.705,-0.705,-0.7338,-0.7608,-0.7843,-0.7988,-0.83,-0.8736,-0.8988,-0.9141,-0.9141,-0.9367,-0.9448,-0.9448,-0.9739,-0.9847,-0.9847,-0.9994,-0.9882,-0.9568,-0.9279,-0.9041,-0.8904,-0.8836,-0.8738,0.0,0.0,0.0,0.0,0.0,0.0,0.0,0.0,0.0,0.0,0.0,0.0,0.0,0.0,0.0,0.0,0.0,0.0,0.0,0.0,0.0,0.0,0.0,0.0,0.0,0.0,0.0,0.0,0.0,0.0,0.0,0.0,0.0,0.0,0.0,0.0,0.0,-0.3796,-0.3734,0.0,-0.3359,-0.3132,-0.2937,-0.274,-0.2523,-0.2394,-0.235,-0.2217,-0.2108,-0.2021,-0.1737,-0.1524,-0.1418,-0.117,-0.0958,-0.0745,-0.0568,-0.0355,-0.0071,0.0248,0.0497,0.0674,0.0922,0.1311,0.1735,0.1702,0.1991,0.2448,0.2577,0.2803,0.313,0.3517,0.3714,0.3843,0.0,0.0,0.0,0.0,0.0,0.0,0.0,0.0,-0.5277,-0.566,-0.5908,-0.6165,-0.6478,-0.6567,-0.6694,-0.6906,-0.7171,-0.7321,-0.7358,-0.7652,-0.7964,-0.8248,-0.856,-0.8889,-0.9193,-0.9375,-0.9486,-0.9572,-0.9807,-0.997,-1.0089,-1.0395,-1.0583,-1.0583,-1.0699,-1.0684,-1.0562,-1.0322,-0.9988,-0.9596,-0.9559,-0.9461,-0.9295,0.0,0.0,0.0,0.0,0.0,0.0,0.0,0.0,0.0,0.0,0.0,0.0,0.0,0.0,0.0,0.0,0.0,0.0,0.0,0.0,0.0,0.0,0.0,0.0,0.0,0.0,0.0,0.0,0.0,0.0,0.0,0.0,0.0,0.0,0.0,-0.4405,-0.4136,-0.4139,-0.4037,-0.3733,-0.3524,-0.3316,-0.3076,-0.2849,-0.2666,-0.2558,-0.2456,-0.2334,-0.2189,-0.1933,-0.175,-0.1568,-0.1386,-0.1166,-0.0911,-0.0692,-0.051,-0.0291,0.0109,0.0401,0.0619,0.0802,0.1203,0.1677,0.1677,0.1929,0.2284,0.2627,0.2902,0.3143,0.3694,0.39,0.4003,0.0,0.0,0.0,0.0,0.0,0.0,0.0,-0.5155,-0.548,-0.5695,-0.5998,-0.6285,-0.6487,-0.6699,-0.6906,-0.718,-0.738,-0.7563,-0.7709,-0.7965,-0.8258,-0.8617,-0.9269,-0.963,-0.9641,-0.982,-1.0056,-1.0304,-1.0517,-1.0757,-1.1002,-1.1203,-1.1324,-1.1324,-1.1324,-1.1324,-1.1324,-1.1519,-1.0909,-0.9863,-0.9851,-0.9834,-0.9828,0.0,0.0,0.0,0.0,0.0,0.0,0.0,0.0,0.0,0.0,0.0,0.0,0.0,0.0,0.0,0.0,0.0,0.0,0.0,0.0,0.0,0.0,0.0,0.0,0.0,0.0,0.0,0.0,0.0,0.0,0.0,0.0,0.0,-0.5186,-0.4881,-0.4723,-0.4723,-0.4545,-0.4326,-0.4111,-0.393,-0.364,-0.3243,-0.3209,-0.3027,-0.266,-0.2627,-0.2519,-0.2304,-0.2195,-0.1974,-0.1718,-0.1571,-0.1315,-0.0913,-0.0694,-0.0511,-0.0292,0.011,0.0402,0.0584,0.0804,0.1096,0.1425,0.1608,0.1828,0.2084,0.2661,0.3023,0.3279,0.3858,0.4114,0.4222,0.0,0.0,0.0,0.0,0.0,0.0,-0.5094,-0.5293,-0.5556,-0.5993,-0.614,-0.6341,-0.667,-0.6759,-0.6962,-0.7375,-0.7562,-0.7729,-0.798,-0.8285,-0.8708,-0.9296,-0.9632,-0.9911,-1.0094,-1.0159,-1.0382,-1.0827,-1.0861,-1.1015,-1.1203,-1.1404,-1.1525,-1.1525,-1.1686,-1.172,-1.172,-1.1806,-1.1639,-1.1301,-1.0908,-1.064,-1.042,0.0,0.0,0.0,0.0,0.0,0.0,0.0,0.0,0.0,0.0,0.0,0.0,0.0,0.0,0.0,0.0,0.0,0.0,0.0,0.0,0.0,0.0,0.0,0.0,0.0,0.0,0.0,0.0,0.0,0.0,0.0,0.0,-0.5874,-0.5444,-0.5332,-0.5179,-0.4929,-0.485,-0.469,-0.4362,-0.4145,-0.3894,-0.364,-0.3409,-0.3222,-0.3108,-0.2895,-0.2731,-0.2655,-0.2347,-0.2153,-0.2077,-0.1733,-0.1503,-0.1386,-0.1001,-0.0693,-0.05,-0.0269,0.0038,0.0385,0.0577,0.0924,0.1348,0.1695,0.1964,0.2185,0.2697,0.2951,0.306,0.3821,0.4437,0.4954,0.0,0.0,0.0,0.0,0.0,0.0,-0.5213,-0.5403,-0.5654,-0.6149,-0.6205,-0.636,-0.6749,-0.6791,-0.6986,-0.7455,-0.7629,-0.7852,-0.8165,-0.8705,-0.9223,-0.9707,-0.9949,-1.0143,-1.0293,-1.0509,-1.0752,-1.1111,-1.1315,-1.153,-1.1757,-1.1964,-1.2046,-1.2087,-1.2164,-1.2252,-1.2252,-1.2252,-1.2186,-1.2059,-1.1739,-1.1357,-1.1008,-1.0784,-1.0551,-1.0325,-1.0213,-0.9979,-0.969,-0.9593,0.0,0.0,0.0,0.0,0.0,0.0,0.0,0.0,0.0,0.0,0.0,0.0,0.0,0.0,0.0,0.0,0.0,0.0,0.0,0.0,0.0,0.0,0.0,0.0,-0.6594,-0.6324,-0.6023,-0.5755,-0.5496,-0.5316,-0.518,-0.4989,-0.4686,-0.4465,-0.4243,-0.3944,-0.3734,-0.3572,-0.3379,-0.3191,-0.302,-0.2826,-0.2589,-0.2353,-0.2196,-0.1885,-0.169,-0.1611,-0.1139,-0.0786,-0.0589,-0.0393,-0.0079,0.0,0.051,0.0786,0.1178,0.169,0.1964,0.0,0.0,0.0,0.0,0.0,0.4729,0.5374,0.0,0.0,0.0,0.0,0.0,0.0,-0.5238,-0.5481,-0.5735,-0.6149,-0.6205,-0.636,-0.6749,-0.6791,-0.6986,-0.7488,-0.7661,-0.7928,-0.8365,-0.9168,-0.9707,-0.9873,-1.0159,-1.0304,-1.037,-1.0798,-1.1157,-1.1439,-1.1856,-1.2182,-1.2448,-1.2619,-1.2705,-1.2705,-1.2705,-1.2705,-1.2705,-1.2705,-1.2572,-1.2396,-1.2396,-1.2041,-1.1537,-1.1501,-1.1194,-1.0773,-1.0773,-1.0491,-1.0178,-1.0137,0.0,0.0,0.0,0.0,0.0,0.0,0.0,0.0,0.0,0.0,0.0,0.0,0.0,0.0,0.0,0.0,0.0,0.0,0.0,0.0,0.0,0.0,0.0,0.0,-0.6962,-0.6878,-0.6686,-0.6211,-0.5821,-0.5751,-0.5493,-0.5263,-0.5065,-0.4883,-0.4582,-0.4228,-0.4152,-0.399,-0.3634,0.0,0.0,0.0,0.0,-0.2636,-0.2275,-0.2042,-0.1847,-0.1611,-0.1178,-0.0864,-0.0628,-0.0432,-0.0118,0.0236,0.051,0.0707,0.0904,0.1572,0.1928,0.2051,0.2791,0.3141,0.3295,0.4112,0.4901,0.5584,0.0,0.0,0.0,0.0,0.0,0.0,-0.5238,-0.5481,-0.5735,-0.6149,-0.6205,-0.636,-0.6749,-0.6791,-0.7021,-0.7627,-0.7824,-0.8253,-0.897,-0.9546,-0.9873,-0.9879,-1.0159,-1.0464,-1.0849,-1.1122,-1.1533,-1.2207,-1.2287,-1.2444,-1.2619,-1.2662,-1.2705,-1.2705,-1.2705,-1.2705,-1.2705,-1.2705,-1.2802,-1.2935,-1.2935,-1.2484,-1.1784,-1.1573,-1.1429,-1.1303,-1.1117,-1.0833,-1.0575,-1.0474,-1.0231,-0.9985,-0.9759,-0.9679,0.0,0.0,0.0,0.0,0.0,0.0,0.0,0.0,0.0,0.0,0.0,0.0,0.0,0.0,0.0,0.0,0.0,0.0,0.0,-0.7403,-0.7355,-0.7222,-0.7023,-0.6911,-0.6595,-0.5925,-0.5786,-0.563,-0.5434,-0.5159,-0.5007,-0.4925,-0.4557,-0.4309,-0.4225,-0.3855,0.0,-0.343,-0.3149,-0.2881,-0.2669,-0.2314,-0.2042,-0.1848,0.0,0.0,-0.0825,-0.0628,-0.0393,-0.0157,0.0353,0.0628,0.0707,0.1375,0.1986,0.25,0.2926,0.3335,0.3724,0.4229,0.4873,0.5556,0.0,0.0,0.0,0.0,0.0,0.0,-0.5238,-0.5481,-0.5735,-0.6149,-0.6205,-0.636,-0.6749,-0.6881,-0.7139,-0.766,-0.8189,-0.8685,-0.9155,-0.9653,-0.9884,-0.9884,-1.0389,-1.0759,-1.1002,-1.1566,-1.2022,-1.2406,-1.2491,-1.2619,-1.2705,-1.2705,-1.2705,-1.2705,-1.2705,-1.279,-1.2881,-1.2881,-1.3052,-1.3264,-1.3264,-1.3016,-1.2618,-1.2351,-1.2079,-1.1825,-1.1682,-1.1372,-1.1028,-1.0955,-1.0797,-1.0557,-1.026,-1.0148,-1.0084,0.0,0.0,0.0,0.0,0.0,0.0,0.0,0.0,0.0,0.0,0.0,0.0,0.0,0.0,-0.8022,-0.8105,0.0,-0.7816,-0.7926,-0.7825,-0.7635,-0.744,-0.7308,-0.7014,-0.6371,-0.6175,-0.6012,-0.577,-0.554,-0.5327,-0.5113,-0.4863,-0.4655,-0.4406,-0.4197,-0.3928,-0.3677,-0.3471,-0.3208,-0.2888,-0.2601,-0.2357,-0.2156,-0.1829,-0.1464,-0.1138,-0.0895,-0.0651,-0.0326,0.0122,0.0448,0.0692,0.1464,0.2046,0.2519,0.3061,0.3535,0.394,0.4382,0.4981,0.5647,0.0,0.0,0.0,0.0,0.0,0.0,0.0,-0.5453,-0.572,-0.6092,-0.6177,-0.6346,-0.6688,-0.6942,-0.7288,-0.7757,-0.8562,-0.9071,-0.9206,-0.9653,-0.9884,-0.9884,-1.0616,-1.1002,-1.1042,-1.1937,-1.2406,-1.2448,-1.2619,-1.2705,-1.2705,-1.2705,-1.2705,-1.2705,-1.2747,-1.2881,-1.3094,-1.3143,-1.3264,-1.3483,-1.3483,-1.3483,-1.3499,-1.3316,-1.2877,-1.2343,-1.2235,-1.1923,-1.1565,-1.1465,-1.1335,-1.1112,-1.0797,-1.0658,-1.0544,-1.013,-0.9895,0.0,0.0,0.0,0.0,0.0,0.0,0.0,0.0,0.0,-0.8604,-0.877,-0.8682,-0.8606,-0.8741,-0.8489,-0.8296,-0.8373,-0.8255,-0.8027,-0.7783,-0.7647,-0.7377,-0.6916,-0.6589,-0.636,-0.6155,-0.5891,-0.5653,-0.531,-0.5223,-0.5012,-0.4634,-0.4507,-0.4286,-0.3848,-0.3764,-0.3547,-0.3156,-0.2902,-0.265,-0.2439,-0.2018,-0.1723,-0.1471,-0.1178,-0.0842,-0.0421,-0.0042,0.0379,0.0842,0.1641,0.2107,0.2328,0.3129,0.3604,0.3998,0.4508,0.509,0.565,0.0,0.0,0.0,0.0,0.0,0.0,0.0,0.0,-0.5689,-0.5916,-0.6087,-0.629,-0.6516,-0.688,-0.7379,-0.8071,-0.8761,-0.9171,-0.9206,-0.9653,-0.9884,-0.9884,-1.0616,-1.1082,-1.1243,-1.2015,-1.2491,-1.2662,-1.2705,-1.2705,-1.2705,-1.2705,-1.2705,-1.2705,-1.2966,-1.3052,-1.31,-1.3313,-1.3476,-1.3652,-1.3652,-1.3828,-1.4039,-1.4006,-1.3544,-1.2866,-1.2375,-1.2177,-1.2069,-1.1758,-1.1521,-1.1366,-1.1298,-1.118,-1.0989,-1.0773,-1.0656,-1.0582,-1.0215,-0.9953,-0.9766,-0.9541,-0.9471,-0.9439,0.0,0.0,-0.9194,-0.9213,-0.9209,-0.9139,-0.9005,-0.8928,-0.8778,-0.8435,-0.8488,-0.8383,-0.7924,-0.8009,-0.7928,-0.7453,-0.6937,-0.6554,-0.6554,-0.6234,-0.6039,-0.5995,-0.5598,-0.5333,-0.5289,-0.4893,-0.4588,-0.4411,-0.4066,-0.3774,-0.3615,-0.3196,-0.2862,-0.265,-0.2439,-0.2102,-0.1639,-0.1471,-0.1093,-0.0632,0.0253,0.0758,0.101,0.1725,0.2042,0.2208,0.3115,0.3547,0.3723,0.4433,0.493,0.5352,0.0,0.0,0.0,0.0,0.0,0.0,0.0,0.0,0.0,-0.5883,-0.6069,-0.6336,-0.6649,-0.7215,-0.7799,-0.8312,-0.8779,-0.906,-0.9195,-0.9529,-0.9782,-0.9879,-1.0562,-1.1056,-1.1278,-1.1999,-1.2469,-1.2705,-1.2705,-1.2705,-1.2705,-1.2705,-1.279,-1.2924,-1.3052,-1.3228,-1.3434,-1.3519,-1.3695,-1.3913,-1.3913,-1.4004,-1.4088,-1.4088,-1.3776,-1.3302,-1.2936,-1.2609,0.0,-1.1995,-1.1744,-1.1558,-1.1446,-1.1335,-1.1223,-1.1037,-1.0887,-1.0738,-1.0443,-1.0329,-1.0291,-1.0214,-1.0084,-0.9987,-0.9908,-0.9782,-0.9687,-0.9561,-0.9549,-0.9488,-0.9363,-0.9266,-0.914,0.0,-0.8914,-0.8706,-0.849,-0.8333,-0.8113,-0.794,-0.7442,-0.7011,-0.6746,-0.658,-0.6393,-0.6127,-0.5905,-0.5683,-0.5416,-0.5193,-0.4952,-0.4643,-0.4467,-0.4184,-0.38,-0.3625,-0.3364,-0.2969,-0.2793,-0.2446,-0.1966,-0.1746,-0.1311,-0.0655,0.0,0.0481,0.0874,0.1441,0.1844,0.2214,0.2875,0.3336,0.3714,0.4563,0.5041,0.5432,0.0,0.0,0.0,0.0,0.0,0.0,0.0,0.0,0.0,0.0,-0.6036,-0.6363,-0.6819,-0.7424,-0.797,-0.8393,-0.8722,-0.8971,-0.9098,-0.9405,-0.9689,-0.9894,-1.0544,-1.1037,-1.1255,-1.1939,-1.2409,-1.2596,-1.2668,-1.2705,-1.2705,-1.279,-1.2924,-1.3094,-1.3222,-1.344,-1.3695,-1.3779,-1.3913,-1.4088,-1.4088,-1.4088,-1.4082,-1.3995,-1.3793,-1.356,-1.3313,-1.2941,-1.2528,-1.2182,-1.1966,-1.1744,-1.1595,-1.1521,-1.1446,-1.1223,-1.1053,-1.0904,-1.0821,-1.0789,-1.0779,-1.0706,-1.0594,-1.0476,-1.0395,-1.0284,-1.0121,-0.9988,-0.995,-0.992,-0.9828,-0.9686,-0.9567,-0.9579,-0.9301,-0.9043,-0.8911,-0.86,-0.8332,-0.8201,-0.7896,-0.7503,-0.7061,-0.6884,-0.6662,-0.6305,-0.6171,-0.5949,-0.5594,-0.546,-0.5238,-0.4884,-0.475,-0.4527,-0.4125,-0.3993,-0.3723,-0.3406,-0.3092,-0.278,-0.2377,-0.1884,-0.1345,-0.0673,-0.0224,0.0269,0.0718,0.1211,0.1705,0.2243,0.2734,0.3183,0.3676,0.452,0.5013,0.5413,0.0,0.0,0.0,0.0,0.0,0.0,0.0,0.0,0.0,0.0,0.0,0.0,0.0,-0.735,-0.7763,-0.8171,-0.8625,-0.89,-0.8906,-0.9349,-0.9692,-0.9879,-1.0536,-1.0996,-1.1196,-1.1925,-1.2318,-1.2324,-1.2578,-1.2705,-1.2705,-1.2966,-1.3094,-1.3137,-1.3519,-1.3695,-1.3737,-1.3997,-1.4088,-1.4088,-1.4088,-1.4088,-1.4055,-1.3726,-1.3613,-1.356,-1.3313,-1.3013,-1.2737,-1.2398,-1.2157,-1.2003,-1.1966,-1.1855,-1.1632,-1.1446,-1.1304,-1.1226,-1.1511,-1.1427,-1.1232,-1.1031,-1.0996,-1.0921,-1.0638,-1.0604,-1.0595,-1.0554,-1.0597,-1.0582,-1.0328,-1.0284,-1.0115,-0.9689,-0.9602,-0.9432,-0.8955,-0.8867,-0.8688,-0.8245,-0.8201,-0.7984,0.0,-0.7061,-0.6795,-0.6795,-0.6349,-0.6083,-0.6083,-0.5638,-0.5371,-0.5371,-0.4928,-0.4705,-0.4661,-0.417,-0.3903,-0.3859,-0.3406,-0.3092,-0.2823,-0.1883,-0.1166,-0.0673,-0.0224,0.0269,0.0718,0.1211,0.1705,0.2243,0.2734,0.3183,0.3676,0.4166,0.461,0.5142,0.0,0.0,0.0,0.0,0.0,0.0,0.0,0.0,0.0,0.0,0.0,0.0,0.0,0.0,0.0,0.0,-0.8473,-0.87,-0.889,-0.9157,-0.9441,-0.9681,-1.0286,-1.0735,-1.0985,-1.1512,-1.1838,-1.2012,-1.2318,-1.2445,-1.2445,-1.288,-1.3185,-1.3307,-1.3568,-1.3786,-1.3955,-1.4046,-1.3975,-1.3753,-1.3753,-1.3674,-1.3494,-1.3394,-1.3227,-1.3079,0.0,-1.2878,-1.2737,-1.2405,-1.2261,-1.2187,-1.204,-1.1966,-1.1856,-1.1714,-1.1776,-1.1891,-1.1822,-1.1763,-1.1735,-1.1694,-1.1655,-1.1618,-1.1365,-1.1341,-1.123,-1.0931,-1.0864,-1.0824,-1.0598,-1.0424,-1.025,-1.0077,-0.982,-0.9559,-0.9388,-0.9082,-0.8823,-0.8688,-0.8376,0.0,0.0,0.0,0.0,-0.684,-0.6659,-0.6482,-0.6299,-0.6038,-0.5769,-0.5589,-0.5327,-0.506,-0.4924,-0.4569,-0.4346,-0.4166,-0.336,-0.2957,-0.2867,-0.2062,-0.148,-0.1121,-0.0673,-0.0179,0.0269,0.0762,0.1211,0.1705,0.2242,0.2825,0.3406,0.3849,0.4429,0.5099,0.0,0.0,0.0,0.0,0.0,0.0,0.0,0.0,0.0,0.0,0.0,0.0,0.0,0.0,0.0,0.0,0.0,-0.8484,-0.876,-0.8953,-0.9187,-0.9455,-1.0059,-1.0504,-1.0752,-1.1239,-1.1573,-1.1742,-1.2047,-1.2174,-1.2261,-1.2727,-1.3016,-1.3223,-1.3437,-1.3602,-1.3774,-1.3774,-1.3661,-1.3447,-1.3447,-1.3414,-1.3305,-1.3158,-1.3074,0.0,-1.2852,-1.2856,-1.2784,-1.2402,-1.2305,-1.2268,-1.215,-1.2155,-1.2193,-1.2176,-1.2297,-1.2413,-1.2343,-1.2283,-1.2242,-1.2158,-1.2118,-1.208,-1.1871,-1.1742,-1.1613,-1.1311,-1.1181,-1.1046,-1.0824,-1.0651,-1.0516,-1.0337,-1.0033,-0.9777,-0.9646,-0.9345,-0.9087,-0.8911,-0.8644,-0.8376,0.0,0.0,0.0,-0.7105,-0.6884,-0.6704,-0.6567,-0.6346,-0.608,-0.5855,-0.5636,-0.5369,-0.5146,-0.4924,-0.4656,-0.43,-0.3539,-0.3047,-0.2867,-0.2332,-0.1794,-0.1391,-0.1076,-0.0583,0.0045,0.0448,0.0897,0.1436,0.1974,0.2556,0.3136,0.3628,0.4253,0.5013,0.0,0.0,0.0,0.0,0.0,0.0,0.0,0.0,0.0,0.0,0.0,0.0,0.0,0.0,0.0,0.0,0.0,0.0,-0.8479,-0.876,-0.8996,-0.9164,-0.9838,-1.0286,-1.0479,-1.1113,-1.1459,-1.1471,-1.1736,-1.1982,-1.2181,-1.2479,-1.2691,-1.2889,-1.3094,-1.3213,-1.3213,-1.3213,-1.32,-1.3186,-1.3186,-1.3285,-1.342,-1.3094,-1.3099,-1.3254,-1.2998,-1.29,-1.2826,-1.2452,-1.2305,-1.2305,-1.2305,-1.2406,-1.2563,-1.2805,-1.2809,-1.2794,-1.3068,-1.2918,-1.2662,-1.2491,-1.2448,-1.2369,-1.208,-1.1871,-1.1742,-1.1699,-1.1483,-1.1267,0.0,0.0,-1.0829,-1.0424,-1.0337,-1.012,-0.9689,-0.9602,-0.9432,0.0,0.0,0.0,0.0,0.0,0.0,-0.7551,0.0,-0.6836,-0.6836,-0.6567,-0.6343,-0.6127,-0.5855,-0.5633,-0.5416,-0.5146,-0.4788,-0.43,-0.3853,-0.3406,-0.2913,-0.2647,-0.2109,-0.1436,-0.1391,-0.0897,0.0,0.0269,0.0762,0.1436,0.1974,0.2466,0.2957,0.3406,0.408,0.4846,0.0,0.0,0.0,0.0,0.0,0.0,0.0,0.0,0.0,0.0,0.0,0.0,0.0,0.0,0.0,0.0,0.0,0.0,-0.8268,-0.8663,-0.8929,-0.8962,-0.9569,-1.0036,-1.0256,-1.0675,-1.0984,-1.122,-1.1459,-1.1708,-1.191,-1.239,-1.2691,-1.2889,-1.3094,-1.3213,-1.3213,-1.3213,-1.308,-1.2904,-1.3013,-1.2954,-1.2855,-1.2891,-1.2975,-1.3005,-1.2921,-1.29,-1.2856,-1.2599,-1.2415,-1.2305,-1.2305,-1.2474,-1.2736,-1.2883,-1.3011,-1.3166,-1.3279,-1.3179,-1.3009,-1.2924,-1.2747,-1.2577,-1.2369,-1.224,-1.2118,-1.1785,-1.1656,-1.1527,0.0,0.0,0.0,-1.0829,-1.0516,0.0,-1.012,-0.982,0.0,-0.9432,0.0,-0.9087,-0.8732,-0.8596,0.0,0.0,-0.7591,-0.733,-0.733,-0.6925,-0.6659,-0.6615,-0.6346,-0.6121,-0.5905,-0.5505,-0.506,-0.4614,-0.4257,-0.3898,-0.3406,-0.3004,-0.2511,-0.1974,-0.157,-0.1076,-0.0493,-0.009,0.0403,0.0942,0.1615,0.2199,0.2691,0.3363,0.4117,0.4854,0.0,0.0,0.0,0.0,0.0,0.0,0.0,0.0,0.0,0.0,0.0,0.0,0.0,0.0,0.0,0.0,0.0,0.0,0.0,-0.843,-0.863,-0.8705,-0.931,-0.9708,-0.9851,-1.0278,-1.0587,-1.0731,-1.1002,-1.1284,-1.1596,-1.2024,-1.2344,-1.2659,-1.2736,-1.2812,-1.2812,-1.2812,-1.2788,0.0,0.0,-1.2824,-1.2863,-1.2973,-1.3083,-1.3156,-1.3156,-1.3119,-1.301,-1.29,-1.2673,-1.2415,-1.2415,-1.258,-1.2844,-1.3002,-1.3172,-1.3331,-1.349,-1.3398,-1.3222,-1.3137,-1.3009,-1.2833,-1.2577,-1.2448,-1.232,-1.2075,-1.1909,-1.1742,-1.1527,-1.1397,0.0,0.0,0.0,0.0,-1.0337,-1.0077,-0.9816,0.0,-0.9515,0.0,-0.9087,-0.8863,-0.8688,0.0,-0.7988,-0.7683,-0.7683,-0.7326,-0.7061,-0.6925,-0.67,-0.6435,-0.6083,-0.5725,-0.5369,-0.5018,-0.4523,-0.4166,-0.39,-0.3315,-0.2823,-0.2466,0.0,-0.148,-0.0942,-0.0403,0.0134,0.0628,0.1345,0.193,0.2471,0.3217,0.3934,0.4581,0.0,0.0,0.0,0.0,0.0,0.0,0.0,0.0,0.0,0.0,-0.6929,0.0,0.0,0.0,0.0,0.0,0.0,0.0,0.0,0.0,-0.8274,-0.8458,-0.9046,-0.9354,-0.9388,-0.9953,-1.0256,-1.0292,-1.0521,-1.0844,-1.1249,-1.1484,-1.1819,-1.2184,-1.2184,-1.2184,-1.2184,-1.2184,-1.2294,-1.2483,-1.2519,-1.2738,-1.3071,0.0,-1.3216,-1.3367,-1.3367,-1.3281,-1.3172,-1.3172,-1.2938,-1.2636,-1.2599,-1.2665,-1.2822,-1.306,-1.3193,-1.3361,-1.36,-1.3578,-1.3398,-1.3222,-1.3143,-1.3052,-1.279,-1.2577,-1.2448,-1.2406,-1.2203,-1.2,-1.1785,-1.1699,-1.157,-1.1181,0.0,-1.0873,-1.0429,-1.0337,-1.0164,-0.9733,-0.9689,-0.9559,-0.9345,-0.913,-0.8999,-0.8955,-0.8384,-0.7988,-0.7944,-0.768,-0.7415,-0.7143,-0.6969,-0.6615,-0.6216,-0.5902,-0.5633,-0.5416,-0.4746,-0.4389,-0.43,-0.3628,-0.3181,-0.2867,0.0,0.0,-0.1345,-0.0718,-0.0134,0.0403,0.1076,0.1708,0.2258,0.3033,0.3663,0.4258,0.0,0.0,0.0,0.0,0.0,0.0,0.0,0.0,0.0,0.0,-0.7058,-0.7112,0.0,0.0,0.0,0.0,0.0,0.0,0.0,0.0,0.0,-0.8241,-0.8788,-0.9177,-0.9382,-0.9775,-1.0075,-1.0292,-1.034,-1.0574,-1.0956,-1.1001,-1.1229,-1.1542,-1.1542,-1.1542,-1.1542,-1.1542,-1.1681,-1.1861,-1.2033,-1.2206,-1.2378,-1.255,0.0,0.0,-1.266,-1.2828,-1.3019,-1.3019,-1.2942,-1.2826,-1.2636,-1.2633,-1.2668,-1.2815,-1.3046,-1.3267,-1.3559,-1.3644,-1.3652,-1.361,-1.3355,-1.3094,-1.3052,-1.2833,-1.2619,-1.2448,-1.2363,-1.224,-1.1995,-1.1828,-1.1656,-1.157,-1.1267,-1.0965,-1.0878,-1.0521,-1.025,0.0,-1.0033,-0.982,-0.9559,0.0,0.0,0.0,0.0,0.0,-0.8157,-0.794,-0.7724,-0.7459,-0.7187,-0.6922,-0.6662,-0.626,-0.5902,-0.5633,-0.5369,-0.4879,-0.43,-0.4164,-0.3673,-0.2867,0.0,0.0,-0.1345,-0.0852,-0.0359,0.0134,0.0852,0.1496,0.2026,0.2771,0.3587,0.4371,0.0,0.0,0.0,0.0,0.0,0.0,0.0,-0.6564,-0.6795,-0.7052,-0.7112,-0.7112,-0.7112,-0.7112,-0.7112,0.0,0.0,0.0,0.0,0.0,0.0,0.0,-0.8515,-0.8852,-0.9188,-0.9462,-0.9691,-0.9889,0.0,-1.0297,-1.0704,-1.0816,-1.1086,-1.1389,-1.1389,-1.1389,-1.1389,-1.1389,-1.1567,-1.1874,-1.1942,-1.2146,-1.2383,-1.2451,0.0,0.0,-1.2485,-1.2587,-1.2782,-1.295,-1.2969,-1.2942,-1.2917,-1.2783,-1.2654,-1.2841,-1.2968,-1.3066,-1.348,-1.3624,-1.368,-1.3698,-1.3568,-1.3349,-1.3137,-1.3009,-1.2839,-1.2619,-1.2577,-1.2491,-1.2246,-1.2118,0.0,-1.1742,-1.1527,-1.1267,-1.1008,-1.0829,-1.0651,-1.0511,-1.0294,-1.012,0.0,0.0,0.0,0.0,0.0,0.0,-0.8608,-0.8248,-0.794,-0.7724,-0.7455,-0.719,-0.6969,-0.6615,-0.626,-0.5902,-0.5677,-0.5233,-0.4654,-0.4431,-0.3942,-0.3227,-0.2869,0.0,-0.1749,-0.1166,-0.0628,-0.0135,0.0635,0.1238,0.1809,0.2603,0.3329,0.3978,0.0,0.0,0.0,0.0,0.0,0.0,0.0,-0.6716,-0.6932,-0.7117,-0.7139,-0.7139,-0.7112,-0.7112,-0.7112,0.0,0.0,0.0,0.0,0.0,0.0,0.0,0.0,0.0,0.0,0.0,0.0,0.0,-0.9721,0.0,0.0,0.0,0.0,0.0,-1.1243,-1.1243,-1.1236,-1.127,-1.1478,0.0,0.0,-1.2014,0.0,0.0,0.0,0.0,0.0,-1.2324,-1.2419,-1.2716,-1.2892,-1.3017,-1.3129,-1.2953,-1.2758,-1.288,-1.2882,-1.2923,-1.332,-1.346,-1.3526,-1.3579,-1.3554,-1.3471,-1.3136,-1.2968,-1.2836,-1.262,-1.2578,-1.2512,-1.2396,-1.2323,-1.2176,-1.1817,-1.1742,-1.157,-1.1138,-1.1008,-1.0959,0.0,-1.0559,0.0,0.0,0.0,0.0,0.0,0.0,0.0,-0.8987,-0.8576,-0.8245,-0.7984,-0.7768,-0.7499,-0.7187,-0.6969,-0.6659,-0.626,-0.5944,-0.5544,-0.5142,-0.4654,-0.421,-0.3721,-0.3181,0.0,0.0,-0.148,-0.0897,-0.0404,0.0413,0.102,0.1544,0.2421,0.3,0.3561,0.0,0.0,0.0,0.0,0.0,0.0,0.0,-0.7216,-0.7391,-0.7284,-0.7284,-0.723,-0.7112,-0.7112,-0.7112,0.0,0.0,0.0,0.0,0.0,0.0,0.0,0.0,0.0,0.0,0.0,0.0,0.0,0.0,0.0,0.0,0.0,0.0,0.0,0.0,0.0,-1.0673,-1.0794,0.0,0.0,0.0,0.0,0.0,0.0,0.0,0.0,0.0,-1.1838,-1.2047,-1.2083,-1.2485,-1.3009,-1.3003,-1.3071,-1.309,-1.2744,-1.2794,-1.2981,-1.2889,-1.3033,-1.326,-1.324,-1.3094,-1.2968,-1.2928,-1.2601,-1.2274,-1.2234,-1.2113,-1.2024,-1.2265,-1.2141,-1.2015,-1.196,-1.1828,-1.1613,-1.1311,-1.1138,-1.1008,-1.0965,0.0,0.0,0.0,0.0,0.0,0.0,0.0,0.0,0.0,-0.8956,-0.8644,-0.8201,-0.8157,-0.794,-0.7462,-0.719,-0.6966,-0.6751,-0.626,-0.5902,-0.563,-0.5144,-0.4699,-0.421,0.0,0.0,0.0,-0.166,-0.1076,-0.0584,0.0138,0.0749,0.1335,0.2141,0.2777,0.3324,0.0,0.0,0.0,0.0,0.0,0.0,-0.7112,-0.7334,-0.7494,-0.7419,-0.7419,-0.7365,-0.723,-0.723,-0.7198,-0.7112,0.0,0.0,0.0,0.0,0.0,0.0,0.0,0.0,0.0,0.0,0.0,-0.9516,0.0,0.0,0.0,0.0,0.0,0.0,0.0,0.0,0.0,-1.0744,0.0,0.0,0.0,0.0,0.0,0.0,0.0,0.0,0.0,0.0,-1.178,-1.1937,-1.2178,-1.2456,-1.2884,-1.3026,-1.3057,-1.299,-1.2873,-1.2781,-1.2882,-1.2948,-1.3012,-1.3166,-1.3134,-1.3048,-1.2929,-1.277,-1.2525,-1.224,-1.212,-1.2077,-1.2059,-1.2128,-1.2141,-1.2002,-1.194,-1.1785,-1.157,-1.1311,-1.1181,-1.1181,-1.1003,0.0,0.0,0.0,0.0,0.0,0.0,0.0,0.0,-0.9418,-0.8932,-0.8648,-0.8332,-0.8113,-0.794,-0.7544,-0.7234,-0.6966,-0.6523,-0.6077,-0.5675,-0.523,-0.4743,-0.4253,0.0,0.0,0.0,-0.1929,-0.1345,-0.0855,-0.014,0.0473,0.1053,0.1874,0.2506,0.3078,0.0,0.0,0.0,0.0,0.0,-0.728,-0.733,-0.7491,-0.7601,-0.7568,-0.7568,-0.7521,-0.7365,-0.7317,-0.7257,-0.7171,-0.7112,0.0,0.0,0.0,0.0,0.0,0.0,0.0,0.0,0.0,-0.8996,-0.9516,-0.9516,0.0,0.0,0.0,0.0,0.0,0.0,0.0,0.0,0.0,0.0,0.0,0.0,0.0,0.0,0.0,0.0,0.0,0.0,0.0,0.0,0.0,0.0,-1.2083,-1.2577,-1.2782,-1.2908,-1.315,-1.2973,-1.2721,-1.2859,-1.2763,-1.2703,-1.2886,-1.2939,-1.29,-1.2745,-1.2667,-1.2551,-1.2193,-1.2031,-1.1944,-1.1872,-1.2023,-1.214,-1.2011,-1.2078,-1.2037,-1.1742,-1.1527,-1.1397,0.0,0.0,0.0,0.0,0.0,0.0,0.0,0.0,0.0,0.0,-0.9957,-0.9418,-0.9,-0.8624,-0.8332,-0.8201,-0.7808,-0.7503,-0.7231,-0.6745,-0.6299,-0.5897,-0.5408,-0.4966,-0.4476,0.0,0.0,0.0,-0.2198,-0.1615,-0.1126,-0.0375,0.0238,0.0767,0.1592,0.222,0.2774,0.0,0.0,0.0,0.0,0.0,0.0,-0.7655,-0.7815,-0.7842,-0.7723,-0.7696,-0.7649,-0.7515,-0.7392,-0.729,-0.729,-0.7171,0.0,0.0,0.0,0.0,0.0,0.0,0.0,0.0,0.0,-0.9084,-0.9516,-0.9516,-0.967,-0.9983,-0.9983,0.0,0.0,0.0,0.0,0.0,0.0,0.0,0.0,0.0,0.0,0.0,0.0,0.0,0.0,0.0,0.0,0.0,0.0,0.0,0.0,0.0,-1.2229,-1.2582,-1.305,-1.3046,-1.2863,-1.268,-1.2452,-1.2305,-1.2311,-1.2311,-1.2311,-1.2311,-1.2164,-1.2016,-1.2016,-1.1676,-1.1502,-1.1749,-1.1869,-1.193,-1.1981,-1.2241,-1.224,-1.1785,-1.1699,-1.1613,0.0,0.0,0.0,0.0,0.0,0.0,0.0,0.0,0.0,0.0,-1.0653,-1.0084,-0.9235,-0.9004,-0.8688,-0.8201,-0.7984,-0.7768,-0.7507,-0.7017,-0.6656,-0.6384,-0.5897,-0.5453,0.0,0.0,0.0,0.0,-0.2467,-0.1885,-0.1306,-0.0563,0.0,0.0479,0.1295,0.1969,0.2472,0.0,0.0,0.0,0.0,0.0,0.0,0.0,-0.7875,-0.7875,-0.7842,-0.7842,-0.7788,-0.7649,-0.7595,-0.7542,-0.744,-0.7219,0.0,0.0,0.0,0.0,0.0,0.0,0.0,0.0,-0.8527,-0.8906,-0.9516,-0.9516,-0.967,-0.9983,-0.9983,-1.0206,-1.0593,0.0,0.0,0.0,0.0,0.0,0.0,0.0,0.0,0.0,0.0,0.0,0.0,0.0,0.0,0.0,0.0,0.0,0.0,0.0,0.0,0.0,-1.2599,-1.2734,-1.2777,-1.28,-1.2673,-1.2489,-1.2342,-1.2305,-1.2305,-1.2305,-1.2268,-1.215,-1.204,-1.1892,-1.1738,-1.1565,-1.1846,-1.2071,-1.1954,-1.2212,-1.2363,0.0,0.0,0.0,0.0,0.0,0.0,0.0,0.0,0.0,0.0,0.0,0.0,0.0,-1.0875,-1.0421,-0.9696,-0.9306,-0.8945,-0.8692,-0.8292,-0.7984,-0.7768,-0.7234,-0.6789,-0.6384,-0.5897,0.0,0.0,0.0,0.0,0.0,-0.2691,-0.2109,-0.1622,-0.0845,-0.0286,0.0239,0.1046,0.1666,0.2219,0.0,0.0,0.0,0.0,0.0,0.0,0.0,-0.7901,-0.7901,-0.7901,-0.7901,-0.7869,-0.7783,-0.7723,-0.767,-0.7595,-0.7381,0.0,0.0,0.0,0.0,0.0,0.0,0.0,-0.8375,-0.8504,-0.8884,-0.9516,-0.9516,-0.967,-0.9983,-0.9983,-1.0206,-1.0593,-1.0593,-1.0681,0.0,0.0,0.0,0.0,0.0,0.0,-1.1591,0.0,0.0,0.0,0.0,0.0,0.0,0.0,0.0,0.0,0.0,0.0,0.0,0.0,-1.2381,-1.249,-1.2749,-1.27,-1.2562,-1.2452,-1.2378,-1.2305,-1.2305,-1.2305,-1.2261,-1.215,-1.204,-1.1892,-1.1558,-1.19,-1.212,-1.192,-1.2236,-1.2491,0.0,0.0,0.0,0.0,0.0,0.0,0.0,0.0,0.0,0.0,0.0,0.0,0.0,0.0,-1.0806,-1.0288,-0.9667,-0.9257,-0.9013,-0.8452,-0.8113,-0.79,-0.7455,-0.6966,-0.6384,-0.6118,0.0,0.0,0.0,0.0,0.0,-0.2915,-0.2378,-0.1892,-0.1126,-0.0572,0.0,0.0747,0.1414,0.1968,0.0,0.0,0.0,0.0,0.0,0.0,0.0,-0.7901,-0.7901,-0.7901,-0.7901,-0.7901,-0.7901,-0.7783,-0.7723,-0.7723,0.0,0.0,0.0,0.0,0.0,0.0,0.0,0.0,-0.8498,-0.8622,-0.8975,-0.9516,-0.9516,-0.967,-0.9983,-0.9983,-1.0206,-1.0593,-1.0593,-1.0681,-1.0832,-1.1178,-1.1435,-1.1591,-1.1591,-1.1591,0.0,0.0,0.0,0.0,0.0,0.0,0.0,0.0,0.0,0.0,0.0,0.0,0.0,0.0,0.0,0.0,0.0,-1.2613,-1.2609,-1.2592,-1.2452,-1.2335,-1.2305,-1.2305,0.0,-1.2305,-1.215,-1.1966,-1.1744,-1.1984,-1.216,-1.196,-1.2361,0.0,0.0,0.0,0.0,0.0,0.0,0.0,0.0,0.0,0.0,0.0,0.0,0.0,0.0,0.0,-1.1109,-1.0924,-1.0103,-0.952,-0.9223,-0.8565,-0.8124,-0.79,-0.7635,-0.7146,-0.6384,-0.6384,0.0,0.0,0.0,0.0,0.0,-0.3092,-0.2645,-0.2118,-0.1408,-0.0811,-0.0239,0.0498,0.1111,0.1667,0.0,0.0,0.0,0.0,0.0,0.0,0.0,0.0,0.0,0.0,-0.7901,-0.7901,-0.7901,-0.7875,-0.7842,0.0,0.0,0.0,0.0,0.0,0.0,0.0,0.0,0.0,-0.8498,-0.8622,-0.8975,-0.9516,-0.9516,-0.967,-0.9983,-0.9983,-1.0206,-1.0593,-1.0593,-1.0744,-1.1059,-1.1404,-1.156,-1.1591,-1.1591,-1.1591,0.0,0.0,0.0,0.0,-1.1591,-1.1591,0.0,0.0,0.0,0.0,0.0,0.0,0.0,0.0,-1.1845,-1.2032,-1.212,0.0,-1.267,-1.2618,-1.2562,-1.2489,0.0,-1.2305,-1.2305,-1.2305,-1.2261,-1.215,-1.1966,-1.2216,-1.2359,-1.216,0.0,0.0,0.0,0.0,0.0,0.0,0.0,0.0,0.0,0.0,0.0,0.0,0.0,0.0,0.0,0.0,-1.1175,-1.1127,-1.0391,-0.9833,-0.9498,-0.8955,-0.8422,-0.79,-0.7856,-0.7323,-0.6384,-0.6384,0.0,0.0,0.0,0.0,-0.3587,-0.3272,-0.278,-0.2163,-0.1596,-0.1097,-0.0527,0.0,0.0657,0.1364,0.0,0.0,0.0,0.0,0.0,0.0,0.0,0.0,0.0,0.0,0.0,-0.7901,-0.7901,-0.7901,0.0,0.0,0.0,0.0,0.0,0.0,0.0,0.0,0.0,-0.8099,-0.8587,-0.8795,-0.9095,-0.9516,-0.958,-0.9766,-0.9983,-1.0079,-1.0301,-1.0624,-1.0751,-1.094,-1.1122,-1.1466,-1.1591,-1.1591,-1.1591,0.0,0.0,0.0,0.0,0.0,-1.1591,-1.1591,0.0,-1.1591,-1.1591,-1.1591,0.0,0.0,0.0,0.0,-1.1716,-1.1845,-1.1959,-1.2335,-1.2692,-1.2641,-1.2679,-1.2673,-1.2489,-1.2452,-1.2415,-1.2335,-1.2305,-1.2271,-1.2229,-1.2383,0.0,0.0,0.0,0.0,0.0,0.0,0.0,0.0,0.0,0.0,0.0,0.0,0.0,0.0,0.0,0.0,0.0,0.0,-1.1194,-1.1194,-1.0692,-1.0208,-0.9725,-0.9133,-0.8506,-0.79,-0.79,-0.7455,-0.6567,-0.6476,-0.5985,0.0,0.0,0.0,-0.3719,-0.3496,-0.2915,-0.2163,-0.1785,-0.124,-0.0623,-0.0149,0.0455,0.1111,0.0,0.0,0.0,0.0,0.0,0.0,0.0,0.0,0.0,0.0,0.0,0.0,0.0,0.0,0.0,0.0,0.0,0.0,0.0,0.0,0.0,0.0,-0.7987,-0.8303,-0.8698,-0.8963,-0.9233,-0.9516,-0.9708,-0.9868,-0.9983,-1.0206,-1.0396,-1.0624,-1.0933,-1.109,-1.1122,-1.1466,-1.1591,-1.1591,-1.1591,0.0,0.0,0.0,0.0,0.0,0.0,0.0,0.0,-1.1591,-1.1591,-1.1591,-1.1591,0.0,0.0,0.0,0.0,0.0,-1.1889,-1.2296,-1.2656,-1.2671,-1.2813,-1.29,-1.2636,-1.2599,-1.2526,-1.2342,-1.2338,-1.2414,-1.2528,-1.2569,0.0,0.0,0.0,0.0,0.0,0.0,0.0,0.0,0.0,0.0,0.0,0.0,0.0,0.0,0.0,0.0,0.0,0.0,0.0,-1.1194,-1.0953,-1.0532,-0.9932,-0.9225,-0.8595,-0.7938,-0.7911,-0.7499,-0.6795,-0.652,-0.6163,0.0,0.0,0.0,-0.3939,-0.3719,-0.3094,-0.2298,-0.1972,-0.1431,-0.0767,-0.0299,0.0202,0.0758,0.0,0.0,0.0,0.0,0.0,0.0,0.0,0.0,0.0,0.0,0.0,0.0,0.0,0.0,0.0,0.0,0.0,0.0,0.0,0.0,0.0,-0.7875,-0.8126,-0.8411,-0.8698,-0.8963,-0.9233,-0.9516,-0.9708,-0.9868,-0.9983,-1.0206,-1.0396,-1.0624,-1.0933,-1.109,-1.1122,-1.1466,-1.1591,-1.1591,-1.1591,0.0,0.0,0.0,0.0,0.0,0.0,0.0,0.0,-1.1591,-1.1591,-1.1591,-1.1591,0.0,0.0,0.0,0.0,0.0,-1.165,-1.2109,-1.2562,-1.2656,-1.292,-1.3046,-1.2673,-1.2599,-1.2526,-1.2342,-1.2543,-1.273,-1.2739,-1.3002,-1.3138,0.0,0.0,0.0,0.0,0.0,0.0,0.0,0.0,0.0,0.0,0.0,0.0,0.0,0.0,0.0,0.0,0.0,0.0,-1.1194,-1.0953,-1.0542,-1.007,-0.9605,-0.8962,-0.8065,-0.7967,-0.7499,-0.6795,-0.652,-0.6163,0.0,0.0,-0.4699,-0.421,-0.3765,-0.3272,-0.2745,-0.2301,-0.1812,-0.1341,-0.0847,-0.0354,0.0253,0.0,0.0,0.0,0.0,0.0,0.0,0.0,0.0,0.0,0.0,0.0,0.0,0.0,0.0,0.0,0.0,0.0,0.0,0.0,0.0,-0.7901,-0.7901,-0.8285,-0.8584,-0.8704,-0.9113,-0.9384,-0.9516,-0.9766,-0.9926,-1.0015,-1.0333,-1.0498,-1.0624,-1.0933,-1.109,-1.1122,-1.1466,-1.1591,-1.1591,0.0,0.0,0.0,0.0,0.0,0.0,0.0,0.0,0.0,0.0,-1.1445,-1.1591,-1.1591,0.0,0.0,0.0,0.0,0.0,-1.1591,-1.2028,-1.2521,-1.2571,-1.2977,-1.3309,-1.2973,-1.2826,-1.2709,-1.2489,-1.2651,-1.2837,-1.3005,0.0,-1.3242,0.0,0.0,0.0,0.0,0.0,0.0,0.0,0.0,0.0,0.0,0.0,0.0,0.0,0.0,0.0,0.0,0.0,0.0,0.0,-1.1096,-1.0756,-1.0277,-0.9892,-0.9234,-0.8329,-0.8023,-0.7635,-0.7149,-0.6653,-0.6296,-0.603,0.0,-0.4832,-0.448,-0.3855,-0.3317,-0.2834,-0.2394,-0.1908,-0.1389,-0.0648,-0.0051,0.0556,0.0,0.0,0.0,0.0,0.0,0.0,0.0,0.0,0.0,0.0,0.0,0.0,0.0,0.0,0.0,0.0,0.0,0.0,0.0,-0.8002,-0.8008,-0.7981,-0.8512,-0.8792,-0.871,-0.9239,-0.9516,-0.958,-0.9862,-1.0047,-1.0142,-1.0466,-1.0624,-1.0649,-1.0965,-1.1122,-1.1185,-1.1466,-1.1591,-1.1591,0.0,0.0,0.0,0.0,0.0,0.0,0.0,0.0,0.0,0.0,0.0,0.0,0.0,0.0,0.0,-1.1591,-1.1591,-1.1591,-1.1591,-1.2028,-1.2485,-1.2485,-1.3009,-1.3455,-1.3236,-1.3083,-1.2921,-1.2725,-1.2828,-1.3024,0.0,-1.3344,0.0,0.0,0.0,0.0,0.0,0.0,0.0,0.0,0.0,0.0,0.0,0.0,0.0,0.0,0.0,0.0,0.0,0.0,0.0,0.0,-1.1194,-1.0949,-1.0413,-1.0078,-0.9439,-0.852,-0.8127,-0.7768,-0.7462,-0.6745,-0.6384,-0.634,-0.5408,-0.4924,-0.4703,-0.3944,-0.3406,-0.3015,-0.2442,-0.1823,-0.1262,-0.045,0.0202,0.0758,0.0,0.0,0.0,0.0,0.0,0.0,0.0,0.0,0.0,0.0,0.0,0.0,0.0,0.0,0.0,0.0,0.0,0.0,0.0,-0.8368,-0.8321,-0.8195,-0.8818,-0.902,-0.871,-0.9239,-0.958,-0.9772,-0.9926,-1.018,-1.0561,-1.0593,-1.0688,-1.08,-1.0996,-1.1185,-1.1303,-1.1498,-1.1591,-1.1591,-1.1591,0.0,0.0,0.0,0.0,0.0,0.0,0.0,0.0,0.0,0.0,0.0,0.0,0.0,-1.1591,-1.1591,-1.1591,-1.1591,-1.1591,-1.2028,-1.2485,-1.2485,-1.3009,-1.3455,-1.3236,-1.3193,-1.3131,-1.2993,-1.3217,-1.3484,0.0,-1.364,0.0,0.0,0.0,0.0,0.0,0.0,0.0,0.0,0.0,0.0,0.0,0.0,0.0,0.0,0.0,0.0,0.0,0.0,0.0,0.0,0.0,-1.0949,-1.0413,-1.0078,-0.9503,-0.8683,-0.8136,-0.7768,-0.7462,-0.6745,-0.6384,-0.634,-0.5408,-0.501,-0.4921,-0.3989,-0.3587,-0.3467,-0.2535,-0.1658,-0.0855,-0.0757,-0.0253,0.0455,0.0,0.0,0.0,0.0,0.0,0.0,0.0,0.0,0.0,0.0,0.0,0.0,0.0,0.0,0.0,0.0,0.0,0.0,0.0,-0.8395,-0.8368,-0.8321,-0.8874,-0.9136,-0.902,-0.9544,-0.9862,-0.9926,-1.011,-1.0339,-1.0593,-1.0593,-1.0681,-1.0807,-1.0996,-1.1185,-1.1303,-1.1498,-1.1591,-1.1591,-1.1591,-1.1591,0.0,0.0,0.0,0.0,0.0,0.0,0.0,0.0,-1.0938,-1.1158,-1.1489,-1.1591,-1.1591,-1.1591,-1.1591,-1.1635,-1.1802,-1.2182,-1.2536,-1.2775,-1.3162,-1.3499,-1.3382,-1.3461,-1.3492,-1.3447,-1.3636,-1.3838,0.0,0.0,0.0,0.0,0.0,0.0,0.0,0.0,0.0,0.0,0.0,0.0,0.0,0.0,0.0,0.0,0.0,0.0,0.0,0.0,0.0,0.0,0.0,-1.0757,-1.0413,-0.9888,-0.9418,-0.8948,-0.8237,-0.7856,-0.7724,-0.683,-0.6384,-0.634,-0.5408,-0.501,-0.4921,-0.4123,-0.3723,-0.3512,-0.2582,-0.1808,-0.1263,-0.0909,-0.0404,0.0202,0.0,0.0,0.0,0.0,0.0,0.0,0.0,0.0,0.0,0.0,0.0,0.0,0.0,0.0,0.0,0.0,0.0,0.0,-0.8533,-0.8533,-0.8507,-0.8474,-0.8931,-0.9227,-0.9288,-0.9794,-1.0052,-1.0079,-1.0301,-1.0466,-1.0593,-1.0593,-1.0713,-1.0902,-1.1028,-1.1216,-1.1404,-1.1529,-1.1591,-1.1591,-1.1591,-1.1591,0.0,0.0,0.0,0.0,0.0,0.0,0.0,0.0,-1.0849,-1.1175,-1.1613,-1.1747,-1.1747,-1.1747,-1.1716,-1.172,-1.2012,-1.2303,-1.2565,-1.2928,-1.325,-1.3521,-1.3623,-1.3746,-1.3815,-1.3839,-1.3999,-1.4117,-1.409,0.0,0.0,0.0,0.0,0.0,0.0,0.0,0.0,0.0,0.0,0.0,0.0,0.0,0.0,0.0,0.0,0.0,0.0,0.0,0.0,0.0,0.0,-1.0654,-1.0413,-0.9793,-0.9376,-0.9092,-0.8282,-0.79,-0.7852,-0.6874,-0.6384,-0.6343,-0.55,-0.5099,-0.4966,-0.4302,-0.3796,-0.3348,-0.2501,-0.1954,-0.1566,-0.1111,-0.0606,-0.0051,0.0,0.0,0.0,0.0,0.0,0.0,0.0,0.0,0.0,0.0,0.0,0.0,0.0,0.0,0.0,0.0,0.0,0.0,-0.8804,-0.8804,-0.8745,-0.86,-0.8997,-0.9301,-0.9483,-0.9884,-1.0168,-1.0301,-1.0498,-1.0593,-1.0593,-1.0593,-1.0782,-1.109,-1.109,-1.1279,-1.1591,-1.1591,-1.1591,-1.1591,-1.1591,-1.1591,-1.1518,0.0,0.0,0.0,0.0,0.0,0.0,0.0,-1.0929,-1.1222,-1.1874,-1.2096,-1.2096,-1.2096,-1.1965,-1.1877,-1.2213,-1.241,-1.2599,-1.2928,-1.3258,-1.3579,-1.3909,-1.3989,-1.4039,-1.408,-1.4273,-1.4356,-1.4124,-1.4088,0.0,0.0,0.0,0.0,0.0,0.0,0.0,0.0,0.0,0.0,0.0,0.0,0.0,0.0,0.0,0.0,0.0,0.0,0.0,0.0,0.0,0.0,-1.0408,-0.9793,-0.9376,-0.9092,-0.8282,-0.79,-0.7852,-0.6874,-0.6384,-0.6343,-0.568,-0.5235,-0.4966,-0.4476,-0.3763,-0.2953,-0.2432,-0.1954,-0.1566,-0.1313,-0.0859,-0.0354,0.0,0.0,0.0,0.0,0.0,0.0,0.0,0.0,0.0,0.0,0.0,0.0,0.0,0.0,0.0,0.0,0.0,0.0,-0.8936,-0.8857,-0.8778,-0.8745,-0.903,-0.9323,-0.9621,-1.0174,-1.0474,-1.0498,-1.0561,-1.0593,-1.0593,-1.0713,-1.087,-1.109,-1.1216,-1.1373,-1.1591,-1.1591,-1.1591,-1.1591,-1.1591,-1.1591,-1.1549,0.0,0.0,0.0,0.0,0.0,0.0,0.0,0.0,0.0,-1.1874,-1.2096,-1.2096,-1.2096,-1.2058,-1.2156,-1.2702,-1.2896,-1.304,-1.347,-1.3643,-1.377,-1.3946,-1.4196,-1.444,-1.4736,-1.4698,-1.4566,-1.4363,0.0,0.0,0.0,0.0,0.0,0.0,0.0,0.0,0.0,0.0,0.0,0.0,0.0,0.0,0.0,0.0,0.0,0.0,0.0,0.0,0.0,-1.0752,-1.0391,-1.0202,-0.9536,-0.9124,-0.8897,-0.8224,-0.79,-0.7852,-0.7058,-0.6567,-0.6384,-0.5855,-0.5366,-0.4921,-0.4121,-0.369,-0.3412,-0.2749,-0.2322,-0.2032,-0.1609,-0.1162,-0.0606,0.0,0.0,0.0,0.0,0.0,0.0,0.0,0.0,0.0,0.0,-0.9309,-0.929,0.0,0.0,0.0,0.0,0.0,0.0,0.0,-0.9008,-0.8956,-0.8956,-0.9106,-0.9418,-0.984,-1.0353,-1.066,-1.0814,-1.0688,-1.0624,-1.0681,-1.0776,-1.0933,-1.1185,-1.1272,-1.1397,-1.1591,-1.1591,-1.1591,-1.1591,-1.1654,-1.1685,-1.1626,0.0,0.0,0.0,0.0,0.0,0.0,0.0,0.0,0.0,-1.2087,-1.2313,-1.2313,-1.2313,-1.2251,-1.2336,-1.2989,-1.3148,-1.3241,-1.3761,-1.3863,-1.388,-1.4153,0.0,0.0,0.0,-1.4957,-1.4741,-1.4482,0.0,0.0,0.0,0.0,0.0,0.0,0.0,0.0,0.0,0.0,0.0,0.0,0.0,0.0,0.0,0.0,0.0,0.0,0.0,0.0,0.0,-1.0654,-1.0316,-1.0114,-0.9417,-0.9003,-0.8771,-0.8197,-0.79,-0.7852,-0.7149,-0.6656,-0.6343,-0.5719,-0.5275,-0.4921,-0.4076,-0.3723,-0.3615,-0.3025,-0.2554,-0.226,-0.1906,-0.1415,-0.0909,0.0,0.0,-0.9825,-0.9825,0.0,0.0,0.0,0.0,0.0,0.0,-0.9517,-0.9439,0.0,0.0,0.0,0.0,0.0,0.0,0.0,-0.9211,-0.9211,-0.9211,-0.9239,-0.9512,-1.005,-1.0422,-1.0737,-1.1048,-1.0769,-1.0713,-1.0839,-1.0832,-1.1028,-1.1303,-1.1334,-1.1435,-1.1591,-1.1591,-1.1622,-1.1622,-1.174,-1.1809,-1.1803,-1.1676,0.0,0.0,0.0,0.0,0.0,0.0,0.0,0.0,-1.2375,-1.259,-1.259,-1.259,-1.2467,-1.2453,-1.3154,-1.324,-1.3301,-1.3961,-1.4009,0.0,-1.441,-1.4735,-1.4983,-1.5115,0.0,-1.4964,0.0,0.0,0.0,0.0,0.0,0.0,0.0,0.0,0.0,0.0,0.0,0.0,0.0,0.0,0.0,0.0,0.0,0.0,0.0,0.0,0.0,0.0,-1.0636,-1.029,-1.0088,-0.9392,-0.8978,0.0,-0.8193,-0.79,-0.7896,-0.7146,-0.6656,-0.634,-0.5453,-0.501,-0.4966,-0.4212,-0.3855,-0.3653,-0.3212,-0.2744,-0.2304,-0.2106,-0.1718,-0.1212,0.0,0.0,-0.9947,-0.9947,0.0,0.0,0.0,0.0,0.0,0.0,0.0,0.0,0.0,0.0,0.0,0.0,0.0,0.0,0.0,-0.9263,-0.9211,-0.9211,-0.9449,-0.9665,-0.9771,-1.0317,-1.0625,-1.0695,-1.0909,-1.1003,-1.1028,-1.1153,-1.124,-1.1303,-1.1466,-1.156,-1.1591,-1.1591,-1.1654,-1.1771,-1.1778,-1.1903,-1.2027,-1.1826,-1.1707,0.0,0.0,0.0,0.0,0.0,0.0,0.0,-1.2455,-1.259,-1.259,-1.259,-1.256,-1.2679,-1.3336,-1.3518,-1.3624,-1.4182,-1.4432,-1.4528,-1.463,-1.4992,-1.5301,-1.5333,-1.5215,0.0,0.0,0.0,0.0,0.0,0.0,0.0,0.0,0.0,0.0,0.0,0.0,0.0,0.0,0.0,0.0,0.0,0.0,0.0,0.0,0.0,0.0,-1.1194,-1.055,-1.0088,-0.9945,-0.9246,-0.8792,0.0,-0.814,-0.79,-0.7896,-0.7319,-0.6786,-0.6343,-0.5636,-0.5191,-0.4966,-0.4433,-0.3998,-0.3579,-0.3384,-0.3008,-0.2502,-0.2392,-0.1969,-0.1465,0.0,0.0,0.0,0.0,0.0,0.0,0.0,0.0,0.0,0.0,0.0,0.0,0.0,0.0,0.0,0.0,0.0,0.0,0.0,0.0,-0.9387,-0.9387,-0.9544,-0.9735,-0.9885,-1.0215,-1.053,-1.083,-1.1002,-1.1129,-1.1216,-1.1279,-1.1334,-1.1466,-1.156,-1.1654,-1.1716,-1.1716,-1.1778,-1.1965,-1.2027,-1.2089,-1.2197,-1.2201,-1.2051,-1.1878,-1.1784,0.0,0.0,0.0,0.0,0.0,0.0,0.0,-1.259,-1.259,-1.259,-1.2742,-1.3426,-1.3618,-1.3717,-1.4253,0.0,-1.4971,-1.4738,-1.5116,-1.5499,-1.5431,0.0,0.0,0.0,0.0,0.0,0.0,0.0,0.0,0.0,0.0,0.0,0.0,0.0,0.0,0.0,0.0,0.0,0.0,0.0,0.0,0.0,-1.159,-1.1297,-1.1057,-1.0407,-0.9978,-0.9742,-0.9142,-0.8735,-0.8612,-0.812,-0.7764,-0.7496,-0.7007,-0.6653,-0.6343,-0.568,-0.5235,-0.4966,-0.4612,-0.4212,-0.3738,-0.3613,-0.3288,-0.2776,-0.2637,-0.2271,-0.1768,0.0,0.0,0.0,0.0,0.0,0.0,0.0,0.0,0.0,0.0,0.0,0.0,0.0,0.0,0.0,0.0,0.0,0.0,0.0,0.0,0.0,-0.9647,-0.9614,-0.9738,-1.0009,-1.0075,-1.0368,-1.0938,-1.1078,-1.1179,-1.1286,-1.1344,-1.1466,-1.1622,-1.1622,-1.1716,-1.1833,-1.1833,-1.1965,-1.2151,-1.2274,-1.2336,-1.2367,-1.2529,-1.2377,-1.2115,-1.2115,-1.1924,-1.1717,-1.2011,0.0,0.0,0.0,0.0,-1.259,-1.259,-1.259,-1.2742,-1.3426,-1.3672,-1.3876,-1.432,-1.4912,0.0,-1.4847,-1.523,-1.5658,0.0,0.0,0.0,0.0,0.0,0.0,0.0,0.0,0.0,0.0,0.0,0.0,0.0,0.0,0.0,0.0,0.0,0.0,0.0,0.0,0.0,-1.2029,-1.1731,-1.1395,-1.0901,-1.0373,-0.9894,-0.9588,-0.9062,-0.8706,-0.8612,-0.812,-0.7632,-0.7095,-0.6609,-0.6384,-0.6387,-0.5725,-0.528,-0.4966,-0.4837,-0.4438,-0.3873,-0.3833,-0.3469,-0.3061,-0.2876,-0.2517,-0.2071,0.0,0.0,0.0,0.0,0.0,0.0,0.0,0.0,0.0,0.0,-1.0265,-1.0187,0.0,0.0,0.0,0.0,0.0,0.0,-0.9973,0.0,0.0,-0.9766,-0.9673,-0.9636,-0.968,-0.9958,-1.0148,-1.0228,-1.0937,-1.1271,-1.1286,-1.149,-1.1654,-1.1771,-1.1771,-1.1872,-1.2058,-1.2058,-1.2151,-1.2274,-1.2305,-1.2406,-1.256,-1.259,-1.2566,-1.2519,-1.2519,-1.2487,-1.2455,-1.2503,-1.2519,0.0,0.0,0.0,-1.259,-1.259,-1.259,-1.2742,-1.3426,-1.4029,-1.4486,0.0,-1.4987,-1.5312,0.0,0.0,-1.5658,0.0,0.0,0.0,0.0,0.0,0.0,0.0,0.0,0.0,0.0,0.0,0.0,0.0,0.0,0.0,0.0,0.0,0.0,0.0,0.0,0.0,-1.2029,-1.1731,-1.1395,-1.0901,-1.0247,-0.9813,-0.9583,-0.8941,-0.8637,-0.8612,-0.812,-0.7632,-0.7095,-0.6609,-0.6384,-0.6387,-0.5861,-0.5416,-0.501,-0.4966,-0.4523,-0.3868,-0.3776,-0.3568,-0.3297,-0.2882,-0.2687,-0.2624,0.0,0.0,0.0,0.0,0.0,0.0,0.0,0.0,0.0,0.0,0.0,-1.0496,0.0,0.0,0.0,-1.029,-1.0205,-1.0136,-0.9999,-0.9947,-0.9921,-0.9921,-0.9862,-0.9829,-0.9829,-0.9978,-1.0143,-1.0329,-1.0886,-1.1268,-1.1428,-1.1744,-1.1903,-1.1965,-1.1965,-1.2058,-1.2212,-1.2212,-1.2313,-1.2467,-1.2467,-1.2529,-1.259,-1.259,-1.259,-1.259,-1.259,-1.259,-1.259,-1.259,-1.259,-1.259,-1.259,0.0,0.0,0.0,-1.259,-1.2742,-1.3426,-1.4101,-1.4605,0.0,-1.5091,-1.5497,-1.5266,0.0,0.0,0.0,0.0,0.0,0.0,0.0,0.0,0.0,0.0,0.0,0.0,0.0,0.0,0.0,0.0,0.0,0.0,0.0,0.0,0.0,0.0,-1.2415,-1.1857,-1.1702,-1.131,-1.0607,-1.004,-0.9623,-0.9429,-0.8865,-0.8476,-0.8212,-0.7988,-0.7632,-0.7095,-0.6789,-0.6523,-0.6387,-0.5908,-0.5508,-0.5191,-0.5055,-0.4746,-0.4312,-0.3988,-0.3745,-0.3583,-0.3265,-0.2979,-0.2775,0.0,0.0,0.0,0.0,0.0,0.0,0.0,0.0,0.0,0.0,0.0,0.0,0.0,0.0,0.0,0.0,-1.047,-1.0316,-1.0128,-1.011,-1.0076,-1.0076,-1.0025,-0.9999,-0.9999,-0.9999,-1.012,-1.0379,-1.0816,-1.1182,-1.1454,-1.1889,-1.2127,-1.222,-1.2158,-1.2212,-1.2367,-1.2367,-1.2467,-1.259,-1.259,-1.259,-1.259,-1.259,-1.259,-1.259,-1.259,-1.259,0.0,0.0,0.0,0.0,0.0,0.0,0.0,0.0,0.0,-1.2965,-1.3441,0.0,-1.4605,-1.4605,-1.5102,-1.554,0.0,0.0,0.0,0.0,0.0,0.0,0.0,0.0,0.0,0.0,0.0,0.0,0.0,0.0,0.0,0.0,0.0,0.0,0.0,0.0,0.0,0.0,0.0,-1.2406,-1.1762,-1.1649,-1.1203,-1.0331,-0.9858,-0.9491,-0.9305,-0.8828,-0.8344,-0.79,-0.79,-0.7632,-0.7095,-0.6881,-0.6656,-0.6387,-0.5994,-0.5641,-0.5371,-0.5099,-0.4879,-0.4667,-0.4146,-0.3958,-0.3867,-0.3586,-0.3264,-0.2977,0.0,0.0,0.0,0.0,0.0,0.0,0.0,0.0,0.0,0.0,0.0,0.0,-1.0896,-1.0871,-1.082,-1.0693,-1.0667,-1.0624,-1.047,-1.0342,-1.0265,-1.0265,-1.011,0.0,-0.9999,-0.9999,-1.0007,-1.0022,-1.0558,-1.0973,-1.1329,-1.1797,-1.2204,-1.256,-1.2367,-1.2406,-1.259,-1.259,-1.259,-1.259,-1.259,-1.259,-1.259,-1.259,-1.259,-1.259,-1.259,0.0,0.0,0.0,0.0,0.0,0.0,0.0,0.0,0.0,0.0,0.0,0.0,-1.4101,0.0,-1.4605,-1.4927,-1.5263,0.0,0.0,0.0,0.0,0.0,0.0,0.0,0.0,0.0,0.0,0.0,0.0,0.0,0.0,0.0,0.0,0.0,0.0,0.0,0.0,0.0,0.0,0.0,-1.2189,-1.1709,-1.145,-1.0994,-1.0327,-0.9858,-0.9491,-0.9305,-0.8828,-0.8344,-0.79,-0.79,-0.7632,-0.7095,-0.6881,-0.6656,-0.6384,-0.6169,-0.5816,-0.5371,-0.5099,-0.4879,-0.4661,-0.4131,-0.4003,-0.4095,-0.3577,-0.3473,-0.3484,0.0,0.0,0.0,0.0,0.0,0.0,0.0,0.0,0.0,0.0,0.0,0.0,0.0,-1.0947,-1.0871,-1.082,-1.082,-1.0794,-1.0769,-1.0616,-1.0573,-1.0573,-1.0419,-1.0308,-1.0308,-1.0308,-1.0308,-1.0308,-1.0714,-1.1115,-1.1439,-1.1948,-1.2367,-1.2713,-1.256,-1.2529,-1.2598,-1.2683,-1.2713,-1.2744,-1.2836,-1.2867,-1.2867,-1.2867,-1.2867,0.0,0.0,0.0,0.0,0.0,0.0,0.0,0.0,0.0,0.0,0.0,-1.3204,-1.3717,0.0,0.0,0.0,-1.4605,-1.4911,-1.5276,0.0,0.0,0.0,0.0,0.0,0.0,0.0,0.0,0.0,0.0,0.0,0.0,0.0,0.0,0.0,0.0,0.0,0.0,0.0,0.0,0.0,0.0,0.0,0.0,-1.1283,-1.1146,-1.0821,-1.0118,-0.9668,-0.9239,-0.8872,-0.87,-0.8344,-0.79,-0.79,-0.7632,-0.7095,-0.701,-0.6786,-0.6384,-0.6343,-0.6038,-0.5552,-0.5371,-0.5102,-0.4879,-0.4525,-0.432,-0.4188,-0.4,-0.3905,-0.3783,0.0,0.0,0.0,0.0,0.0,0.0,0.0,0.0,0.0,-1.1817,0.0,0.0,0.0,0.0,-1.1341,-1.1147,-1.0988,-1.0896,-1.0896,-1.082,-1.0769,-1.0769,-1.0667,-1.0616,-1.0616,-1.0616,-1.0616,-1.0616,-1.0858,-1.1212,-1.1692,-1.202,-1.2432,-1.2867,-1.2775,-1.2744,-1.2744,-1.2836,-1.2867,-1.2867,-1.2958,-1.2989,-1.2989,-1.2989,0.0,0.0,0.0,0.0,0.0,0.0,0.0,0.0,0.0,0.0,0.0,0.0,0.0,-1.3776,-1.3676,0.0,0.0,0.0,-1.4787,-1.5094,0.0,0.0,0.0,0.0,0.0,0.0,0.0,0.0,0.0,0.0,0.0,0.0,0.0,0.0,0.0,0.0,0.0,0.0,0.0,0.0,0.0,0.0,0.0,0.0,-1.1039,-1.0958,-1.0583,-0.9868,-0.9519,-0.9087,-0.8696,-0.8656,-0.8344,-0.79,-0.79,-0.7632,-0.7095,-0.7095,-0.6874,-0.652,-0.6432,-0.6124,-0.5688,-0.5463,-0.528,-0.5102,-0.4792,-0.4595,-0.4425,-0.4235,-0.4195,-0.4085,0.0,0.0,0.0,0.0,0.0,0.0,0.0,0.0,-1.2458,-1.2859,0.0,0.0,0.0,0.0,0.0,-1.1679,-1.1214,-1.0955,-1.0955,-1.0921,-1.0913,-1.0913,-1.0905,-1.0896,-1.0896,-1.0896,-1.0896,-1.0896,-1.0896,-1.1269,-1.2008,-1.2008,-1.2369,-1.3019,-1.3011,-1.3011,-1.3011,-1.3019,-1.3019,-1.3019,-1.3011,-1.3019,-1.3036,0.0,0.0,0.0,-1.3044,-1.3044,0.0,-1.3044,0.0,0.0,0.0,0.0,0.0,0.0,0.0,-1.3825,0.0,0.0,0.0,0.0,0.0,0.0,-1.5102,0.0,0.0,0.0,0.0,0.0,0.0,0.0,0.0,0.0,0.0,0.0,0.0,0.0,0.0,0.0,0.0,0.0,0.0,0.0,0.0,0.0,0.0,-1.151,-1.1019,-1.0806,-1.0337,-0.9602,-0.9388,-0.9174,-0.8911,-0.8696,-0.8388,-0.79,-0.79,-0.7632,-0.7095,-0.7095,-0.701,-0.6795,-0.652,-0.6124,-0.5688,-0.5508,-0.5416,-0.5371,-0.4884,-0.4776,-0.4849,-0.4377,-0.4294,-0.4388,0.0,0.0,0.0,0.0,0.0,-1.2726,-1.2734,-1.2725,-1.276,0.0,0.0,0.0,-1.2821,-1.2647,-1.2484,-1.2334,-1.2114,-1.2,-1.2,-1.162,-1.1399,-1.1399,-1.1088,-1.0896,-1.0896,-1.0896,-1.0896,-1.0896,-1.0896,-1.1269,-1.2008,-1.2083,-1.2521,-1.3211,-1.3316,-1.3359,-1.3368,-1.3263,-1.3211,-1.3241,-1.3307,-1.3529,0.0,0.0,0.0,0.0,0.0,-1.4238,-1.4238,0.0,-1.4238,-1.4238,0.0,0.0,-1.4206,0.0,0.0,-1.4537,-1.4315,0.0,0.0,0.0,0.0,0.0,-1.5102,-1.5405,0.0,0.0,0.0,0.0,0.0,0.0,0.0,0.0,0.0,0.0,0.0,0.0,0.0,0.0,0.0,0.0,0.0,0.0,0.0,0.0,-1.2025,-1.1494,-1.1014,-1.0638,-1.0164,-0.9602,-0.9388,-0.9174,-0.8911,-0.8696,-0.8432,-0.8113,-0.7984,-0.7724,-0.737,-0.7187,-0.701,-0.6795,-0.6704,-0.6438,-0.5952,-0.573,-0.5552,-0.5371,-0.5238,-0.5189,-0.5185,-0.5043,-0.4975,-0.4939,0.0,0.0,-1.3188,-1.325,-1.3268,-1.3296,-1.3321,-1.332,-1.3374,0.0,0.0,0.0,-1.3364,-1.3092,-1.293,-1.293,-1.2734,-1.2619,-1.2619,-1.2247,-1.2018,-1.2018,-1.1699,-1.1461,-1.1283,-1.1283,-1.12,-1.1074,-1.12,-1.1577,-1.2175,-1.242,-1.2838,-1.3376,-1.348,-1.3511,-1.348,-1.3437,-1.3385,0.0,-1.366,0.0,0.0,-1.4281,-1.4487,0.0,0.0,0.0,-1.4684,-1.4684,-1.4684,0.0,0.0,0.0,0.0,0.0,0.0,-1.4857,-1.466,-1.4765,-1.4864,0.0,0.0,0.0,-1.4911,-1.5221,-1.5456,0.0,0.0,0.0,0.0,0.0,0.0,0.0,0.0,0.0,0.0,0.0,0.0,0.0,0.0,0.0,0.0,0.0,0.0,-1.2254,-1.1907,-1.144,-1.0911,-1.0516,-1.012,-0.9777,-0.9476,-0.9218,-0.9087,-0.874,-0.8472,-0.8201,-0.7984,-0.7768,-0.7507,-0.7231,-0.7054,-0.6925,-0.6836,-0.6659,-0.6349,-0.6083,-0.5816,-0.5508,-0.5416,-0.539,-0.5364,-0.5313,-0.5289,-0.5286,0.0,0.0,-1.3806,-1.3699,-1.368,-1.3737,-1.3986,-1.4004,-1.4142,0.0,-1.4417,-1.4267,-1.407,-1.372,-1.3498,-1.3498,-1.3196,-1.3009,-1.3009,-1.2817,-1.2699,-1.2699,-1.2553,-1.2298,-1.1936,-1.1928,-1.1791,-1.1472,-1.1791,-1.2116,-1.2513,-1.2866,-1.3227,-1.3571,-1.3571,-1.3571,-1.3571,-1.3584,0.0,-1.3657,-1.3987,-1.4144,0.0,0.0,-1.4769,-1.4812,-1.4812,-1.4812,-1.4812,-1.4812,-1.4812,0.0,0.0,0.0,0.0,0.0,-1.4925,-1.4992,-1.4949,-1.4965,-1.4935,0.0,0.0,0.0,-1.4605,-1.4919,-1.5156,0.0,0.0,0.0,0.0,0.0,0.0,0.0,0.0,0.0,0.0,0.0,0.0,0.0,0.0,0.0,0.0,-1.2705,-1.2326,-1.2043,-1.1785,-1.1392,-1.0727,-1.0467,-1.025,-0.9994,-0.9563,-0.9301,-0.9305,-0.8872,-0.8516,-0.8245,-0.8028,-0.7812,-0.7551,-0.7279,-0.7139,-0.7095,-0.6925,-0.6836,-0.6795,-0.6523,-0.6169,-0.5777,-0.5552,-0.553,-0.5555,-0.5432,-0.5444,-0.5552,-1.4231,-1.4269,-1.4374,-1.4677,-1.4705,-1.4724,-1.4779,-1.4789,-1.4817,-1.4872,-1.4725,-1.4577,-1.4417,-1.4225,-1.412,-1.412,-1.3921,-1.3788,-1.3788,-1.3449,-1.3226,-1.3226,-1.2952,-1.2758,-1.2687,-1.2678,-1.2643,-1.26,-1.2643,-1.2873,-1.3206,-1.3285,-1.3532,-1.3881,-1.3881,-1.3881,-1.3907,-1.4237,0.0,-1.4378,-1.4184,0.0,-1.5,-1.5086,-1.5309,-1.5583,-1.5583,-1.5583,-1.5583,-1.5583,-1.5583,-1.5583,0.0,0.0,0.0,0.0,0.0,0.0,0.0,0.0,0.0,0.0,0.0,0.0,-1.4605,-1.4919,-1.5122,0.0,0.0,0.0,0.0,0.0,0.0,0.0,0.0,0.0,0.0,0.0,0.0,0.0,0.0,0.0,0.0,-1.2833,-1.2454,-1.2043,-1.1607,-1.1176,-1.0727,-1.0593,-1.0376,-0.9994,-0.9689,-0.9476,-0.9305,-0.8999,-0.874,-0.852,-0.8248,-0.8025,-0.7812,-0.7547,-0.7323,-0.7095,-0.7051,-0.6966,-0.6795,-0.6748,-0.6526,-0.6254,-0.6038,-0.6026,-0.611,-0.5996,-0.5873,-0.584,-1.4869,-1.4917,-1.4955,-1.5089,-1.5098,-1.5098,-1.5,-1.5,-1.5,-1.5,-1.4911,-1.4823,-1.4773,-1.4684,-1.4616,-1.4526,-1.4428,-1.4309,-1.4258,-1.4001,-1.3864,-1.3864,-1.3589,-1.3364,-1.316,-1.3151,-1.3062,-1.2903,-1.3062,-1.3249,-1.3407,-1.3611,-1.3815,-1.401,-1.401,-1.401,-1.4036,-1.4418,-1.4724,-1.4897,-1.493,0.0,-1.5504,-1.567,-1.5861,-1.6035,-1.6035,-1.6,-1.5929,-1.5929,-1.5867,0.0,0.0,-1.5805,-1.5805,0.0,-1.5805,-1.577,0.0,0.0,0.0,-1.5106,0.0,0.0,0.0,-1.4748,-1.4885,0.0,0.0,0.0,0.0,0.0,0.0,0.0,0.0,0.0,0.0,0.0,0.0,0.0,0.0,0.0,0.0,-1.2918,-1.2497,-1.2037,-1.1564,-1.1176,-1.0868,-1.0727,-1.0511,-1.0168,-0.9777,-0.9515,-0.9305,-0.9043,-0.878,-0.8612,-0.8336,-0.8157,-0.8028,-0.7812,-0.7547,-0.7279,-0.7279,-0.7146,-0.6966,-0.6966,-0.6877,-0.6697,-0.6387,-0.6299,-0.6337,-0.6438,-0.6409,-0.639,-1.5507,-1.5478,-1.542,-1.5323,-1.5264,-1.5205,-1.5088,-1.5155,-1.5241,-1.5287,-1.5306,-1.5267,-1.5237,-1.5237,-1.5177,-1.5008,-1.5008,-1.4958,-1.4826,-1.4662,-1.4535,-1.4496,-1.4264,-1.3969,-1.3618,-1.3609,-1.3495,-1.3219,-1.3495,-1.3609,-1.3618,-1.3948,-1.41,-1.41,-1.41,-1.4144,-1.4243,0.0,0.0,-1.5438,0.0,-1.5974,-1.5941,-1.6192,-1.6307,-1.6316,-1.6395,-1.6307,-1.614,-1.6219,0.0,-1.5903,-1.5867,-1.5867,0.0,0.0,0.0,0.0,0.0,0.0,0.0,0.0,0.0,-1.4864,0.0,0.0,0.0,0.0,0.0,0.0,0.0,0.0,0.0,0.0,0.0,0.0,0.0,0.0,0.0,0.0,0.0,0.0,0.0,-1.2813,-1.2378,-1.1963,-1.1585,-1.1267,-1.1008,-1.0824,-1.0598,-1.0294,-0.9907,-0.9559,-0.9345,-0.9087,-0.8867,-0.8652,-0.838,-0.8245,-0.8201,-0.8028,-0.7812,-0.7595,-0.7595,-0.7455,-0.7275,-0.7275,-0.7275,-0.7187,-0.6697,-0.6476,-0.651,-0.674,-0.6794,-0.6833,-1.5856,-1.5759,-1.5643,-1.5643,-1.5488,-1.5362,-1.5352,-1.5712,-1.6072,-1.6314,-1.6331,-1.6258,-1.6081,-1.605,-1.605,-1.6018,-1.6018,0.0,-1.6018,0.0,-1.5388,-1.5265,-1.4851,-1.4549,-1.4382,-1.4382,-1.4364,-1.4319,-1.4364,-1.4382,-1.4382,-1.4428,-1.4446,-1.4446,-1.4446,-1.4647,-1.4994,0.0,-1.5798,0.0,-1.6611,-1.6558,0.0,-1.6298,-1.6307,-1.636,-1.6687,-1.6599,-1.6325,0.0,-1.6554,-1.6202,0.0,-1.6061,-1.6035,0.0,0.0,0.0,0.0,0.0,0.0,0.0,-1.5185,0.0,0.0,0.0,0.0,0.0,0.0,0.0,0.0,0.0,0.0,0.0,0.0,0.0,0.0,0.0,0.0,0.0,0.0,0.0,0.0,0.0,-1.1945,-1.1689,-1.1651,-1.144,-1.1008,-1.0824,-1.0598,-1.0294,-1.0081,-0.982,-0.9559,-0.9345,-0.913,-0.8867,-0.8652,-0.8428,-0.8201,-0.8157,-0.8072,-0.7856,-0.7856,-0.7856,-0.7808,-0.7808,-0.7808,-0.772,-0.7013,-0.6748,-0.6739,-0.679,-0.6794,-0.6833,-1.5943,-1.5856,-1.5827,-1.5827,-1.5759,-1.5781,-1.6049,-1.6406,-1.6669,-1.6794,-1.6697,-1.657,-1.6497,0.0,0.0,0.0,0.0,-1.6329,0.0,0.0,-1.5936,-1.5873,0.0,0.0,-1.5149,-1.4915,-1.4803,-1.4803,-1.4803,-1.4803,-1.4803,-1.4803,-1.4803,-1.4812,-1.4895,0.0,-1.5232,0.0,-1.6156,0.0,0.0,0.0,0.0,-1.6746,-1.6801,-1.7054,-1.7451,-1.7414,-1.7188,0.0,-1.7268,0.0,0.0,0.0,0.0,0.0,0.0,0.0,0.0,0.0,0.0,0.0,0.0,0.0,-1.4935,0.0,-1.4748,0.0,0.0,0.0,0.0,0.0,0.0,0.0,0.0,0.0,0.0,0.0,0.0,0.0,0.0,0.0,0.0,0.0,0.0,0.0,0.0,-1.135,-1.1011,-1.0924,-1.0781,-1.0554,-1.0294,-0.999,-0.9602,-0.9519,-0.9345,-0.913,-0.8867,-0.8736,-0.86,-0.8472,-0.8296,-0.8069,-0.8069,-0.8028,-0.79,-0.79,-0.79,-0.7856,-0.7544,-0.7455,-0.7439,-0.7524,-0.7612,-0.7715,-1.6087,-1.6,-1.5933,-1.5933,-1.6033,-1.6306,-1.688,-1.7119,-1.7284,-1.7414,0.0,0.0,-1.7177,-1.7177,0.0,0.0,-1.6973,-1.6909,0.0,0.0,-1.6491,0.0,0.0,0.0,0.0,0.0,-1.5171,-1.5171,-1.5057,-1.5,-1.5,-1.5,-1.5066,-1.518,-1.5331,-1.5501,-1.5763,0.0,-1.652,-1.664,-1.6961,-1.7322,-1.762,-1.7338,-1.7413,-1.7724,-1.8137,-1.8098,-1.7895,-1.8013,-1.7911,0.0,-1.768,0.0,0.0,0.0,0.0,0.0,-1.6655,0.0,0.0,0.0,0.0,0.0,0.0,0.0,0.0,0.0,0.0,0.0,0.0,0.0,0.0,-1.3608,0.0,0.0,0.0,0.0,0.0,0.0,0.0,0.0,0.0,0.0,0.0,0.0,-1.1287,-1.1244,-1.1108,-1.0942,-1.0849,-1.0776,-1.0472,-1.012,-0.9777,-0.9646,-0.9515,-0.9388,-0.913,-0.8999,-0.8999,-0.8872,-0.8648,-0.8376,-0.8376,-0.8292,-0.8076,-0.8076,-0.812,-0.8164,-0.8164,-0.8204,-0.8272,-0.8133,-0.8203,-0.8363,-1.6384,-1.622,-1.6085,-1.6085,-1.6353,-1.688,0.0,0.0,0.0,0.0,0.0,0.0,0.0,0.0,0.0,0.0,0.0,-1.8162,-1.7969,0.0,-1.7288,0.0,0.0,-1.6383,0.0,0.0,0.0,-1.5588,-1.5199,-1.5,-1.5,-1.5,-1.5218,-1.5598,-1.5576,-1.605,-1.6859,-1.6888,-1.7125,-1.7451,-1.7461,-1.7716,-1.8088,0.0,-1.8054,-1.8118,-1.855,0.0,0.0,-1.853,-1.8402,0.0,0.0,0.0,0.0,0.0,0.0,0.0,0.0,0.0,0.0,-1.6846,0.0,0.0,0.0,0.0,-1.5964,0.0,0.0,0.0,0.0,0.0,-1.3797,-1.379,-1.3455,0.0,0.0,0.0,0.0,0.0,0.0,0.0,0.0,0.0,0.0,-1.1235,-1.1272,-1.1317,-1.1305,-1.0862,-1.0725,-1.0997,-1.0521,-1.0294,-1.0294,-0.982,-0.9602,-0.9602,-0.9388,-0.9301,-0.9301,-0.9262,-0.913,-0.8867,-0.8867,-0.8784,-0.8568,-0.8568,-0.8696,-0.8867,-0.8867,-0.9043,-0.9152,-0.8403,-0.8203,-0.8363,-1.7583,-1.7543,-1.7329,-1.6801,0.0,0.0,0.0,-1.8379,0.0,0.0,0.0,0.0,0.0,-1.944,-1.9404,0.0,0.0,-1.9334,-1.9263,-1.8839,0.0,0.0,0.0,-1.7139,0.0,0.0,0.0,0.0,-1.6181,-1.6145,-1.6145,-1.6145,-1.6191,-1.6336,-1.651,-1.6766,0.0,0.0,0.0,0.0,0.0,-1.8531,-1.8891,0.0,0.0,-1.8749,-1.9166,-1.9104,0.0,-1.9054,-1.9017,-1.8859,-1.882,-1.8782,-1.8743,-1.8566,-1.8252,0.0,0.0,0.0,-1.7099,-1.7099,0.0,0.0,0.0,0.0,0.0,0.0,0.0,0.0,0.0,0.0,-1.4221,-1.3864,-1.3572,-1.3346,0.0,0.0,0.0,0.0,0.0,0.0,0.0,0.0,0.0,-1.0953,-1.1123,-1.1112,0.0,-1.0975,-1.0978,-1.0725,-1.0747,-1.0694,-1.0554,-1.025,-1.0077,-1.0077,-0.9689,-0.9515,-0.9476,-0.9345,-0.9262,-0.9174,-0.9174,-0.913,-0.9043,-0.9043,-0.9087,-0.9174,-0.9174,-0.9218,-0.9284,-0.9159,-0.9163,-0.9363,-1.819,-1.8318,0.0,0.0,0.0,0.0,0.0,0.0,0.0,0.0,-1.9624,0.0,-2.0032,0.0,-2.0063,0.0,-2.0001,-1.9965,-1.9883,-1.9631,0.0,-1.9329,-1.857,0.0,0.0,0.0,0.0,0.0,0.0,-1.6823,-1.6823,-1.6728,-1.6785,-1.6973,-1.7148,-1.7286,-1.7441,0.0,-1.7753,0.0,0.0,-1.9267,0.0,0.0,-1.9582,-1.9331,0.0,-1.9627,-1.9499,-1.9499,-1.946,-1.9429,-1.9429,-1.9341,-1.9262,-1.9152,-1.8891,-1.8605,-1.8458,-1.8076,0.0,-1.7651,-1.7544,0.0,-1.7149,0.0,0.0,0.0,0.0,0.0,0.0,0.0,-1.4712,-1.4162,-1.3918,-1.366,0.0,-1.2973,0.0,0.0,0.0,0.0,0.0,0.0,-1.1298,-1.1037,-1.1053,-1.1002,0.0,0.0,-1.1145,-1.0852,-1.1,-1.0997,-1.0824,-1.0554,-1.0424,-1.0424,-1.0038,-0.9864,-0.9864,-0.965,-0.9476,-0.9388,-0.9388,-0.9345,-0.9305,-0.9305,-0.9349,-0.9432,-0.9519,-0.9607,-0.9673,-0.9602,-0.9847,-1.0265,-1.8285,-1.8657,0.0,0.0,-1.8333,0.0,0.0,0.0,-1.9869,0.0,-2.0238,-2.0472,-2.0483,-2.0493,-2.0432,-2.0273,-2.0273,0.0,-2.0026,-1.997,0.0,0.0,-1.951,-1.9254,-1.9219,0.0,0.0,0.0,0.0,-1.7072,-1.7072,-1.6882,-1.7021,-1.7445,-1.7445,0.0,-1.8018,-1.8037,-1.8301,-1.8734,-1.9553,-1.9922,-1.999,-2.0449,-2.0333,-1.9942,-1.9902,-1.9902,-1.9902,-1.9902,-1.9784,-1.9597,-1.9597,-1.9469,-1.9341,-1.9301,-1.9192,-1.9042,-1.9002,-1.8851,-1.866,-1.8482,0.0,0.0,0.0,0.0,-1.77,0.0,0.0,0.0,0.0,0.0,0.0,-1.472,-1.4456,-1.4037,-1.3316,0.0,0.0,0.0,0.0,0.0,0.0,-1.1632,-1.1446,-1.1409,-1.1037,-1.0924,0.0,0.0,-1.1311,-1.1288,-1.1325,-1.1251,-1.1051,-1.0819,-1.0727,-1.0727,-1.0467,-1.0337,-1.0294,-1.0125,-0.9907,-0.9646,-0.9646,-0.9563,-0.9388,-0.9388,-0.9476,-0.9689,-0.9951,-1.0178,-1.0304,-0.9839,-1.0223,-1.1034,-1.9608,-1.963,-1.9695,0.0,-1.9871,-1.9864,0.0,0.0,0.0,0.0,-2.1192,-2.1282,-2.1638,-2.153,-2.1418,-2.1381,-2.1391,0.0,0.0,0.0,0.0,-2.0628,-2.0201,-1.9885,-1.9722,-1.9153,0.0,-1.8871,0.0,0.0,-1.8108,-1.8042,-1.8102,-1.8211,-1.8211,-1.8281,-1.8367,-1.8582,-1.9013,-1.9609,-1.9824,-2.0107,0.0,0.0,-2.0527,-2.0411,-2.0264,-2.0069,-1.9902,-1.9902,-1.9863,-1.9824,-1.9824,-1.9784,-1.9706,-1.9557,-1.9478,-1.9399,-1.9271,-1.9073,-1.8922,-1.8843,-1.8723,-1.8571,0.0,0.0,0.0,0.0,0.0,0.0,0.0,0.0,0.0,-1.5273,-1.4691,-1.4149,0.0,0.0,0.0,-1.3046,0.0,0.0,0.0,-1.1892,-1.1781,-1.1632,-1.1409,0.0,0.0,0.0,0.0,-1.1294,-1.1635,-1.1736,-1.1527,-1.1251,-1.1073,-1.0916,-1.0689,-1.0598,-1.0598,-1.0554,-1.0467,-1.0424,-1.0424,-1.0386,-1.0337,-1.0337,-1.0381,-1.0424,-1.0467,-1.0711,-1.101,-1.0923,-1.1224,-1.1759,-2.0118,-2.0216,0.0,-2.0953,0.0,0.0,-2.0671,0.0,0.0,-2.1658,-2.1771,0.0,-2.2467,-2.2454,-2.245,-2.2649,-2.2592,0.0,-2.2234,0.0,0.0,-2.1295,-2.0843,-2.056,-2.043,-1.9966,0.0,-1.9707,0.0,0.0,-1.8933,-1.864,-1.8516,-1.8526,-1.8717,-1.8807,-1.8847,-1.9409,-1.9859,-2.0214,-2.0402,0.0,0.0,-2.1104,-2.1174,-2.1204,-2.1283,-2.0946,-2.0464,-2.0464,-2.0539,-2.0593,-2.0593,-2.0562,-2.045,-2.0329,-2.0289,-2.0248,-2.0036,-1.9924,-1.9761,-1.9566,-1.9317,-1.9021,-1.8859,-1.8484,-1.8152,0.0,0.0,0.0,0.0,0.0,0.0,-1.574,-1.4958,0.0,0.0,0.0,0.0,0.0,0.0,0.0,0.0,0.0,0.0,0.0,0.0,0.0,0.0,0.0,0.0,-1.1565,-1.1979,-1.208,-1.1828,-1.1688,-1.1516,-1.1311,-1.1079,-1.0901,-1.0824,-1.0733,-1.0684,-1.0684,-1.0684,-1.0684,-1.0684,-1.0684,-1.0684,-1.0738,-1.1014,-1.1452,-1.1962,-1.211,-1.2199,-1.2419,-2.0303,0.0,0.0,0.0,0.0,0.0,0.0,-2.1592,0.0,-2.1944,0.0,-2.2717,-2.3197,-2.32,-2.336,-2.3783,0.0,-2.3368,-2.2958,-2.277,-2.2455,-2.1987,-2.1545,-2.1306,-2.1244,-2.0752,0.0,0.0,0.0,0.0,-1.9608,-1.9039,-1.8754,-1.8764,-1.9168,0.0,0.0,-2.0266,-2.0666,-2.0719,-2.1125,-2.1296,-2.1346,-2.1788,-2.2009,-2.206,-2.2453,-2.2048,-2.1318,-2.1318,-2.143,-2.1546,-2.1546,-2.1432,-2.1265,-2.1265,-2.1265,-2.1182,-2.0983,-2.0941,-2.0857,-2.0404,-2.0047,-1.9702,-1.9472,-1.9,-1.8614,-1.849,-1.8149,-1.784,0.0,0.0,0.0,0.0,0.0,0.0,0.0,0.0,0.0,0.0,0.0,0.0,0.0,0.0,0.0,0.0,0.0,0.0,0.0,0.0,0.0,-1.2,-1.2308,0.0,-1.208,0.0,-1.1957,-1.1742,-1.151,-1.1295,-1.1138,-1.0954,-1.0857,-1.0857,-1.0857,-1.0857,-1.0857,-1.0857,-1.0857,-1.0926,-1.1557,-1.2249,-1.2905,-1.3199,-1.3174,-1.3104,0.0,0.0,0.0,0.0,0.0,-2.2375,-2.2622,-2.2705,-2.2911,-2.3313,-2.328,-2.344,-2.3953,-2.3849,-2.379,-2.3815,-2.3785,0.0,0.0,0.0,0.0,-2.2893,-2.2643,-2.2335,-2.192,-2.1302,-2.1,0.0,0.0,0.0,-2.0236,-2.0118,-2.0077,-2.0087,0.0,0.0,-2.0531,-2.0693,0.0,-2.1135,-2.1577,-2.1758,-2.1809,-2.2302,-2.2473,-2.2483,-2.2564,-2.237,-2.2004,-2.2004,-2.194,-2.1834,-2.1834,-2.1792,-2.1741,-2.1515,-2.1464,-2.1422,-2.1182,-2.114,-2.1099,-2.0857,-2.0717,-2.0546,-2.0135,-1.9955,-1.9686,-1.9035,-1.8809,-1.854,-1.784,0.0,0.0,0.0,0.0,0.0,0.0,0.0,0.0,0.0,0.0,0.0,0.0,0.0,0.0,0.0,0.0,0.0,0.0,0.0,0.0,0.0,-1.2814,0.0,0.0,0.0,-1.2203,-1.1957,-1.1909,-1.1866,-1.1828,-1.178,-1.178,-1.178,-1.178,-1.178,-1.178,-1.178,-1.178,-1.1802,-1.2141,-1.2608,-1.3185,-1.3624,-1.4027,-1.4352,0.0,0.0,0.0,0.0,0.0,0.0,0.0,-2.3602,0.0,-2.3694,-2.3846,-2.4143,-2.465,-2.4613,-2.4681,-2.4878,-2.4777,-2.4628,-2.4382,-2.4228,-2.3945,-2.3477,-2.3387,0.0,-2.2632,-2.2286,-2.1979,-2.1626,0.0,0.0,-2.0772,-2.0498,-2.0385,-2.0395,0.0,-2.0968,0.0,0.0,0.0,-2.19,-2.2399,-2.2583,-2.2634,-2.3094,-2.3258,-2.3288,-2.3524,-2.3437,-2.3187,-2.283,-2.2774,-2.2879,-2.2879,-2.2794,-2.2709,-2.2562,-2.2425,-2.2297,-2.2093,-2.2007,-2.1964,-2.1759,-2.1513,-2.1268,-2.097,-2.0634,-2.0274,-1.9749,-1.9536,-1.9195,-1.8341,-1.7834,0.0,0.0,0.0,0.0,0.0,0.0,0.0,0.0,0.0,0.0,0.0,0.0,0.0,0.0,0.0,0.0,0.0,0.0,0.0,0.0,0.0,0.0,0.0,0.0,0.0,-1.2369,-1.2369,-1.2246,-1.2,-1.2,-1.2,-1.2,-1.2,-1.2,-1.1995,-1.216,-1.2332,-1.263,-1.3025,-1.3393,-1.3783,-1.4422,-1.4949,-1.5207,0.0,-2.3017,0.0,0.0,-2.3786,0.0,-2.4002,-2.443,-2.4605,-2.4082,-2.4388,-2.4814,-2.5314,-2.5368,-2.548,-2.5874,-2.578,-2.5534,-2.5144,-2.4895,-2.4598,-2.4116,-2.4116,-2.3862,-2.3353,-2.3303,-2.2953,0.0,0.0,0.0,0.0,-2.0995,0.0,0.0,0.0,0.0,0.0,0.0,-2.2646,-2.2687,-2.3153,-2.3329,-2.3381,-2.3846,-2.4022,-2.4064,-2.4373,-2.4411,-2.4188,-2.3661,-2.3602,-2.3797,-2.3797,-2.3667,-2.3547,-2.3547,-2.3406,-2.3178,-2.3013,-2.2925,-2.2882,-2.2574,-2.2239,-2.1958,-2.1723,-2.1274,-2.0811,-2.0464,-2.0162,-1.9669,-1.8906,-1.8348,0.0,0.0,0.0,0.0,0.0,0.0,0.0,0.0,0.0,0.0,0.0,0.0,0.0,0.0,0.0,0.0,0.0,0.0,0.0,0.0,0.0,-1.3603,-1.3568,0.0,-1.3264,0.0,-1.2833,-1.2668,-1.2295,-1.2295,-1.2295,-1.2295,-1.2295,-1.2295,-1.2295,-1.254,-1.2912,-1.336,-1.3849,-1.4256,-1.4644,-1.5343,-1.5771,-1.6021,0.0,0.0,0.0,0.0,0.0,0.0,0.0,-2.5351,-2.5543,-2.5124,-2.5117,-2.5295,-2.5775,-2.583,-2.5852,-2.5895,-2.5895,-2.5843,-2.5799,-2.5788,-2.557,-2.5079,-2.4895,-2.4586,-2.4111,-2.3942,-2.3559,0.0,0.0,0.0,0.0,0.0,0.0,0.0,0.0,0.0,0.0,-2.3005,-2.3122,-2.3163,-2.367,-2.3815,-2.3867,-2.427,-2.4435,-2.4445,-2.4487,-2.4497,-2.4444,-2.4402,-2.4112,-2.3797,-2.3797,-2.3797,-2.3754,-2.3754,-2.3754,-2.3667,-2.3503,-2.3416,-2.3329,-2.2882,-2.2731,-2.2648,-2.2385,-2.2136,-2.1785,-2.124,-2.047,-1.9762,-1.9339,-1.9044,-1.8657,0.0,0.0,0.0,0.0,0.0,0.0,0.0,0.0,0.0,0.0,0.0,0.0,0.0,0.0,0.0,0.0,0.0,0.0,-1.4189,0.0,-1.4237,-1.4046,-1.3779,0.0,-1.3307,-1.3307,-1.3307,-1.327,-1.327,-1.327,-1.327,-1.327,-1.327,-1.327,-1.3307,-1.363,-1.4117,-1.4423,-1.4974,-1.57,-1.6027,-1.644,-1.6925,0.0,0.0,0.0,0.0,0.0,0.0,0.0,-2.5945,-2.6218,-2.6054,-2.5901,-2.5854,-2.5884,-2.5895,-2.5895,-2.5895,-2.5895,-2.5895,-2.5895,-2.5895,-2.5819,-2.5622,-2.5529,-2.53,-2.481,-2.4718,-2.436,0.0,0.0,0.0,0.0,0.0,0.0,0.0,0.0,-2.339,-2.3422,-2.3817,-2.3977,-2.4019,-2.4493,-2.4682,-2.4703,-2.484,-2.4914,-2.4914,-2.4914,-2.4914,-2.4914,-2.4914,-2.4615,-2.4239,-2.4239,-2.4153,-2.4024,-2.4024,-2.3937,-2.3797,-2.3711,-2.3667,-2.3634,-2.3285,-2.3242,-2.311,-2.2706,-2.2583,-2.2403,-2.2005,-2.125,-2.0619,-2.0464,-1.9755,-1.91,0.0,0.0,0.0,0.0,0.0,0.0,0.0,0.0,0.0,0.0,0.0,0.0,0.0,0.0,0.0,0.0,0.0,0.0,-1.465,0.0,-1.4706,-1.4454,-1.4363,-1.4188,-1.4019,-1.4019,-1.3942,-1.3828,-1.3828,-1.3822,-1.3808,-1.3822,-1.3906,-1.4033,-1.4213,-1.4489,-1.4861,-1.548,-1.593,-1.6299,-1.689,-1.734,-1.7667,-2.5716,0.0,-2.5739,0.0,-2.599,-2.6208,-2.6208,-2.6666,-2.6982,-2.6888,-2.6867,-2.669,-2.6336,-2.6229,-2.6242,-2.6395,-2.6364,-2.6321,-2.6321,-2.619,-2.6114,-2.6114,-2.5983,0.0,-2.5393,-2.5423,-2.5112,-2.4491,-2.4491,0.0,0.0,0.0,0.0,0.0,-2.4055,-2.4108,-2.414,-2.4529,-2.47,-2.4721,-2.5062,-2.52,-2.52,-2.52,-2.5285,-2.5402,-2.5402,-2.5498,-2.5626,-2.5626,-2.541,-2.5119,-2.4794,-2.4583,-2.4411,-2.4411,-2.4239,-2.397,-2.3927,-2.3927,-2.3841,-2.3634,-2.359,-2.3493,-2.3188,-2.2969,-2.2794,-2.2485,-2.1942,-2.1534,-2.1414,-2.0574,-1.9859,-1.9551,0.0,0.0,0.0,0.0,0.0,0.0,-1.7149,-1.6826,-1.6741,0.0,0.0,0.0,0.0,0.0,0.0,0.0,0.0,0.0,0.0,0.0,0.0,-1.4985,-1.4859,-1.4608,-1.4608,-1.4489,-1.4292,-1.4381,-1.4414,-1.445,-1.4595,-1.4757,-1.4935,-1.5245,-1.5559,-1.5863,-1.6501,-1.687,-1.7171,-1.7725,-1.8179,-1.8589,-2.5716,-2.6106,-2.6501,-2.6501,-2.6875,-2.7179,-2.7179,-2.7644,-2.7882,-2.7637,-2.8048,-2.8098,-2.7346,-2.7066,-2.7082,-2.7634,-2.7437,-2.7293,-2.7293,-2.6867,-2.6584,0.0,0.0,-2.5895,-2.5895,-2.5895,-2.5655,-2.5204,0.0,0.0,-2.4486,0.0,-2.4486,-2.4508,-2.4692,-2.4805,-2.4796,-2.5071,-2.5189,-2.5189,-2.52,-2.52,-2.52,-2.52,-2.5487,-2.5902,-2.5902,-2.6211,-2.667,-2.667,-2.6681,-2.65,-2.5498,-2.5031,-2.4903,-2.4903,-2.47,-2.4454,-2.4249,-2.4206,-2.411,-2.3841,-2.3797,-2.3797,-2.3797,-2.344,-2.296,-2.2485,-2.2388,-2.2265,-2.1858,-2.1635,-2.1131,-2.0158,0.0,0.0,0.0,0.0,0.0,0.0,-1.8328,-1.8002,-1.7791,0.0,0.0,0.0,0.0,0.0,0.0,0.0,0.0,-1.6072,-1.6087,0.0,-1.5692,-1.5692,-1.5492,-1.509,-1.509,-1.4957,-1.4706,-1.5056,-1.5196,-1.521,-1.5819,-1.6087,-1.6087,-1.6367,-1.6781,-1.7289,-1.7296,-1.7774,-1.8488,-1.8488,-1.895,-1.9592,-2.6709,-2.6875,-2.699,-2.699,-2.7403,-2.7748,-2.7748,-2.8161,-2.8471,-2.8374,-2.8523,-2.8651,-2.8769,-2.8126,-2.7774,0.0,-2.7898,-2.7766,0.0,-2.7415,-2.7283,-2.7097,-2.6944,-2.6715,-2.6355,-2.6398,-2.6157,-2.5666,0.0,0.0,0.0,-2.5448,-2.5448,-2.5459,-2.5518,-2.553,-2.5563,-2.5967,-2.613,-2.6206,-2.6509,-2.6639,-2.6639,-2.6639,-2.6726,-2.6866,-2.6866,-2.6964,-2.7105,-2.7105,-2.7105,-2.7051,-2.6736,-2.6388,-2.6145,-2.6145,-2.6057,-2.598,-2.5925,-2.5792,-2.556,-2.5317,-2.5104,-2.499,-2.4801,-2.4381,-2.3894,-2.3247,-2.3013,-2.279,-2.2533,-2.2059,-2.1612,-2.1264,-2.0922,0.0,0.0,0.0,0.0,0.0,0.0,-1.8685,0.0,-1.839,0.0,0.0,0.0,0.0,0.0,0.0,0.0,0.0,-1.6771,0.0,-1.6188,-1.6188,-1.6145,-1.6142,-1.6142,-1.6204,-1.632,-1.6467,-1.6519,-1.6527,-1.6712,-1.6896,-1.7058,-1.7412,-1.77,-1.8004,-1.8421,-1.8854,-1.9271,-1.9417,-1.9911,-2.0538,-2.7472,-2.7518,-2.7564,-2.7748,-2.8046,-2.8253,-2.8253,-2.8677,-2.8999,-2.8999,-2.916,-2.9389,-2.9734,-2.9259,0.0,-2.8778,-2.8678,-2.8533,-2.8411,-2.8199,-2.8055,-2.7855,-2.7602,-2.7327,-2.7031,0.0,0.0,-2.6431,-2.6431,-2.6431,-2.6431,-2.6431,-2.6431,-2.6431,-2.6431,-2.6431,-2.6452,-2.6758,-2.6846,-2.6911,-2.7195,-2.7315,-2.7315,-2.7315,-2.7424,-2.7544,-2.7544,-2.7697,-2.785,-2.785,-2.785,-2.785,-2.785,-2.7681,-2.7411,-2.6956,-2.677,-2.6692,-2.6692,-2.6591,-2.6402,-2.6256,-2.6087,-2.5927,-2.5543,-2.5183,-2.4735,-2.4017,-2.3741,-2.3506,-2.3218,-2.2843,-2.2481,-2.2231,-2.1928,-2.1518,-2.1024,0.0,0.0,0.0,0.0,0.0,0.0,-1.9201,0.0,0.0,0.0,0.0,0.0,0.0,0.0,-1.7335,-1.7475,0.0,-1.7004,-1.7131,-1.7188,-1.7204,-1.7126,-1.7184,-1.7386,-1.751,-1.7572,-1.7572,-1.7793,-1.8034,-1.8326,-1.8587,-1.8856,-1.9106,-1.9555,-1.9866,-2.0138,-2.0374,-2.0907,-2.1535,-2.7943,-2.8035,0.0,0.0,-2.8723,0.0,-2.8758,-2.9206,-2.955,-2.955,-2.994,-3.0216,-3.0216,-3.0216,-3.0136,-2.9931,0.0,0.0,0.0,-2.9127,-2.888,-2.8836,-2.8166,-2.7822,-2.78,-2.7547,-2.7392,-2.7359,-2.7359,-2.7359,-2.7315,-2.7315,-2.7315,-2.7315,-2.7315,-2.7315,-2.7315,-2.7348,-2.737,-2.737,-2.7403,-2.7413,-2.7413,-2.7458,-2.7742,-2.8091,-2.8091,-2.842,-2.885,-2.885,-2.885,-2.885,-2.885,-2.885,-2.8628,-2.7451,-2.699,-2.6832,-2.6832,-2.6832,-2.6832,-2.6832,-2.6787,-2.6631,-2.6118,-2.5857,-2.5517,-2.4735,-2.4569,-2.4428,-2.3918,-2.3817,-2.3614,-2.3066,-2.2732,-2.2373,-2.1797,0.0,0.0,0.0,0.0,0.0,0.0,-2.0066,-1.9957,0.0,0.0,0.0,0.0,0.0,-1.8351,-1.7857,-1.8203,-1.8305,-1.8129,-1.8428,-1.8481,-1.8324,-1.814,-1.8077,-1.8085,-1.8326,-1.8425,-1.8486,-1.9042,-1.9463,-1.9729,-1.9874,-2.0155,-2.0428,-2.0637,-2.0862,-2.1132,-2.1401,-2.1945,-2.2476,0.0,0.0,-2.8563,-2.8677,-2.9045,-2.9309,-2.9309,-2.9722,-3.0044,-3.0044,-3.0147,-3.0216,-3.0216,-3.0216,-3.017,-3.0136,-3.008,-2.9954,-2.984,-2.9681,-2.9568,-2.9317,-2.916,-2.8936,-2.8533,-2.8467,-2.8277,-2.7898,-2.7898,-2.7821,-2.7602,-2.7602,-2.7503,-2.7315,-2.7315,-2.7315,-2.7337,-2.7664,-2.7827,-2.7905,-2.8448,-2.8693,-2.8693,-2.8911,-2.9034,-2.9123,-2.9123,-2.9247,-2.9347,-2.9347,-2.9347,-2.9347,-2.9347,-2.9347,-2.9211,-2.8565,-2.8326,-2.828,-2.828,-2.8153,-2.8025,-2.8025,-2.7829,-2.7572,-2.7063,-2.6943,-2.6634,-2.5768,-2.5262,-2.4897,-2.4408,-2.4028,-2.3757,-2.3614,-2.3551,-2.3358,-2.2886,-2.2784,0.0,0.0,-2.1955,-2.1763,-2.1665,-2.1533,-2.1339,0.0,0.0,0.0,0.0,-2.0647,-2.0177,-1.9384,-1.9481,-1.9407,-1.9203,-1.929,-1.935,-1.9414,-1.9614,-1.9712,-1.9712,-1.9796,-1.9839,-1.9839,-1.9977,-2.0283,-2.0673,-2.0727,-2.1006,-2.1374,-2.1668,-2.1891,-2.2122,-2.2353,-2.2872,-2.3493,-2.9022,-2.9068,-2.9137,-2.9355,-2.963,-2.9825,-2.9825,-3.0055,-3.0216,-3.0216,-3.0216,-3.0216,-3.0216,-3.0216,-3.0216,-3.0216,-3.0216,-3.0136,-3.0057,-3.0057,-2.9954,-2.9806,-2.9726,-2.9567,-2.9308,-2.9161,-2.9015,-2.8746,-2.8746,-2.8656,-2.8522,-2.8522,-2.8432,-2.8331,-2.8331,-2.8331,-2.8297,-2.8573,-2.8684,-2.8706,-2.9109,-2.9255,-2.9301,-2.9439,-2.9485,-2.9485,-2.9485,-2.9485,-2.9485,-2.9485,-2.9485,-2.9485,-2.9485,-2.9485,-2.9439,-2.9209,-2.9117,-2.9117,-2.9117,-2.9024,-2.885,-2.8757,-2.843,-2.8121,-2.7864,-2.7708,-2.743,-2.669,-2.6351,-2.602,-2.5575,-2.5106,-2.4743,-2.4743,-2.4481,-2.4223,-2.4029,-2.3786,0.0,-2.3041,-2.2815,-2.2569,-2.241,-2.2277,-2.2154,-2.2081,0.0,0.0,-2.1929,-2.1929,-2.1465,-2.0395,-2.0525,-2.0531,-2.0334,-2.047,-2.0579,-2.0651,-2.0864,-2.0925,-2.0925,-2.0925,-2.0925,-2.0925,-2.0925,-2.1186,-2.1624,-2.1624,-2.1945,-2.2397,-2.2731,-2.295,-2.3091,-2.343,-2.395,-2.4433,-2.9515,-2.9607,-2.9734,-3.0147,-3.0216,-3.0216,-3.0216,-3.0216,-3.0216,-3.0216,-3.0216,-3.0216,-3.0216,-3.0216,-3.0216,-3.0216,-3.0216,-3.0216,-3.0216,-3.0216,-3.0216,-3.0216,-3.0057,-2.9931,-2.9931,-2.9726,-2.9623,-2.9623,-2.9623,-2.9577,-2.9542,-2.9542,-2.9531,-2.9485,-2.9485,-2.9485,-2.9485,-2.9485,-2.9485,-2.9485,-2.9531,-2.9542,-2.9542,-2.9577,-2.9623,-2.9623,-2.9623,-2.9623,-2.9623,-2.9623,-2.9623,-2.9623,-2.9623,-2.9623,-2.9623,-2.9623,-2.9623,-2.9577,-2.9531,-2.9485,-2.9439,-2.922,-2.885,-2.8581,-2.8581,-2.8384,-2.8021,-2.7615,-2.743,-2.7214,-2.6851,-2.6349,-2.6019,-2.6019,-2.5486,-2.5051,-2.5051,0.0,-2.4214,-2.3803,-2.3614,-2.3356,-2.3032,-2.2991,-2.2991,-2.295,-2.295,-2.2978,0.0,-2.3066,-2.2549,-2.1474,-2.1627,-2.1643,-2.1479,-2.1778,-2.1909,-2.1909,-2.1909,-2.1909,-2.1909,-2.1909,-2.1909,-2.1909,-2.1954,-2.222,-2.2608,-2.2652,-2.2916,-2.3353,-2.3831,-2.4003,-2.409,-2.4551,-2.502,-2.5401,-3.0089,-3.0101,-3.0124,-3.0204,-3.0216,-3.0216,-3.0216,-3.0216,-3.0216,-3.0216,-3.0216,-3.0216,-3.0216,-3.0216,-3.0216,-3.0216,-3.0216,-3.0216,-3.0216,-3.0216,-3.0216,-3.0216,-3.017,-3.0136,-3.0136,-3.0125,-3.008,-3.008,-3.008,-3.0,-2.984,-2.984,-2.9737,-2.9485,-2.9485,-2.9485,-2.9485,-2.9485,-2.9485,-2.9531,-2.9737,-2.984,-2.9886,-3.0045,-3.008,-3.008,-3.008,-3.008,-3.008,-3.008,-3.008,-3.008,-3.008,-3.008,-3.008,-3.008,-3.008,-2.9988,-2.9623,-2.9485,-2.9485,-2.9439,-2.9393,-2.9347,-2.9347,-2.9117,-2.8874,-2.8612,-2.8091,-2.7549,-2.7246,-2.6873,-2.6574,-2.6574,-2.6126,-2.5752,-2.5752,0.0,-2.4999,-2.4925,-2.4925,-2.4851,-2.4788,-2.4819,-2.4735,-2.4566,-2.4524,-2.447,-2.4267,-2.4224,-2.4151,-2.3951,-2.3248,-2.2819,-2.2819,-2.2843,-2.2872,-2.2872,-2.2872,-2.2872,-2.2872,-2.2872,-2.2872,-2.2882,-2.3101,-2.3363,-2.3624,-2.382,-2.4069,-2.4327,-2.4807,-2.4988,-2.5031,-2.5506,-2.5957,-2.6321,-3.0216,-3.0216,-3.0216,-3.0216,-3.0216,-3.0216,-3.0216,-3.0216,-3.0216,-3.0216,-3.0216,-3.0216,-3.0216,-3.0216,-3.0216,-3.0216,-3.048,-3.0641,-3.0641,-3.0376,-3.0216,-3.0216,-3.0216,-3.0216,-3.0216,-3.0216,-3.0216,-3.0216,-3.0503,-3.056,-3.049,-3.0799,-3.0878,-3.0727,-3.0727,-3.0727,-3.0727,-3.0727,-3.0727,-3.0773,-3.0878,-3.0925,-3.0925,-3.1007,-3.1054,-3.1054,-3.1054,-3.1135,-3.1217,-3.1217,-3.131,-3.1449,-3.1449,-3.1449,-3.1449,-3.1449,-3.087,-3.017,-2.9943,-2.9817,-2.9737,-2.9737,-2.9588,-2.9485,-2.9485,-2.9393,-2.9312,-2.922,-2.8894,-2.8648,-2.8499,-2.8127,-2.782,-2.782,-2.7403,0.0,0.0,-2.678,-2.6509,-2.6401,-2.6034,-2.5744,-2.5583,-2.5349,-2.5158,-2.5073,-2.5073,-2.5031,-2.4893,-2.4893,-2.4893,-2.4893,-2.4198,-2.3864,-2.3864,-2.3864,-2.3864,-2.3864,-2.3864,-2.3864,-2.3864,-2.3864,-2.3864,-2.3864,-2.4133,-2.4348,-2.4562,-2.4807,-2.502,-2.5285,-2.5737,-2.5904,-2.5946,-2.6415,-2.7069,-2.767,-3.0216,-3.0216,-3.0216,-3.0216,-3.0216,-3.0216,-3.0216,-3.0216,-3.0216,-3.0216,-3.0216,-3.0262,-3.0388,-3.0399,-3.0445,-3.056,-3.095,-3.1192,-3.118,-3.0801,-3.0572,-3.0572,-3.0572,-3.0572,-3.0572,-3.0572,-3.0572,-3.0572,-3.0985,-3.1192,-3.1192,-3.1582,-3.1813,-3.1813,-3.1813,-3.1813,-3.1813,-3.1766,-3.1813,-3.1813,-3.1813,-3.1813,-3.1813,-3.1813,-3.1813,-3.1849,-3.1849,-3.2028,-3.2206,-3.2206,-3.2347,-3.2489,-3.2489,-3.2489,-3.2489,-3.2489,-3.1635,-3.0743,-3.0743,-3.0629,-3.0468,-3.0365,-3.0136,-2.9907,-2.9783,-2.9669,-2.9588,-2.9588,-2.9531,-2.9485,-2.9485,-2.9194,-2.8948,-2.8948,0.0,0.0,0.0,-2.8009,-2.7755,-2.7558,-2.7075,-2.6628,-2.6422,-2.6088,-2.5872,-2.5872,-2.5872,-2.5872,-2.5872,-2.5872,-2.5872,-2.5872,-2.5094,-2.4669,-2.4669,-2.4669,-2.4669,-2.4669,-2.4712,-2.4712,-2.4712,-2.4807,-2.485,-2.485,-2.5105,-2.5316,-2.5527,-2.5748,-2.5957,-2.626,-2.6652,-2.6873,-2.7069,-2.751,-2.8339,-2.9201,-3.0261,-3.0216,-3.0216,-3.0216,-3.0216,-3.0216,-3.0216,-3.0216,-3.0216,-3.0216,-3.0216,-3.0399,-3.0905,-3.0962,-3.1146,-3.1664,-3.1733,-3.1708,-3.1638,-3.1662,-3.1698,-3.1698,-3.1698,-3.1698,-3.1698,-3.1698,-3.1698,-3.1698,-3.1744,-3.1756,-3.1756,-3.1802,-3.1813,-3.1813,-3.1813,-3.1813,-3.1813,-3.1743,-3.1743,-3.1813,-3.1813,-3.1813,-3.1813,-3.1813,-3.1945,-3.2064,-3.2064,-3.2253,-3.2489,-3.2489,-3.2489,-3.2489,-3.2489,-3.2489,-3.2489,-3.2489,-3.243,-3.2324,-3.2324,-3.2324,-3.2207,-3.1691,-3.1402,-3.1147,-3.0637,-3.0182,-2.9886,-2.9886,-2.968,-2.9485,-2.9485,-2.9452,-2.9441,-2.9441,0.0,0.0,-2.8735,-2.8376,-2.8084,-2.804,-2.8007,-2.7941,-2.7941,-2.7907,-2.7885,-2.7885,-2.7885,-2.7885,-2.7885,-2.7885,-2.7885,-2.7885,-2.613,-2.5158,-2.5158,-2.5158,-2.5158,-2.5158,-2.5316,-2.5443,-2.5443,-2.5675,-2.5812,-2.5812,-2.5988,-2.6238,-2.6404,-2.6674,-2.6921,-2.7144,-2.7568,-2.8075,-2.8592,-2.8992,-2.9779,-3.0638,-3.0487,-3.0306,-3.0216,-3.0216,-3.0216,-3.0216,-3.0216,-3.0216,-3.0331,-3.0663,-3.0709,-3.0905,-3.1421,-3.1479,-3.1559,-3.1802,-3.2089,-3.2202,-3.2202,-3.2523,-3.2469,-3.1848,-3.1813,-3.1813,-3.1813,-3.1813,-3.1813,-3.1813,-3.2064,-3.2213,-3.2213,-3.2546,-3.2707,-3.2707,-3.2707,-3.2707,-3.2707,-3.2695,-3.2695,-3.2756,-3.2903,-3.3001,-3.3001,-3.3147,-3.3282,-3.333,-3.333,-3.3513,-3.3694,-3.3694,-3.379,-3.3935,-3.3935,-3.3935,-3.3935,-3.3935,-3.3935,-3.3935,-3.3935,-3.322,-3.2442,-3.2242,-3.216,-3.2008,-3.1797,-3.1378,-3.102,-3.102,-3.0673,-3.042,-3.042,-3.042,-3.042,-3.042,0.0,-2.994,-2.994,-2.9634,-2.9352,-2.9229,-2.8946,-2.8721,-2.8544,-2.8263,-2.8084,-2.8084,-2.8084,-2.8084,-2.8084,-2.8084,-2.816,-2.8279,-2.7551,-2.7103,-2.6985,-2.6985,-2.6985,-2.6985,-2.7082,-2.72,-2.7307,-2.7404,-2.7543,-2.7725,-2.7915,-2.8157,-2.8368,-2.8601,-2.8839,-2.9024,-2.9489,-2.9787,-3.0051,-3.0515,-3.119,-3.1955,-3.0724,-3.0487,-3.0306,-3.0306,-3.0261,-3.0273,-3.0445,-3.0468,-3.0652,-3.118,-3.1249,-3.1444,-3.1938,-3.2043,-3.2112,-3.2273,-3.2546,-3.2741,-3.2741,-3.3086,-3.2971,-3.2319,-3.2296,-3.2296,-3.2296,-3.2296,-3.2296,-3.2296,-3.2569,-3.2741,-3.2741,-3.3109,-3.3281,-3.3281,-3.3281,-3.3281,-3.3292,-3.3381,-3.3431,-3.3431,-3.3729,-3.3828,-3.3828,-3.4026,-3.4125,-3.4211,-3.4211,-3.4347,-3.4531,-3.4531,-3.4628,-3.4775,-3.4775,-3.4884,-3.492,-3.503,-3.5078,-3.5078,-3.5078,-3.4294,-3.341,-3.3055,-3.2925,-3.283,-3.2665,-3.2265,-3.196,-3.196,-3.1689,-3.1407,-3.1243,-3.1207,-3.116,-3.1008,-3.0826,-3.0724,-3.0724,-3.0589,-3.0408,-3.025,-2.994,-2.9689,-2.951,-2.9191,-2.8986,-2.8986,-2.8986,-2.8986,-2.8986,-2.8986,-2.9062,-2.9226,-2.9226,-2.915,-2.903,-2.8547,-2.8345,-2.8345,-2.8377,-2.8496,-2.8603,-2.87,-2.8884,-2.911,-2.9258,-2.9513,-2.9821,-3.002,-3.0229,-3.0467,-3.0935,-3.1253,-3.1526,-3.1909,-3.2552,-3.3273,-3.1029,-3.0793,-3.0623,-3.0623,-3.0408,-3.0411,-3.0939,-3.1019,-3.1203,-3.1756,-3.1825,-3.1997,-3.2443,-3.2489,-3.2707,-3.3235,-3.3281,-3.3281,-3.3281,-3.3281,-3.3281,-3.3281,-3.3281,-3.3281,-3.3281,-3.3281,-3.3281,-3.3281,-3.3281,-3.3281,-3.3281,-3.3281,-3.3281,-3.3281,-3.3281,-3.3281,-3.3331,-3.358,-3.3679,-3.3729,-3.3977,-3.4125,-3.4125,-3.4125,-3.4211,-3.4384,-3.4384,-3.458,-3.4775,-3.4775,-3.4775,-3.4775,-3.4835,-3.4981,-3.5271,-3.5524,-3.562,-3.562,-3.562,-3.562,-3.5342,-3.4269,-3.3839,-3.3565,-3.3041,-3.2735,-3.2489,-3.2489,-3.2489,-3.2324,-3.1819,-3.1725,-3.156,-3.1066,-3.1041,-3.0996,-3.0996,-3.0996,-3.0984,-3.0984,-3.0984,-3.0984,-3.0984,-3.0984,-3.0984,-3.0984,-3.0984,-3.0984,-3.0984,-3.0984,-3.0984,-3.1029,-3.1029,-3.1029,-3.1029,-2.9558,-2.8833,-2.8833,-2.9024,-2.9141,-2.9141,-2.9312,-2.9579,-2.9833,-2.9833,-3.0098,-3.0528,-3.0753,-3.0918,-3.1178,-3.1627,-3.2283,-3.2921,-3.3155,-3.3847,-3.4716,-3.1774,-3.1875,-3.1926,-3.1926,-3.1879,-3.1844,-3.2008,-3.189,-3.1982,-3.2491,-3.2416,-3.2466,-3.2994,-3.304,-3.3109,-3.3269,-3.3281,-3.3281,-3.3281,-3.3281,-3.3281,-3.3281,-3.3281,-3.3281,-3.3281,-3.3281,-3.3281,-3.3281,-3.3281,-3.3281,-3.3281,-3.3281,-3.3381,-3.358,-3.358,-3.3679,-3.3878,-3.3927,-3.3977,-3.4026,-3.42,-3.4298,-3.4347,-3.4543,-3.464,-3.4677,-3.4677,-3.4726,-3.4835,-3.503,-3.5078,-3.5126,-3.532,-3.5428,-3.5524,-3.5572,-3.562,-3.562,-3.562,-3.562,-3.5523,-3.522,-3.4932,-3.4691,-3.4534,-3.4018,-3.3565,-3.3565,-3.329,-3.2992,-3.2836,-3.2801,-3.2765,-3.2655,-3.247,-3.2189,-3.1822,-3.1638,-3.1372,-3.1019,-3.0984,-3.0984,-3.0984,-3.0984,-3.0984,-3.0984,-3.0984,-3.0984,-3.0984,-3.0984,-3.1151,-3.1496,-3.1496,-3.1641,-3.1994,-3.0888,-3.0337,-3.0337,-3.0534,-3.0743,-3.0918,-3.1124,-3.1354,-3.1638,-3.1755,-3.2013,-3.2324,-3.2554,-3.2849,-3.3239,-3.3517,-3.3869,-3.4164,-3.4425,-3.4831,-3.5223,-3.255,-3.2603,-3.2676,-3.2676,-3.2583,-3.2559,-3.2759,-3.2699,-3.2791,-3.3317,-3.324,-3.327,-3.3595,-3.363,-3.363,-3.363,-3.353,-3.3481,-3.3481,-3.3331,-3.3331,-3.3431,-3.3481,-3.3431,-3.3281,-3.3281,-3.3331,-3.3481,-3.3481,-3.353,-3.363,-3.363,-3.3679,-3.3878,-3.3878,-3.3927,-3.4125,-3.4162,-3.4211,-3.4261,-3.4494,-3.458,-3.458,-3.4738,-3.4775,-3.4775,-3.4775,-3.4884,-3.4969,-3.5126,-3.5271,-3.5428,-3.5668,-3.5764,-3.5764,-3.5895,-3.5943,-3.5943,-3.5943,-3.5943,-3.5943,-3.5943,-3.5656,-3.5368,-3.5368,-3.4968,-3.4641,-3.4641,-3.4399,-3.412,-3.3914,-3.3877,-3.3839,-3.3621,-3.3421,-3.3208,-3.2895,-3.2697,-3.2498,-3.2232,-3.2208,-3.2208,-3.2208,-3.2208,-3.2208,-3.2208,-3.1983,-3.1863,-3.1863,-3.1672,-3.1685,-3.1981,-3.1981,-3.2113,-3.24,-3.1817,-3.1552,-3.1552,-3.1673,-3.1805,-3.1981,-3.2176,-3.2407,-3.2692,-3.2896,-3.3099,-3.3356,-3.3696,-3.3937,-3.4243,-3.4577,-3.4853,-3.5141,-3.5277,-3.5521,-3.5817,-3.3356,-3.3182,-3.3053,-3.3053,-3.2865,-3.2877,-3.3349,-3.3419,-3.3548,-3.4054,-3.4125,-3.4125,-3.4125,-3.4125,-3.4125,-3.4125,-3.3878,-3.3729,-3.3729,-3.353,-3.3481,-3.3729,-3.3776,-3.3699,-3.345,-3.3404,-3.3481,-3.3729,-3.3776,-3.3936,-3.4134,-3.4181,-3.4266,-3.4254,-3.4254,-3.4254,-3.4304,-3.4477,-3.4576,-3.4625,-3.4821,-3.4919,-3.4919,-3.4919,-3.4968,-3.4968,-3.4968,-3.5163,-3.5417,-3.5417,-3.5611,-3.5852,-3.6104,-3.62,-3.6248,-3.6461,-3.6518,-3.648,-3.648,-3.6455,-3.6405,-3.6405,-3.6038,-3.5668,-3.562,-3.562,-3.562,-3.562,-3.562,-3.5461,-3.4969,-3.4883,-3.4711,-3.4241,-3.4155,-3.4142,-3.4093,-3.4081,-3.4056,-3.4007,-3.4007,-3.4007,-3.4007,-3.4007,-3.4007,-3.4007,-3.3531,-3.3273,-3.3273,-3.2806,-3.2535,-3.2579,-3.2579,-3.2554,-3.2505,-3.2549,-3.2537,-3.24,-3.2431,-3.2487,-3.2475,-3.268,-3.2927,-3.3154,-3.3398,-3.3598,-3.381,-3.4272,-3.4481,-3.4522,-3.499,-3.5399,-3.5723,-3.5764,-3.6058,-3.6445,-3.3826,-3.4162,-3.439,-3.439,-3.4342,-3.433,-3.4437,-3.4315,-3.4205,-3.4323,-3.4211,-3.4125,-3.4125,-3.4125,-3.4125,-3.4125,-3.4026,-3.4026,-3.4026,-3.3977,-3.3927,-3.4026,-3.4352,-3.4551,-3.4501,-3.4126,-3.3977,-3.4026,-3.4363,-3.4601,-3.4663,-3.5063,-3.5404,-3.5607,-3.5607,-3.5708,-3.5911,-3.5961,-3.5961,-3.5961,-3.6011,-3.6062,-3.6062,-3.6062,-3.6162,-3.6375,-3.6375,-3.6575,-3.6874,-3.7048,-3.7245,-3.7504,-3.7565,-3.7553,-3.7553,-3.7651,-3.7349,-3.7059,-3.7059,-3.6732,-3.6405,-3.6405,-3.631,-3.6181,-3.5955,-3.5764,-3.562,-3.562,-3.562,-3.5584,-3.5461,-3.5448,-3.5399,-3.5276,-3.5252,-3.5116,-3.4686,-3.4625,-3.4465,-3.4056,-3.4007,-3.4007,-3.4007,-3.4007,-3.4007,-3.4007,-3.3896,-3.3835,-3.3835,-3.3736,-3.3765,-3.3983,-3.3983,-3.3861,-3.3602,-3.3709,-3.3321,-3.24,-3.2779,-3.2952,-3.2952,-3.3313,-3.3501,-3.3598,-3.4021,-3.423,-3.4272,-3.4743,-3.5031,-3.5236,-3.548,-3.5723,-3.6032,-3.6192,-3.6391,-3.6668,-3.4366,-3.4595,-3.4775,-3.4775,-3.4775,-3.4775,-3.4775,-3.4677,-3.458,-3.458,-3.4494,-3.4445,-3.4445,-3.4445,-3.4445,-3.4445,-3.431,-3.4355,-3.4603,-3.4516,-3.4584,-3.4982,-3.5242,-3.5434,-3.5586,-3.5325,-3.5144,-3.4993,-3.5254,-3.5434,-3.5586,-3.586,-3.6042,-3.6195,-3.6195,-3.6246,-3.6411,-3.6411,-3.6411,-3.6411,-3.6411,-3.6411,-3.6398,-3.6563,-3.6664,-3.6816,-3.6967,-3.7218,-3.7456,-3.7693,-3.7903,-3.8002,-3.8002,-3.8002,-3.8002,-3.8002,-3.7801,-3.7575,-3.7575,-3.7362,-3.7149,-3.7149,-3.7149,-3.701,-3.6353,-3.6086,-3.5991,-3.5991,-3.5991,-3.5991,-3.5991,-3.5991,-3.5991,-3.5991,-3.5991,-3.5891,-3.5605,-3.5556,-3.5456,-3.5192,-3.5155,-3.5155,-3.5155,-3.5155,-3.5155,-3.5155,-3.4872,-3.4736,-3.4736,-3.4487,-3.4441,-3.4751,-3.4738,-3.4735,-3.4641,-3.4774,-3.4489,-3.3891,-3.3523,-3.3398,-3.3398,-3.3738,-3.3937,-3.4063,-3.4452,-3.466,-3.4784,-3.5113,-3.5358,-3.5562,-3.5817,-3.6112,-3.6405,-3.6524,-3.6747,-3.7088,-3.4775,-3.4775,-3.4775,-3.4775,-3.4775,-3.4775,-3.4775,-3.4775,-3.4775,-3.4775,-3.4775,-3.4775,-3.4775,-3.4775,-3.4823,-3.4907,-3.4711,-3.4839,-3.5363,-3.5198,-3.5387,-3.603,-3.6188,-3.6326,-3.6531,-3.6627,-3.6477,-3.6042,-3.6188,-3.6326,-3.6543,-3.6627,-3.6675,-3.6675,-3.6675,-3.6675,-3.6675,-3.6675,-3.6675,-3.6675,-3.6675,-3.6726,-3.6777,-3.6994,-3.7146,-3.7236,-3.7552,-3.7791,-3.7979,-3.8241,-3.8291,-3.8291,-3.8291,-3.8291,-3.8291,-3.8291,-3.8228,-3.8153,-3.8153,-3.809,-3.8002,-3.8002,-3.8002,-3.7764,-3.6908,-3.6619,-3.6518,-3.643,-3.6405,-3.6405,-3.6405,-3.6405,-3.6405,-3.6405,-3.6405,-3.6405,-3.6405,-3.6405,-3.6405,-3.6405,-3.6405,-3.6405,-3.6405,-3.6405,-3.6405,-3.6405,-3.5977,-3.5726,-3.5726,-3.5344,-3.5183,-3.5422,-3.5422,-3.5506,-3.5615,-3.566,-3.5653,-3.555,-3.4585,-3.4093,-3.405,-3.436,-3.4614,-3.4782,-3.5088,-3.5309,-3.5461,-3.5749,-3.5954,-3.6103,-3.6414,-3.6695,-3.7014,-3.7107,-3.7369,-3.7841,-3.4775,-3.4775,-3.4775,-3.4775,-3.4775,-3.4775,-3.4775,-3.4775,-3.4775,-3.4775,-3.4775,-3.4775,-3.4775,-3.4775,-3.5016,-3.5473,-3.5459,-3.5687,-3.6216,-3.6189,-3.6225,-3.6348,-3.6792,-3.7032,-3.7084,-3.7529,-3.7312,-3.636,-3.6804,-3.7032,-3.7096,-3.7553,-3.7769,-3.7769,-3.7769,-3.7769,-3.7769,-3.7769,-3.7769,-3.7769,-3.7769,-3.7927,-3.8137,-3.8202,-3.8515,-3.8995,-3.8983,-3.9201,-3.9407,-3.9471,-3.9471,-3.9471,-3.9471,-3.9471,-3.9471,-3.9471,-3.9132,-3.8806,-3.8806,-3.8391,-3.8002,-3.8002,-3.8002,-3.7965,-3.7814,-3.7412,-3.6935,-3.6505,-3.6405,-3.6405,-3.6405,-3.6405,-3.6405,-3.6405,-3.6405,-3.6405,-3.6405,-3.6405,-3.6405,-3.6405,-3.6405,-3.6405,-3.6405,-3.6405,-3.6405,-3.6405,-3.6471,-3.6561,-3.6561,-3.6684,-3.6785,-3.6844,-3.6844,-3.6601,-3.6205,-3.6373,-3.6205,-3.5771,-3.5778,-3.5656,-3.5538,-3.5987,-3.6204,-3.6247,-3.669,-3.6874,-3.6959,-3.7368,-3.7577,-3.7661,-3.8048,-3.8199,-3.8295,-3.8689,-3.9133,-3.9492,-3.4775,-3.4775,-3.4775,-3.4775,-3.4775,-3.4775,-3.4775,-3.4775,-3.4775,-3.4775,-3.4775,-3.4775,-3.4775,-3.5088,-3.5485,-3.6014,-3.6062,-3.6278,-3.6807,-3.6843,-3.6976,-3.7276,-3.7505,-3.7637,-3.7637,-3.7866,-3.7757,-3.7288,-3.7517,-3.7637,-3.7637,-3.7878,-3.7986,-3.7986,-3.7986,-3.7986,-3.7986,-3.7986,-3.7986,-3.8039,-3.8145,-3.8303,-3.8461,-3.8788,-3.905,-3.9322,-3.9478,-3.9594,-3.9697,-3.9697,-3.9697,-3.9697,-3.9697,-3.9697,-3.9697,-3.9697,-3.9521,-3.9333,-3.9333,-3.9145,-3.8956,-3.8956,-3.8956,-3.8868,-3.8555,-3.8304,-3.7965,-3.74,-3.7274,-3.7186,-3.6872,-3.687,-3.6769,-3.6455,-3.6405,-3.6405,-3.6405,-3.6405,-3.6405,-3.6405,-3.6499,-3.6581,-3.6581,-3.6687,-3.6781,-3.6781,-3.6862,-3.6909,-3.6909,-3.7062,-3.7168,-3.7307,-3.7307,-3.7284,-3.7189,-3.7267,-3.7228,-3.6981,-3.7179,-3.687,-3.621,-3.6397,-3.6658,-3.6887,-3.7115,-3.7371,-3.7612,-3.7823,-3.8019,-3.8256,-3.8449,-3.8655,-3.8929,-3.9389,-3.9671,-3.9873]},{"header":{"parameterUnit":"m.s-1","parameterCategory":1,"la1":30.6,"la2":28.766,"lo1":-90.7593,"lo2":-88.6598,"dy":0.0162,"dx":0.0183,"nx":116,"ny":114,"refTime":"2024-03-01T18:00:00:Z","depth":0,"parameterNumber":3,"parameterNumberName":"V-component_of_WINDS"},"data":[0.0,0.0,0.0,0.0,0.0,0.0,0.0,0.0,0.0,0.0,0.0,0.0,0.0,0.0,0.0,0.0,0.0,0.0,0.0,0.0,0.0,0.0,0.0,0.0,0.0,0.0,0.0,0.0,0.0,0.0,0.0,0.0,0.0,0.0,0.0,0.0,0.0,0.0,0.0,0.0,0.0,0.0,0.0,0.0,0.0,0.0,0.0,0.0,0.0,0.0,0.0,0.0,0.0,0.0,0.0,0.0,0.0,0.0,0.0,0.0,0.0,0.0,0.0,0.0,0.0,0.0,0.0,0.0,0.0,0.0,0.0,0.0,0.0,0.0,0.0,0.0,0.0,0.0,0.0,0.0,0.0,0.0,0.0,0.0,0.0,0.0,0.0,0.0,0.0,0.0,0.0,0.0,0.0,0.0,0.0,0.0,0.0,0.0,0.0,0.0,0.0,0.0,0.0,0.0,0.0,0.0,0.0,0.0,0.0,0.0,0.0,0.0,0.0,0.0,0.0,0.0,0.0,0.0,0.0,0.0,0.0,0.0,0.0,0.0,0.0,0.0,0.0,0.0,0.0,0.0,0.0,0.0,0.0,0.0,0.0,0.0,0.0,0.0,0.0,0.0,0.0,0.0,0.0,0.0,0.0,0.0,0.0,0.0,0.0,0.0,0.0,0.0,0.0,0.0,0.0,0.0,0.0,0.0,0.0,0.0,0.0,0.0,0.0,0.0,0.0,0.0,0.0,0.0,0.0,0.0,0.0,0.0,0.0,0.0,0.0,0.0,0.0,0.0,0.0,0.0,0.0,0.0,0.0,0.0,0.0,0.0,0.0,0.0,0.0,0.0,0.0,0.0,0.0,0.0,0.0,0.0,0.0,0.0,0.0,0.0,0.0,0.0,0.0,0.0,0.0,0.0,0.0,0.0,0.0,0.0,0.0,0.0,0.0,0.0,0.0,0.0,0.0,0.0,0.0,0.0,0.0,0.0,0.0,0.0,0.0,0.0,0.0,0.0,0.0,0.0,0.0,0.0,0.0,0.0,0.0,0.0,0.0,0.0,0.0,0.0,0.0,0.0,0.0,0.0,0.0,0.0,0.0,0.0,0.0,0.0,0.0,0.0,0.0,0.0,0.0,0.0,0.0,0.0,0.0,0.0,0.0,0.0,0.0,0.0,0.0,0.0,0.0,0.0,0.0,0.0,0.0,0.0,0.0,0.0,0.0,0.0,0.0,0.0,0.0,0.0,0.0,0.0,0.0,0.0,0.0,0.0,0.0,0.0,0.0,0.0,0.0,0.0,0.0,0.0,0.0,0.0,0.0,0.0,0.0,0.0,0.0,0.0,0.0,0.0,0.0,0.0,0.0,0.0,0.0,0.0,0.0,0.0,0.0,0.0,0.0,0.0,0.0,0.0,0.0,0.0,0.0,0.0,0.0,0.0,0.0,0.0,0.0,0.0,0.0,0.0,0.0,0.0,0.0,0.0,0.0,0.0,0.0,0.0,0.0,0.0,0.0,0.0,0.0,0.0,0.0,0.0,0.0,0.0,0.0,0.0,0.0,0.0,0.0,0.0,0.0,0.0,0.0,0.0,0.0,0.0,0.0,0.0,0.0,0.0,0.0,0.0,0.0,0.0,0.0,0.0,0.0,0.0,0.0,0.0,0.0,0.0,0.0,0.0,0.0,0.0,0.0,0.0,0.0,0.0,0.0,0.0,0.0,0.0,0.0,0.0,0.0,0.0,0.0,0.0,0.0,0.0,0.0,0.0,0.0,0.0,0.0,0.0,0.0,0.0,0.0,0.0,0.0,0.0,0.0,0.0,0.0,0.0,0.0,0.0,0.0,0.0,0.0,0.0,0.0,0.0,0.0,0.0,0.0,0.0,0.0,0.0,0.0,0.0,0.0,0.0,0.0,0.0,0.0,0.0,0.0,0.0,0.0,0.0,0.0,0.0,0.0,0.0,0.0,0.0,0.0,0.0,0.0,0.0,0.0,0.0,0.0,0.0,0.0,0.0,0.0,0.0,0.0,0.0,0.0,0.0,0.0,0.0,0.0,0.0,0.0,0.0,0.0,0.0,0.0,0.0,0.0,0.0,0.0,0.0,0.0,0.0,0.0,0.0,0.0,0.0,0.0,0.0,0.0,0.0,0.0,0.0,0.0,0.0,0.0,0.0,0.0,0.0,0.0,0.0,0.0,0.0,0.0,0.0,0.0,0.0,0.0,0.0,0.0,0.0,0.0,0.0,0.0,0.0,0.0,0.0,0.0,0.0,0.0,0.0,0.0,0.0,0.0,0.0,0.0,0.0,0.0,0.0,0.0,0.0,0.0,0.0,0.0,0.0,0.0,0.0,0.0,0.0,0.0,0.0,0.0,0.0,0.0,0.0,0.0,0.0,0.0,0.0,0.0,0.0,0.0,0.0,0.0,0.0,0.0,0.0,0.0,0.0,0.0,0.0,0.0,0.0,0.0,0.0,0.0,0.0,0.0,0.0,0.0,0.0,0.0,0.0,0.0,0.0,0.0,0.0,0.0,0.0,0.0,0.0,0.0,0.0,0.0,0.0,0.0,0.0,0.0,0.0,0.0,0.0,0.0,0.0,0.0,0.0,0.0,0.0,0.0,0.0,0.0,0.0,0.0,0.0,0.0,0.0,0.0,0.0,0.0,0.0,0.0,0.0,0.0,0.0,0.0,0.0,0.0,0.0,0.0,0.0,0.0,0.0,0.0,0.0,0.0,0.0,0.0,0.0,0.0,0.0,0.0,0.0,0.0,0.0,0.0,0.0,0.0,0.0,0.0,0.0,0.0,0.0,0.0,0.0,0.0,0.0,0.0,0.0,0.0,0.0,0.0,0.0,0.0,0.0,0.0,0.0,0.0,0.0,0.0,0.0,0.0,0.0,0.0,0.0,0.0,0.0,0.0,0.0,0.0,0.0,0.0,0.0,0.0,0.0,0.0,0.0,0.0,0.0,0.0,0.0,0.0,0.0,0.0,0.0,0.0,0.0,0.0,0.0,0.0,0.0,0.0,0.0,0.0,0.0,0.0,0.0,0.0,0.0,0.0,0.0,0.0,0.0,0.0,0.0,0.0,0.0,0.0,0.0,0.0,0.0,0.0,0.0,0.0,0.0,0.0,0.0,0.0,0.0,0.0,0.0,0.0,0.0,0.0,0.0,0.0,0.0,0.0,0.0,0.0,0.0,0.0,0.0,0.0,0.0,0.0,0.0,0.0,0.0,0.0,0.0,0.0,0.0,0.0,0.0,0.0,0.0,0.0,0.0,0.0,0.0,0.0,0.0,0.0,0.0,0.0,0.0,0.0,0.0,0.0,0.0,0.0,0.0,0.0,0.0,0.0,0.0,0.0,0.0,0.0,0.0,0.0,0.0,0.0,0.0,0.0,0.0,0.0,0.0,0.0,0.0,0.0,0.0,0.0,0.0,0.0,0.0,0.0,0.0,0.0,0.0,0.0,0.0,0.0,0.0,0.0,0.0,0.0,0.0,0.0,0.0,0.0,0.0,0.0,0.0,0.0,0.0,0.0,0.0,0.0,0.0,0.0,0.0,0.0,0.0,0.0,0.0,0.0,0.0,0.0,0.0,0.0,0.0,0.0,0.0,0.0,0.0,0.0,0.0,0.0,0.0,0.0,0.0,0.0,0.0,0.0,0.0,0.0,0.0,0.0,0.0,0.0,0.0,0.0,0.0,0.0,0.0,0.0,0.0,0.0,0.0,0.0,0.0,0.0,0.0,0.0,0.0,0.0,0.0,0.0,0.0,0.0,0.0,0.0,0.0,0.0,0.0,0.0,0.0,0.0,0.0,0.0,0.0,0.0,0.0,0.0,0.0,0.0,0.0,0.0,0.0,0.0,0.0,0.0,0.0,0.0,0.0,0.0,0.0,0.0,0.0,0.0,0.0,0.0,0.0,0.0,0.0,0.0,0.0,0.0,0.0,0.0,0.0,0.0,0.0,0.0,0.0,0.0,0.0,0.0,0.0,0.0,0.0,0.0,0.0,0.0,0.0,0.0,0.0,0.0,0.0,0.0,0.0,0.0,0.0,0.0,0.0,0.0,0.0,0.0,0.0,0.0,0.0,0.0,0.0,0.0,0.0,0.0,0.0,0.0,0.0,0.0,0.0,0.0,0.0,0.0,0.0,0.0,0.0,0.0,0.0,0.0,0.0,0.0,0.0,0.0,0.0,0.0,0.0,0.0,0.0,0.0,0.0,0.0,0.0,0.0,0.0,0.0,0.0,0.0,0.0,0.0,0.0,0.0,0.0,0.0,0.0,0.0,0.0,0.0,0.0,0.0,0.0,0.0,0.0,0.0,0.0,0.0,0.0,0.0,0.0,0.0,0.0,0.0,0.0,0.0,0.0,0.0,0.0,0.0,0.0,0.0,0.0,0.0,0.0,0.0,0.0,0.0,0.0,0.0,0.0,0.0,0.0,0.0,0.0,0.0,0.0,0.0,0.0,0.0,0.0,0.0,0.0,0.0,0.0,0.0,0.0,0.0,0.0,0.0,0.0,0.0,0.0,0.0,0.0,0.0,0.0,0.0,0.0,0.0,0.0,0.0,0.0,0.0,0.0,0.0,0.0,0.0,0.0,0.0,0.0,0.0,0.0,0.0,0.0,0.0,0.0,0.0,0.0,0.0,0.0,0.0,0.0,0.0,0.0,0.0,0.0,0.0,0.0,0.0,0.0,0.0,0.0,0.0,0.0,0.0,0.0,0.0,0.0,0.0,0.0,0.0,0.0,0.0,0.0,0.0,0.0,0.0,0.0,0.0,0.0,0.0,0.0,0.0,0.0,0.0,0.0,0.0,0.0,0.0,0.0,0.0,0.0,0.0,0.0,0.0,0.0,0.0,0.0,0.0,0.0,0.0,0.0,0.0,0.0,0.0,0.0,0.0,0.0,0.0,0.0,0.0,0.0,0.0,0.0,0.0,0.0,0.0,0.0,0.0,0.0,0.0,0.0,0.0,0.0,0.0,0.0,0.0,0.0,0.0,0.0,0.0,0.0,0.0,0.0,0.0,0.0,0.0,0.0,0.0,0.0,0.0,0.0,0.0,0.0,0.0,0.0,0.0,0.0,0.0,0.0,0.0,0.0,0.0,0.0,0.0,0.0,0.0,0.0,0.0,0.0,0.0,0.0,0.0,0.0,0.0,0.0,0.0,0.0,0.0,0.0,0.0,0.0,0.0,0.0,0.0,0.0,0.0,0.0,0.0,0.0,0.0,0.0,0.0,0.0,0.0,0.0,0.0,0.0,0.0,0.0,0.0,0.0,0.0,0.0,0.0,0.0,0.0,0.0,0.0,0.0,0.0,0.0,0.0,0.0,0.0,0.0,0.0,0.0,0.0,0.0,0.0,0.0,0.0,0.0,0.0,0.0,0.0,0.0,0.0,0.0,0.0,0.0,0.0,0.0,0.0,0.0,0.0,0.0,0.0,0.0,0.0,0.0,0.0,0.0,0.0,0.0,0.0,0.0,0.0,0.0,0.0,0.0,0.0,0.0,0.0,0.0,0.0,0.0,0.0,0.0,0.0,0.0,0.0,0.0,0.0,0.0,0.0,0.0,0.0,0.0,0.0,0.0,0.0,0.0,0.0,0.0,0.0,0.0,0.0,0.0,0.0,0.0,0.0,0.0,0.0,0.0,0.0,0.0,0.0,0.0,0.0,0.0,0.0,0.0,0.0,0.0,0.0,0.0,0.0,0.0,0.0,0.0,0.0,0.0,0.0,0.0,0.0,0.0,0.0,0.0,0.0,0.0,0.0,0.0,0.0,0.0,0.0,0.0,0.0,0.0,0.0,0.0,0.0,0.0,0.0,0.0,0.0,0.0,0.0,0.0,0.0,0.0,0.0,0.0,0.0,0.0,0.0,0.0,0.0,0.0,0.0,0.0,0.0,0.0,0.0,0.0,0.0,0.0,0.0,0.0,0.0,0.0,0.0,0.0,0.0,0.0,0.0,0.0,0.0,0.0,0.0,0.0,0.0,0.0,0.0,0.0,0.0,0.0,0.0,0.0,0.0,0.0,0.0,0.0,0.0,0.0,0.0,0.0,0.0,0.0,0.0,0.0,0.0,0.0,0.0,0.0,0.0,0.0,2.255,0.0,0.0,0.0,0.0,0.0,0.0,0.0,0.0,0.0,0.0,0.0,0.0,0.0,0.0,0.0,0.0,0.0,0.0,0.0,0.0,0.0,0.0,0.0,0.0,0.0,0.0,0.0,0.0,0.0,0.0,0.0,0.0,0.0,0.0,0.0,2.3695,2.3701,2.3879,2.4277,2.4277,2.448,2.4852,2.4852,2.4005,2.2509,0.0,0.0,0.0,0.0,0.0,0.0,0.0,0.0,0.0,0.0,0.0,0.0,0.0,0.0,0.0,0.0,0.0,0.0,0.0,0.0,0.0,0.0,0.0,0.0,0.0,0.0,0.0,0.0,0.0,0.0,0.0,0.0,0.0,0.0,0.0,0.0,0.0,0.0,0.0,0.0,0.0,0.0,0.0,0.0,0.0,0.0,0.0,0.0,0.0,0.0,0.0,0.0,0.0,0.0,0.0,0.0,0.0,0.0,0.0,0.0,0.0,0.0,0.0,0.0,0.0,0.0,0.0,0.0,0.0,0.0,0.0,2.3107,0.0,0.0,0.0,0.0,0.0,0.0,0.0,0.0,0.0,0.0,0.0,0.0,0.0,0.0,0.0,0.0,0.0,0.0,0.0,0.0,0.0,0.0,0.0,2.2429,2.3163,2.4022,2.4108,2.4395,0.0,0.0,0.0,0.0,2.5386,2.5442,2.5442,2.5434,2.5761,2.6411,2.6403,2.6741,2.7384,2.7384,2.5946,2.3347,2.3347,0.0,0.0,0.0,0.0,0.0,0.0,0.0,0.0,0.0,0.0,0.0,0.0,0.0,0.0,0.0,0.0,0.0,0.0,0.0,0.0,0.0,0.0,0.0,0.0,0.0,0.0,0.0,0.0,0.0,0.0,0.0,0.0,0.0,0.0,0.0,0.0,0.0,0.0,0.0,0.0,0.0,0.0,0.0,0.0,0.0,0.0,0.0,0.0,0.0,0.0,0.0,0.0,0.0,0.0,0.0,0.0,0.0,0.0,0.0,0.0,0.0,0.0,0.0,2.6152,2.6151,2.6149,2.6145,2.6159,2.6071,2.4638,2.383,2.3548,0.0,0.0,0.0,0.0,0.0,0.0,0.0,0.0,0.0,0.0,0.0,0.0,0.0,0.0,0.0,0.0,0.0,0.0,0.0,0.0,0.0,0.0,2.3667,2.407,2.4865,2.4936,2.4993,2.5089,0.0,2.6139,2.6139,2.6795,2.7179,2.7179,2.7172,2.7187,2.7237,2.719,2.7215,2.731,2.731,2.7083,2.6665,2.6665,2.6276,2.5585,0.0,0.0,0.0,0.0,0.0,0.0,0.0,0.0,0.0,0.0,0.0,0.0,0.0,0.0,0.0,0.0,0.0,0.0,0.0,0.0,0.0,0.0,0.0,0.0,0.0,0.0,0.0,0.0,0.0,0.0,0.0,0.0,0.0,0.0,0.0,0.0,0.0,0.0,0.0,0.0,0.0,2.4415,2.5174,0.0,0.0,0.0,0.0,0.0,0.0,0.0,0.0,0.0,0.0,0.0,0.0,0.0,0.0,2.7957,2.7963,2.7965,2.7967,2.7969,2.7968,2.7964,2.7964,2.796,2.793,2.7702,0.0,2.534,2.5284,0.0,0.0,0.0,0.0,0.0,0.0,0.0,0.0,0.0,0.0,0.0,0.0,0.0,0.0,0.0,0.0,0.0,0.0,0.0,0.0,0.0,2.4275,2.472,2.5063,2.5507,2.5779,2.5779,2.6524,2.6966,2.6966,2.7312,2.7479,2.743,2.7449,2.7653,2.8078,2.894,2.9386,2.9397,2.984,3.0038,2.9992,2.9992,2.8805,2.6755,2.6378,0.0,0.0,0.0,0.0,0.0,0.0,0.0,0.0,0.0,0.0,0.0,0.0,0.0,0.0,0.0,0.0,0.0,0.0,0.0,0.0,0.0,0.0,0.0,0.0,0.0,0.0,0.0,0.0,0.0,0.0,0.0,0.0,0.0,0.0,0.0,0.0,0.0,0.0,0.0,2.5149,2.5848,2.6227,2.6708,2.7015,0.0,0.0,0.0,0.0,0.0,0.0,0.0,0.0,0.0,2.8291,2.8295,2.83,2.8305,2.8291,2.8295,2.8298,2.83,2.8301,2.8299,2.8297,2.8294,2.8307,2.8296,2.7875,2.7162,2.7084,2.7062,2.7065,0.0,0.0,0.0,0.0,0.0,2.6954,0.0,0.0,0.0,0.0,0.0,0.0,0.0,0.0,0.0,0.0,0.0,0.0,2.4112,2.4905,2.5412,2.5412,2.6139,2.6619,2.6619,2.7369,2.7801,2.7775,2.8002,2.8187,2.8329,2.852,2.8921,2.9509,3.0696,3.128,3.1299,3.1891,3.2153,3.2105,3.2105,3.0537,2.7909,2.7909,2.7665,2.7269,0.0,0.0,0.0,0.0,0.0,0.0,0.0,0.0,0.0,0.0,0.0,0.0,0.0,0.0,0.0,0.0,0.0,0.0,0.0,0.0,0.0,0.0,0.0,0.0,0.0,0.0,0.0,0.0,0.0,0.0,0.0,0.0,0.0,0.0,0.0,0.0,0.0,2.6695,2.7106,2.7115,2.7699,2.8123,0.0,0.0,0.0,0.0,0.0,0.0,2.8517,2.8521,2.8665,2.8928,2.8933,2.8939,2.8945,2.8951,2.8976,2.896,2.8962,2.8964,2.8964,2.8962,2.8979,2.8955,2.8945,2.8934,2.8904,2.84,2.8199,2.821,2.821,2.8164,2.8099,2.8101,2.8102,2.8089,0.0,0.0,0.0,0.0,0.0,0.0,0.0,0.0,0.0,0.0,0.0,2.4112,2.4949,2.576,2.6234,2.6234,2.6985,2.7437,2.7437,2.8199,2.8612,2.8561,2.9336,3.0114,3.0798,3.1563,3.1986,3.2023,3.2041,3.2039,3.2058,3.2086,3.2105,3.2105,3.2105,3.1147,2.9579,2.9579,2.8659,2.7213,2.7213,0.0,0.0,0.0,0.0,0.0,0.0,0.0,0.0,0.0,0.0,0.0,0.0,0.0,0.0,0.0,0.0,0.0,0.0,0.0,0.0,0.0,0.0,0.0,0.0,0.0,0.0,0.0,0.0,0.0,0.0,0.0,0.0,0.0,0.0,0.0,0.0,0.0,0.0,2.7942,2.8039,0.0,0.0,0.0,0.0,2.8194,2.8196,2.8552,2.9399,2.9431,2.9827,3.0646,3.0666,3.0675,3.0677,3.0746,3.0773,3.0777,3.0779,3.0761,3.076,3.0778,3.0775,3.0771,3.0701,3.0671,3.0544,2.8877,2.8208,2.821,2.821,2.8164,2.8099,2.8101,2.8102,2.8089,0.0,0.0,0.0,0.0,0.0,0.0,0.0,0.0,2.2427,2.3269,2.4068,2.4892,2.5727,2.6055,2.6465,2.7015,2.7809,2.8275,2.8275,2.9028,2.9685,3.0189,3.0474,3.0977,3.177,3.2004,3.2143,3.2143,3.2668,3.2949,3.2949,3.3414,3.3647,3.3647,3.3604,3.2965,3.1917,3.1453,3.0892,3.0301,2.971,2.9148,0.0,0.0,0.0,0.0,0.0,0.0,0.0,0.0,0.0,0.0,0.0,0.0,0.0,0.0,0.0,0.0,0.0,0.0,0.0,0.0,0.0,0.0,0.0,0.0,0.0,0.0,0.0,0.0,0.0,0.0,0.0,0.0,0.0,0.0,0.0,0.0,0.0,2.8833,2.9353,0.0,2.9772,2.9797,2.9817,2.9816,3.0364,3.0845,3.1161,3.17,3.2157,3.2457,3.2473,3.2464,3.2469,3.2498,3.2505,3.2511,3.2515,3.2518,3.2519,3.2519,3.2516,3.2512,3.2487,3.2473,3.2434,3.181,3.0893,2.9861,2.983,2.979,2.9777,2.9714,2.971,2.9694,0.0,0.0,0.0,0.0,0.0,0.0,0.0,0.0,2.2856,2.3689,2.4493,2.5315,2.6103,2.6463,2.6975,2.7828,2.8627,2.9093,2.9104,2.9855,3.0521,3.1052,3.1534,3.2052,3.2596,3.2828,3.3081,3.3381,3.3923,3.4344,3.4614,3.5094,3.5303,3.5303,3.5268,3.4946,3.4412,3.3893,3.3055,3.201,3.1389,3.0827,3.0285,0.0,0.0,0.0,0.0,0.0,0.0,0.0,0.0,0.0,0.0,0.0,0.0,0.0,0.0,0.0,0.0,0.0,0.0,0.0,0.0,0.0,0.0,0.0,0.0,0.0,0.0,0.0,0.0,0.0,0.0,0.0,0.0,0.0,0.0,0.0,3.0149,3.0147,3.0916,3.1461,3.1538,3.1542,3.1545,3.1589,3.2159,3.2508,3.2497,3.3053,3.3375,3.3405,3.3401,3.3392,3.3401,3.3409,3.3398,3.3405,3.3391,3.3394,3.3397,3.3398,3.3396,3.3393,3.3408,3.3396,3.3395,3.3395,3.2717,3.1675,3.161,3.1586,3.1563,3.1503,3.1478,3.1465,0.0,0.0,0.0,0.0,0.0,0.0,0.0,2.2002,2.2828,2.372,2.4511,2.5325,2.6141,2.6994,2.7828,2.8665,2.9461,2.9918,2.9942,3.0662,3.109,3.1073,3.2594,3.3446,3.3483,3.4245,3.5071,3.5935,3.5791,3.6169,3.6992,3.6932,3.6895,3.6895,3.6895,3.6895,3.6895,3.6814,3.4999,3.2134,3.2096,3.204,3.2022,0.0,0.0,0.0,0.0,0.0,0.0,0.0,0.0,0.0,0.0,0.0,0.0,0.0,0.0,0.0,0.0,0.0,0.0,0.0,0.0,0.0,0.0,0.0,0.0,0.0,0.0,0.0,0.0,0.0,0.0,0.0,0.0,0.0,3.0579,3.1262,3.1839,3.1839,3.2595,3.3137,3.3184,3.3206,3.3239,3.3299,3.3322,3.3339,3.3331,3.3373,3.3401,3.3475,3.3483,3.3477,3.3472,3.3479,3.347,3.3484,3.3489,3.3473,3.3475,3.3476,3.3474,3.3471,3.3486,3.3478,3.3485,3.3477,3.3485,3.347,3.3351,3.33,3.3296,3.3214,3.3203,3.3189,0.0,0.0,0.0,0.0,0.0,0.0,2.1956,2.2371,2.3031,2.4492,2.4858,2.5553,2.7001,2.7361,2.8055,2.9442,2.9777,3.0158,3.0719,3.0921,3.1534,3.2688,3.373,3.4564,3.5202,3.5428,3.5912,3.6698,3.6667,3.6744,3.6932,3.687,3.6833,3.6833,3.6782,3.6751,3.6751,3.6744,3.6223,3.5306,3.4078,3.3241,3.2676,0.0,0.0,0.0,0.0,0.0,0.0,0.0,0.0,0.0,0.0,0.0,0.0,0.0,0.0,0.0,0.0,0.0,0.0,0.0,0.0,0.0,0.0,0.0,0.0,0.0,0.0,0.0,0.0,0.0,0.0,0.0,0.0,3.2481,3.2318,3.2515,3.2698,3.2736,3.2946,3.3107,3.3132,3.316,3.321,3.3239,3.3852,3.4243,3.4234,3.4841,3.5187,3.5212,3.5215,3.5208,3.5212,3.527,3.53,3.5285,3.5298,3.5286,3.5289,3.5292,3.5293,3.5291,3.5288,3.5281,3.5287,3.5291,3.5258,3.5088,3.3799,3.3307,3.3297,3.3218,3.3142,3.3147,0.0,0.0,0.0,0.0,0.0,0.0,2.2249,2.2505,2.3107,2.4776,2.5003,2.5629,2.7323,2.7494,2.815,2.9764,2.9901,3.0227,3.1013,3.1657,3.2567,3.3851,3.4695,3.5371,3.5897,3.6201,3.674,3.751,3.7449,3.7567,3.7865,3.78,3.7774,3.7761,3.7716,3.7708,3.7708,3.7708,3.7503,3.7113,3.6129,3.5083,3.4005,3.3564,3.2962,3.2378,3.2393,3.1893,3.1206,3.1256,0.0,0.0,0.0,0.0,0.0,0.0,0.0,0.0,0.0,0.0,0.0,0.0,0.0,0.0,0.0,0.0,0.0,0.0,0.0,0.0,0.0,0.0,0.0,0.0,3.3339,3.351,3.3942,3.3711,3.3517,3.3566,3.3903,3.4149,3.4153,3.4202,3.425,3.4286,3.48,3.5092,3.5092,3.558,3.5869,3.5905,3.5903,3.5899,3.5909,3.5966,3.5995,3.5999,3.5998,3.6007,3.5991,3.5994,3.5996,0.0,3.5992,3.6007,3.5996,3.5995,3.5981,0.0,0.0,0.0,0.0,0.0,3.4186,3.417,0.0,0.0,0.0,0.0,0.0,0.0,2.2243,2.2506,2.3108,2.4776,2.5003,2.5629,2.7323,2.7494,2.815,2.9756,2.9893,3.0248,3.1082,3.2643,3.3851,3.4575,3.5428,3.5935,3.6017,3.6747,3.7517,3.8309,3.8182,3.8489,3.9183,3.9129,3.9101,3.9101,3.9101,3.9101,3.9101,3.9101,3.8692,3.801,3.801,3.7058,3.564,3.5529,3.4581,3.328,3.3157,3.2653,3.2035,3.2028,0.0,0.0,0.0,0.0,0.0,0.0,0.0,0.0,0.0,0.0,0.0,0.0,0.0,0.0,0.0,0.0,0.0,0.0,0.0,0.0,0.0,0.0,0.0,0.0,3.4221,3.4576,3.5429,3.5,3.4552,3.4366,3.5179,3.5747,3.5756,3.588,3.6018,3.6061,3.609,3.6069,3.6087,0.0,0.0,0.0,0.0,3.5997,3.5904,3.5958,3.5988,3.5999,3.5996,3.6005,3.5991,3.5993,3.5996,3.5995,3.5992,3.6009,3.6004,3.6001,3.6042,3.6114,3.5966,3.5898,3.5864,3.5741,3.572,3.5758,0.0,0.0,0.0,0.0,0.0,0.0,2.2243,2.2506,2.3108,2.4776,2.5003,2.5629,2.7323,2.7494,2.8161,2.9761,2.9851,3.0404,3.1806,3.3429,3.4433,3.4594,3.5428,3.6193,3.6773,3.7547,3.8321,3.9014,3.8968,3.9021,3.9129,3.9115,3.9101,3.9101,3.9101,3.9101,3.9101,3.9101,3.8966,3.8799,3.8799,3.7858,3.6402,3.5751,3.5306,3.4915,3.4216,3.3466,3.279,3.2843,3.2449,3.1912,3.1798,3.1781,0.0,0.0,0.0,0.0,0.0,0.0,0.0,0.0,0.0,0.0,0.0,0.0,0.0,0.0,0.0,0.0,0.0,0.0,0.0,3.4827,3.5556,3.6101,3.6339,3.6838,3.6697,3.5406,3.6023,3.6581,3.663,3.7301,3.7716,3.7727,3.7793,3.7822,3.7812,3.7871,0.0,3.6892,3.6917,3.6605,3.5917,3.5902,3.5958,3.6007,0.0,0.0,3.6006,3.5991,3.5994,3.5996,3.5994,3.5991,3.6009,3.6009,3.6372,3.6908,3.6171,3.5861,3.5803,3.5727,3.6098,3.6632,0.0,0.0,0.0,0.0,0.0,0.0,2.2243,2.2506,2.3108,2.4776,2.5003,2.5629,2.7323,2.7472,2.8111,2.9752,3.0562,3.1318,3.2058,3.3663,3.4612,3.4612,3.5788,3.6616,3.6992,3.8128,3.8867,3.9197,3.917,3.9129,3.9101,3.9101,3.9101,3.9101,3.9101,3.9073,3.9064,3.9064,3.9007,3.8935,3.8935,3.8483,3.7711,3.6914,3.6099,3.534,3.4914,3.4235,3.3567,3.3591,3.3354,3.298,3.2665,3.2557,3.2474,0.0,0.0,0.0,0.0,0.0,0.0,0.0,0.0,0.0,0.0,0.0,0.0,0.0,0.0,3.4068,3.4931,0.0,3.5437,3.6313,3.6814,3.7113,3.7193,3.7597,3.7613,3.6836,3.7146,3.743,3.7488,3.7918,3.8205,3.8194,3.8227,3.8253,3.8302,3.8325,3.8177,3.7751,3.777,3.7617,3.7212,3.7194,3.721,3.7242,3.724,3.7256,3.7248,3.7294,3.7299,3.7303,3.7304,3.7302,3.7298,3.7256,3.7483,3.7807,3.7336,3.7137,3.7096,3.7027,3.7207,3.7507,0.0,0.0,0.0,0.0,0.0,0.0,0.0,2.2392,2.3051,2.4548,2.4889,2.5572,2.7077,2.7335,2.8053,2.9727,3.1271,3.2163,3.2105,3.3663,3.4612,3.4612,3.6129,3.6992,3.698,3.8443,3.9197,3.9183,3.9129,3.9101,3.9101,3.9101,3.9101,3.9101,3.9087,3.9064,3.8993,3.8997,3.8935,3.8881,3.8881,3.8881,3.8792,3.8132,3.7003,3.572,3.5407,3.4874,3.4314,3.4142,3.4124,3.4074,3.3478,3.3297,3.3189,3.2624,3.2491,0.0,0.0,0.0,0.0,0.0,0.0,0.0,0.0,0.0,3.4349,3.5012,3.5315,3.5676,3.6407,3.6587,3.6851,3.7574,3.782,3.7969,3.804,3.8227,3.8399,3.8485,3.8344,3.8264,3.8317,3.8556,3.8691,3.87,3.8692,3.872,3.8787,3.8802,3.8748,3.8637,3.8645,3.8607,3.8484,3.8484,3.8503,3.8497,3.8502,3.8497,3.8507,3.8556,3.8584,3.8591,3.8594,3.8592,3.8584,3.8539,3.8595,3.8758,3.8682,3.8758,3.8857,3.8447,3.8335,3.8375,0.0,0.0,0.0,0.0,0.0,0.0,0.0,0.0,2.2817,2.3727,2.4529,2.5344,2.6254,2.6968,2.8029,2.9603,3.1195,3.2115,3.2105,3.3663,3.4612,3.4612,3.6129,3.6968,3.692,3.8398,3.917,3.9115,3.9101,3.9101,3.9101,3.9101,3.9101,3.9101,3.9036,3.9007,3.9011,3.8939,3.8862,3.8822,3.8822,3.878,3.8704,3.8612,3.8114,3.7234,3.5813,3.524,3.5051,3.4269,3.4061,3.4093,3.4012,3.4031,3.4073,3.4039,3.4055,3.4078,3.4211,3.4288,3.4341,3.4405,3.4444,3.4473,0.0,0.0,3.5872,3.5947,3.6593,3.7174,3.7328,3.7366,3.7462,3.7661,3.8289,3.8812,3.8948,3.9588,4.0083,4.0213,3.9592,3.9162,3.9162,3.9926,4.041,4.0417,4.0474,4.051,4.0516,4.0585,4.0267,3.9481,3.9518,3.9194,3.8424,3.8461,3.8507,3.8503,3.8497,3.8497,3.85,3.8507,3.8539,3.8608,3.8593,3.8606,3.858,3.8536,3.897,3.9646,3.9585,4.0038,4.0513,3.8908,3.875,3.9325,0.0,0.0,0.0,0.0,0.0,0.0,0.0,0.0,0.0,2.3594,2.4453,2.5293,2.606,2.7285,2.8483,2.9597,3.0744,3.1598,3.2067,3.3231,3.4113,3.4594,3.5656,3.6446,3.6889,3.7912,3.8664,3.9101,3.9101,3.9101,3.9101,3.9101,3.9073,3.905,3.9007,3.8968,3.8877,3.8848,3.8807,3.875,3.875,3.8738,3.8707,3.8707,3.8239,3.7433,3.6278,3.5607,0.0,3.4229,3.3985,3.4049,3.4086,3.4124,3.4161,3.4221,3.4269,3.4316,3.4427,3.4869,3.5308,3.533,3.5754,3.6166,3.6187,3.6505,3.6793,3.6806,3.7091,3.753,3.8085,3.8229,3.844,0.0,3.9395,3.9681,3.9728,4.006,4.0325,4.0379,4.0156,4.0015,4.0041,4.0405,4.0653,4.0694,4.0726,4.0758,4.0794,4.0823,4.0696,4.0359,4.0379,4.0232,3.9917,3.9933,3.9956,3.9948,3.9941,3.9984,4.001,4.0001,4.0037,4.0053,4.0059,4.0056,4.0049,4.0013,4.0231,4.0545,4.0484,4.0684,4.0906,4.0053,3.9976,4.024,0.0,0.0,0.0,0.0,0.0,0.0,0.0,0.0,0.0,0.0,2.4321,2.5286,2.6016,2.735,2.8496,2.927,3.0293,3.1156,3.1729,3.2799,3.3652,3.4223,3.5172,3.5961,3.6528,3.7439,3.8191,3.8767,3.899,3.9101,3.9101,3.9073,3.905,3.8993,3.895,3.8896,3.8807,3.8777,3.875,3.8707,3.8707,3.8707,3.8689,3.845,3.8025,3.7382,3.6578,3.5799,3.5014,3.4163,3.3908,3.3985,3.4036,3.4061,3.4086,3.4161,3.4401,3.4714,3.4986,3.5567,3.6101,3.6143,3.6644,3.7145,3.7167,3.7401,3.7607,3.7602,3.7794,3.8186,3.8875,3.9031,3.9281,3.9901,4.0087,4.0166,4.0196,4.0244,4.028,4.0307,4.0388,4.0482,4.0562,4.0592,4.0629,4.0666,4.0687,4.072,4.077,4.0788,4.0818,4.0881,4.0897,4.0922,4.0965,4.0997,4.1003,4.0991,4.0997,4.1039,4.1064,4.109,4.1091,4.1108,4.1093,4.1093,4.1107,4.1095,4.1097,4.1091,4.1022,4.1009,4.0988,4.0864,4.0826,4.0775,0.0,0.0,0.0,0.0,0.0,0.0,0.0,0.0,0.0,0.0,0.0,0.0,0.0,2.6844,2.7641,2.8378,2.9955,3.0912,3.0931,3.247,3.3387,3.3353,3.4869,3.5688,3.5646,3.7115,3.7912,3.7931,3.8711,3.9101,3.9101,3.9036,3.8993,3.8979,3.8848,3.8807,3.8792,3.8719,3.8707,3.8707,3.8707,3.8707,3.8615,3.7841,3.7529,3.7382,3.6578,3.5752,3.4876,3.4064,3.386,3.3895,3.3908,3.3947,3.4023,3.4086,3.4791,3.5739,3.6509,3.6802,3.6882,3.6943,3.6974,3.7016,3.7099,3.7758,3.8368,3.838,3.9036,3.9667,3.9755,3.9766,3.9829,3.9975,3.9996,4.0057,4.0186,4.0206,4.0225,4.0298,4.0307,4.037,0.0,4.0562,4.0607,4.0607,4.066,4.07,4.07,4.0764,4.08,4.08,4.0876,4.0902,4.0907,4.096,4.1006,4.101,4.0991,4.0997,4.1016,4.107,4.1097,4.1108,4.1093,4.1093,4.1107,4.1095,4.1097,4.1091,4.1022,4.1009,4.0988,4.0921,4.0854,4.0771,0.0,0.0,0.0,0.0,0.0,0.0,0.0,0.0,0.0,0.0,0.0,0.0,0.0,0.0,0.0,0.0,2.9429,3.034,3.0875,3.1936,3.2789,3.335,3.4312,3.5114,3.5651,3.6099,3.6569,3.7108,3.7912,3.8302,3.8302,3.8776,3.8983,3.8921,3.8851,3.8795,3.8735,3.8723,3.8395,3.7915,3.7915,3.7569,3.7074,3.6798,3.634,3.5811,0.0,3.5261,3.4876,3.4082,3.3802,3.3829,3.3881,3.3908,3.407,3.4759,3.5582,3.6326,3.6656,3.7167,3.7647,3.766,3.8121,3.8602,3.8677,3.8908,3.9164,3.9248,3.951,3.9703,3.9724,3.977,3.9815,3.9859,3.9943,4.0007,4.0067,4.0138,4.0215,4.0225,4.0271,0.0,0.0,0.0,0.0,4.06,4.061,4.0639,4.0628,4.0707,4.0726,4.0732,4.0806,4.084,4.0837,4.0898,4.0922,4.0921,4.0976,4.1007,4.0994,4.1061,4.1106,4.1098,4.1108,4.1093,4.1093,4.1106,4.1095,4.1097,4.1072,4.1036,4.0991,4.0913,4.0854,4.0796,0.0,0.0,0.0,0.0,0.0,0.0,0.0,0.0,0.0,0.0,0.0,0.0,0.0,0.0,0.0,0.0,0.0,2.9589,3.0424,3.1222,3.1907,3.2439,3.3421,3.4225,3.4762,3.5243,3.5751,3.6272,3.7076,3.7466,3.7458,3.79,3.8071,3.7999,3.7945,3.7886,3.7845,3.7845,3.7533,3.707,3.707,3.6729,3.6186,3.5907,3.5439,0.0,3.4604,3.4499,3.4421,3.3959,3.3807,3.382,3.3842,3.4089,3.4552,3.5489,3.6355,3.7099,3.7431,3.7944,3.8388,3.8415,3.8878,3.936,3.9444,3.9482,3.952,3.9608,3.9645,3.9662,3.9703,3.975,3.9766,3.9792,3.987,3.9954,3.9986,4.0077,4.0157,4.0196,4.0234,4.0271,0.0,0.0,0.0,4.0554,4.0592,4.0603,4.0605,4.064,4.0681,4.0694,4.0745,4.0781,4.0809,4.0837,4.0868,4.0907,4.0961,4.1,4.0994,4.1067,4.1094,4.1109,4.1099,4.1109,4.1094,4.1091,4.1103,4.1108,4.1105,4.1053,4.0993,4.0953,4.0893,4.0826,0.0,0.0,0.0,0.0,0.0,0.0,0.0,0.0,0.0,0.0,0.0,0.0,0.0,0.0,0.0,0.0,0.0,0.0,2.957,3.0424,3.0864,3.0815,3.2305,3.3127,3.3108,3.4587,3.5398,3.5436,3.6253,3.6604,3.6539,3.65,3.6468,3.6398,3.6346,3.6303,3.6303,3.6303,3.6266,3.6229,3.6229,3.6131,3.5893,3.5139,3.4804,3.4641,3.386,3.3605,3.3633,3.3753,3.3807,3.3807,3.3807,3.4435,3.5354,3.6159,3.7068,3.7961,3.8775,3.9031,3.9115,3.917,3.9183,3.9229,3.936,3.9444,3.9482,3.9495,3.9558,3.962,0.0,0.0,3.9722,3.977,3.9792,3.9848,3.9975,3.9996,4.0057,0.0,0.0,0.0,0.0,0.0,0.0,4.0493,0.0,4.058,4.058,4.0605,4.0621,4.0694,4.0694,4.0725,4.0794,4.0809,4.0833,4.0907,4.0952,4.0991,4.101,4.1067,4.1098,4.1108,4.1109,4.1103,4.1094,4.1093,4.1106,4.1108,4.1105,4.1059,4.1007,4.0991,4.0969,4.0945,0.0,0.0,0.0,0.0,0.0,0.0,0.0,0.0,0.0,0.0,0.0,0.0,0.0,0.0,0.0,0.0,0.0,0.0,2.8716,3.0086,3.0884,3.0874,3.1794,3.2571,3.3157,3.3476,3.393,3.4531,3.5398,3.5769,3.5723,3.6241,3.6468,3.6398,3.6346,3.6303,3.6303,3.6303,3.5936,3.5334,3.5274,3.4879,3.427,3.4026,3.3911,3.3879,3.366,3.3605,3.3601,3.3698,3.3766,3.3807,3.3807,3.4389,3.523,3.6131,3.6998,3.7833,3.8703,3.8964,3.9021,3.905,3.9087,3.9142,3.9229,3.9269,3.9328,3.9469,3.9508,3.9546,0.0,0.0,0.0,3.9722,3.9766,0.0,3.9848,3.9943,0.0,4.0057,0.0,4.0157,4.0215,4.0225,0.0,0.0,4.0466,4.0534,4.0534,4.0565,4.061,4.0617,4.064,4.0655,4.0726,4.0782,4.084,4.0893,4.0931,4.0948,4.0991,4.1023,4.1056,4.1105,4.1103,4.1099,4.1091,4.1094,4.1092,4.1102,4.1101,4.1093,4.1064,4.1015,4.1338,4.1789,0.0,0.0,0.0,0.0,0.0,0.0,0.0,0.0,0.0,0.0,0.0,0.0,0.0,0.0,0.0,0.0,0.0,0.0,0.0,2.9279,2.9974,3.0359,3.1056,3.163,3.2096,3.2352,3.2704,3.315,3.3986,3.4346,3.4283,3.5045,3.5348,3.5257,3.523,3.5202,3.5202,3.5202,3.4899,0.0,0.0,3.4073,3.3619,3.3577,3.3534,3.3506,3.3506,3.352,3.3563,3.3605,3.3671,3.3766,3.3766,3.433,3.5169,3.6089,3.694,3.7775,3.863,3.891,3.895,3.8979,3.9021,3.9059,3.9142,3.9183,3.9224,3.9341,3.9412,3.9482,3.9546,3.9583,0.0,0.0,0.0,0.0,3.9792,3.9859,3.9924,0.0,4.0017,0.0,4.0157,4.0186,4.0225,0.0,4.0389,4.0468,4.0468,4.0515,4.0562,4.0565,4.0583,4.0626,4.07,4.0732,4.0781,4.0865,4.0883,4.0921,4.0967,4.0979,4.1016,4.1059,0.0,4.1106,4.1102,4.1092,4.1093,4.1108,4.1091,4.1107,4.1137,4.1457,4.1807,4.2252,0.0,0.0,0.0,0.0,0.0,0.0,0.0,0.0,0.0,0.0,2.4264,0.0,0.0,0.0,0.0,0.0,0.0,0.0,0.0,0.0,2.8735,2.9495,3.0177,3.0594,3.0706,3.1328,3.1682,3.1794,3.25,3.2764,3.2668,3.3352,3.3607,3.3476,3.3476,3.3476,3.3476,3.3476,3.3436,3.3387,3.3374,3.3291,3.3182,0.0,3.3125,3.3085,3.3085,3.3183,3.3332,3.3332,3.3486,3.3684,3.3698,3.4215,3.499,3.5881,3.6746,3.7599,3.8405,3.8744,3.891,3.895,3.8997,3.9007,3.9073,3.9142,3.9183,3.9197,3.9301,3.9405,3.9469,3.9495,3.9533,3.9645,0.0,3.971,3.9789,3.9792,3.9837,3.9965,3.9975,4.0007,4.0077,4.0147,4.0176,4.0186,4.0309,4.0389,4.0398,4.0449,4.0499,4.0508,4.0558,4.0617,4.068,4.0707,4.0725,4.0794,4.0858,4.0898,4.0907,4.0953,4.099,4.0994,0.0,0.0,4.1091,4.1107,4.1093,4.1092,4.1099,4.1175,4.1364,4.2059,4.2401,4.2757,0.0,0.0,0.0,0.0,0.0,0.0,0.0,0.0,0.0,0.0,2.4613,2.47,0.0,0.0,0.0,0.0,0.0,0.0,0.0,0.0,0.0,2.8622,2.9316,3.0015,3.0688,3.077,3.1125,3.1794,3.1942,3.1948,3.1819,3.1948,3.1931,3.1819,3.1819,3.1819,3.1819,3.1819,3.1768,3.1722,3.1657,3.1591,3.1524,3.1456,0.0,0.0,3.1433,3.185,3.2426,3.2426,3.296,3.3633,3.3684,3.379,3.411,3.4972,3.5844,3.6699,3.7507,3.8265,3.8822,3.8837,3.8925,3.8993,3.9007,3.9059,3.9129,3.9183,3.921,3.9269,3.9386,3.9457,3.9508,3.9533,3.962,3.9705,3.9729,3.9785,3.9815,0.0,3.987,3.9943,4.0007,0.0,0.0,0.0,0.0,0.0,4.0316,4.0379,4.0441,4.0491,4.05,4.0546,4.0629,4.0673,4.0707,4.0725,4.0781,4.0842,4.0907,4.0902,4.0949,4.0994,0.0,0.0,4.1091,4.1104,4.1092,4.1093,4.1104,4.1535,4.2178,4.2272,4.3171,4.4375,0.0,0.0,0.0,0.0,0.0,0.0,0.0,2.2987,2.3795,2.4595,2.47,2.47,2.47,2.47,2.47,0.0,0.0,0.0,0.0,0.0,0.0,0.0,2.8746,2.9297,3.0053,3.0008,3.0161,3.0549,0.0,3.1114,3.0976,3.1413,3.1525,3.1397,3.1397,3.1397,3.1397,3.1397,3.1352,3.1237,3.1211,3.1133,3.1039,3.1012,0.0,0.0,3.0998,3.1252,3.1636,3.2053,3.2508,3.296,3.3431,3.3629,3.3845,3.4692,3.527,3.5899,3.7162,3.7816,3.8232,3.8681,3.8851,3.8906,3.8979,3.9021,3.9078,3.9129,3.9142,3.917,3.9288,3.9328,0.0,3.9482,3.9546,3.962,3.9693,3.9722,3.975,3.9747,3.9804,3.9848,0.0,0.0,0.0,0.0,0.0,0.0,4.0282,4.0317,4.0379,4.0441,4.0471,4.0519,4.0558,4.0617,4.0673,4.0707,4.0719,4.0779,4.0849,4.0874,4.0943,4.1006,4.1033,0.0,4.1095,4.1097,4.1108,4.1152,4.1597,4.2032,4.25,4.334,4.4152,4.4902,0.0,0.0,0.0,0.0,0.0,0.0,0.0,2.3228,2.3979,2.4617,2.4692,2.4692,2.47,2.47,2.47,0.0,0.0,0.0,0.0,0.0,0.0,0.0,0.0,0.0,0.0,0.0,0.0,0.0,3.0028,0.0,0.0,0.0,0.0,0.0,3.0889,3.0889,3.087,3.0858,3.0802,0.0,0.0,3.0597,0.0,0.0,0.0,0.0,0.0,3.06,3.0835,3.1473,3.1908,3.2321,3.3012,3.3417,3.3785,3.4448,3.4802,3.5265,3.6597,3.7107,3.7415,3.8081,3.8276,3.8306,3.8422,3.8479,3.8503,3.8553,3.8567,3.865,3.8872,3.8936,3.9064,3.9419,3.9482,3.9533,3.9657,3.9693,3.9686,0.0,3.9754,0.0,0.0,0.0,0.0,0.0,0.0,0.0,4.0539,4.0348,4.0298,4.037,4.0432,4.0463,4.05,4.0558,4.061,4.0673,4.0681,4.0738,4.0771,4.0849,4.0917,4.0984,4.099,0.0,0.0,4.1106,4.1103,4.1189,4.2068,4.2507,4.2863,4.4348,4.5017,4.5251,0.0,0.0,0.0,0.0,0.0,0.0,0.0,2.3977,2.4556,2.469,2.469,2.4706,2.47,2.47,2.47,0.0,0.0,0.0,0.0,0.0,0.0,0.0,0.0,0.0,0.0,0.0,0.0,0.0,0.0,0.0,0.0,0.0,0.0,0.0,0.0,0.0,2.9225,2.916,0.0,0.0,0.0,0.0,0.0,0.0,0.0,0.0,0.0,2.93,2.9911,3.0002,3.0998,3.2198,3.2284,3.2867,3.3553,3.3748,3.4334,3.4952,3.5174,3.5807,3.6431,3.6501,3.6595,3.6619,3.6633,3.6726,3.6816,3.683,3.687,3.7145,3.7888,3.8072,3.8398,3.9274,3.9457,3.952,3.9608,3.9657,3.9693,3.9705,0.0,0.0,0.0,0.0,0.0,0.0,0.0,0.0,0.0,4.0606,4.0234,4.0307,4.0316,4.0379,4.051,4.0519,4.0539,4.0615,4.0673,4.0707,4.0706,4.079,4.0844,4.0917,0.0,0.0,0.0,4.1099,4.1099,4.1187,4.205,4.2884,4.369,4.4577,4.5403,4.6091,0.0,0.0,0.0,0.0,0.0,0.0,2.3355,2.4084,2.4607,2.465,2.465,2.4666,2.4706,2.4706,2.4695,2.47,0.0,0.0,0.0,0.0,0.0,0.0,0.0,0.0,0.0,0.0,0.0,2.9396,0.0,0.0,0.0,0.0,0.0,0.0,0.0,0.0,0.0,2.8929,0.0,0.0,0.0,0.0,0.0,0.0,0.0,0.0,0.0,0.0,2.9156,2.9639,3.0237,3.0926,3.189,3.2444,3.2831,3.3403,3.3866,3.4298,3.4802,3.5215,3.5628,3.6174,3.6332,3.6342,3.6384,3.644,3.6505,3.6581,3.6621,3.6758,3.7113,3.7604,3.8072,3.8505,3.9055,3.9469,3.9533,3.9608,3.9645,3.9645,3.9674,0.0,0.0,0.0,0.0,0.0,0.0,0.0,0.0,4.1623,4.0711,4.0253,4.028,4.0325,4.0379,4.0455,4.0511,4.0539,4.0612,4.0662,4.07,4.0759,4.0839,4.0893,0.0,0.0,0.0,4.1087,4.1091,4.1241,4.2636,4.3396,4.3854,4.5195,4.5908,4.6187,0.0,0.0,0.0,0.0,0.0,2.3446,2.3697,2.4219,2.4574,2.4564,2.4564,2.4599,2.4666,2.4701,2.4698,2.4703,2.47,0.0,0.0,0.0,0.0,0.0,0.0,0.0,0.0,0.0,2.864,2.9396,2.9396,0.0,0.0,0.0,0.0,0.0,0.0,0.0,0.0,0.0,0.0,0.0,0.0,0.0,0.0,0.0,0.0,0.0,0.0,0.0,0.0,0.0,0.0,3.0002,3.1129,3.1636,3.2049,3.3172,3.3577,3.3799,3.4393,3.4596,3.4784,3.5404,3.555,3.5564,3.562,3.5648,3.5689,3.5792,3.5827,3.5959,3.627,3.7002,3.7642,3.7949,3.8747,3.9373,3.9482,3.9546,3.9583,0.0,0.0,0.0,0.0,0.0,0.0,0.0,0.0,0.0,0.0,4.2702,4.1623,4.0596,4.0358,4.028,4.0307,4.0405,4.0482,4.0492,4.0576,4.0628,4.0668,4.0736,4.0812,4.0869,0.0,0.0,0.0,4.1074,4.1101,4.1274,4.3026,4.3691,4.3919,4.5597,4.6216,4.6186,0.0,0.0,0.0,0.0,0.0,0.0,2.4373,2.4507,2.4498,2.4495,2.4503,2.4539,2.458,2.4658,2.4709,2.4709,2.4703,0.0,0.0,0.0,0.0,0.0,0.0,0.0,0.0,0.0,2.8592,2.9396,2.9396,2.9326,2.92,2.92,0.0,0.0,0.0,0.0,0.0,0.0,0.0,0.0,0.0,0.0,0.0,0.0,0.0,0.0,0.0,0.0,0.0,0.0,0.0,0.0,0.0,3.0364,3.1338,3.3023,3.3549,3.3619,3.3689,3.3753,3.3807,3.3825,3.3825,3.3825,3.3825,3.3879,3.3931,3.3931,3.4029,3.4377,3.5241,3.6127,3.6991,3.7856,3.8675,3.9269,3.9469,3.9495,3.952,0.0,0.0,0.0,0.0,0.0,0.0,0.0,0.0,0.0,0.0,4.3741,4.3034,4.1444,4.0615,4.0225,4.0307,4.037,4.0432,4.0502,4.0569,4.0591,4.0595,4.0668,4.073,0.0,0.0,0.0,0.0,4.1078,4.1109,4.1268,4.3024,4.3691,4.3904,4.5665,4.6267,4.6203,0.0,0.0,0.0,0.0,0.0,0.0,0.0,2.4508,2.4508,2.4498,2.4498,2.4515,2.4539,2.4555,2.4572,2.4623,2.4668,0.0,0.0,0.0,0.0,0.0,0.0,0.0,0.0,2.7252,2.8033,2.9396,2.9396,2.9326,2.92,2.92,2.9123,2.9005,0.0,0.0,0.0,0.0,0.0,0.0,0.0,0.0,0.0,0.0,0.0,0.0,0.0,0.0,0.0,0.0,0.0,0.0,0.0,0.0,0.0,3.1479,3.2224,3.2857,3.3455,3.3671,3.3739,3.3793,3.3807,3.3807,3.3807,3.382,3.3842,3.3881,3.3934,3.409,3.4438,3.5662,3.674,3.7065,3.8295,3.921,0.0,0.0,0.0,0.0,0.0,0.0,0.0,0.0,0.0,0.0,0.0,0.0,0.0,4.4028,4.2993,4.1379,4.1128,4.0768,4.0244,4.0308,4.037,4.0432,4.0511,4.0569,4.0595,4.0668,0.0,0.0,0.0,0.0,0.0,4.1064,4.1098,4.1277,4.3019,4.369,4.3905,4.5652,4.6259,4.6197,0.0,0.0,0.0,0.0,0.0,0.0,0.0,2.45,2.45,2.45,2.45,2.449,2.4497,2.4495,2.4512,2.4555,2.4621,0.0,0.0,0.0,0.0,0.0,0.0,0.0,2.6972,2.6972,2.7753,2.9396,2.9396,2.9326,2.92,2.92,2.9123,2.9005,2.9005,2.8952,0.0,0.0,0.0,0.0,0.0,0.0,2.86,0.0,0.0,0.0,0.0,0.0,0.0,0.0,0.0,0.0,0.0,0.0,0.0,0.0,3.0935,3.1606,3.2784,3.341,3.3712,3.3753,3.378,3.3807,3.3807,3.3807,3.3802,3.3842,3.3881,3.3934,3.4049,3.5438,3.6621,3.6686,3.8082,3.917,0.0,0.0,0.0,0.0,0.0,0.0,0.0,0.0,0.0,0.0,0.0,0.0,0.0,0.0,4.3542,4.2242,4.1667,4.1119,4.0653,4.0415,4.0325,4.0407,4.0471,4.0539,4.0595,4.0636,0.0,0.0,0.0,0.0,0.0,4.1049,4.1083,4.1265,4.3012,4.3707,4.3906,4.5658,4.6267,4.6228,0.0,0.0,0.0,0.0,0.0,0.0,0.0,2.45,2.45,2.45,2.45,2.45,2.45,2.4497,2.4495,2.4495,0.0,0.0,0.0,0.0,0.0,0.0,0.0,0.0,2.6954,2.6935,2.7724,2.9396,2.9396,2.9326,2.92,2.92,2.9123,2.9005,2.9005,2.8952,2.8875,2.8743,2.8662,2.86,2.86,2.86,0.0,0.0,0.0,0.0,0.0,0.0,0.0,0.0,0.0,0.0,0.0,0.0,0.0,0.0,0.0,0.0,0.0,3.2858,3.3611,3.368,3.3753,3.3775,3.3807,3.3807,0.0,3.3807,3.3842,3.3908,3.3985,3.543,3.6607,3.6673,3.8042,0.0,0.0,0.0,0.0,0.0,0.0,0.0,0.0,0.0,0.0,0.0,0.0,0.0,0.0,0.0,4.4554,4.3815,4.2286,4.144,4.1387,4.073,4.0382,4.0407,4.0458,4.0527,4.0595,4.0595,0.0,0.0,0.0,0.0,0.0,4.0997,4.1048,4.1274,4.3024,4.3703,4.3905,4.5661,4.6295,4.6298,0.0,0.0,0.0,0.0,0.0,0.0,0.0,0.0,0.0,0.0,2.45,2.45,2.45,2.4508,2.4498,0.0,0.0,0.0,0.0,0.0,0.0,0.0,0.0,0.0,2.6954,2.6935,2.7724,2.9396,2.9396,2.9326,2.92,2.92,2.9123,2.9005,2.9005,2.8929,2.881,2.8675,2.8612,2.86,2.86,2.86,0.0,0.0,0.0,0.0,2.86,2.86,0.0,0.0,0.0,0.0,0.0,0.0,0.0,0.0,2.9318,2.9875,3.0282,0.0,3.2794,3.3524,3.3712,3.3739,0.0,3.3807,3.3807,3.3807,3.3802,3.3842,3.3908,3.5351,3.6541,3.6607,0.0,0.0,0.0,0.0,0.0,0.0,0.0,0.0,0.0,0.0,0.0,0.0,0.0,0.0,0.0,0.0,4.4819,4.463,4.3703,4.2591,4.1345,4.1246,4.0939,4.0407,4.0415,4.0495,4.0595,4.0595,0.0,0.0,0.0,0.0,4.0996,4.1002,4.1039,4.1271,4.3017,4.3697,4.3903,4.5664,4.6304,4.6288,0.0,0.0,0.0,0.0,0.0,0.0,0.0,0.0,0.0,0.0,0.0,2.45,2.45,2.45,0.0,0.0,0.0,0.0,0.0,0.0,0.0,0.0,0.0,2.5687,2.6926,2.7269,2.8096,2.9396,2.9376,2.9294,2.92,2.9167,2.9089,2.8994,2.8947,2.8876,2.8785,2.865,2.86,2.86,2.86,0.0,0.0,0.0,0.0,0.0,2.86,2.86,0.0,2.86,2.86,2.86,0.0,0.0,0.0,0.0,2.8907,2.9318,2.9694,3.1016,3.2429,3.2931,3.3355,3.3671,3.3739,3.3753,3.3766,3.3775,3.3807,3.3944,3.4415,3.5583,0.0,0.0,0.0,0.0,0.0,0.0,0.0,0.0,0.0,0.0,0.0,0.0,0.0,0.0,0.0,0.0,0.0,0.0,4.4895,4.4895,4.4535,4.3566,4.1914,4.1627,4.1121,4.0407,4.0407,4.0471,4.0605,4.06,4.0655,0.0,0.0,0.0,4.0964,4.0984,4.1049,4.1271,4.3029,4.3693,4.3902,4.5664,4.6306,4.6295,0.0,0.0,0.0,0.0,0.0,0.0,0.0,0.0,0.0,0.0,0.0,0.0,0.0,0.0,0.0,0.0,0.0,0.0,0.0,0.0,0.0,0.0,2.5333,2.6135,2.6869,2.7687,2.8523,2.9396,2.9334,2.928,2.92,2.9123,2.9055,2.8994,2.8858,2.8798,2.8785,2.865,2.86,2.86,2.86,0.0,0.0,0.0,0.0,0.0,0.0,0.0,0.0,2.86,2.86,2.86,2.86,0.0,0.0,0.0,0.0,0.0,2.9427,3.0821,3.2128,3.2269,3.2948,3.3605,3.3684,3.3698,3.3726,3.3793,3.3899,3.4224,3.5014,3.5993,0.0,0.0,0.0,0.0,0.0,0.0,0.0,0.0,0.0,0.0,0.0,0.0,0.0,0.0,0.0,0.0,0.0,0.0,0.0,4.4895,4.4974,4.4292,4.2808,4.2047,4.1323,4.0598,4.0464,4.0463,4.0607,4.0593,4.0629,0.0,0.0,0.0,4.0904,4.0964,4.1036,4.1264,4.3021,4.3707,4.3919,4.5663,4.6308,4.6302,0.0,0.0,0.0,0.0,0.0,0.0,0.0,0.0,0.0,0.0,0.0,0.0,0.0,0.0,0.0,0.0,0.0,0.0,0.0,0.0,0.0,2.4508,2.5289,2.608,2.6869,2.7687,2.8523,2.9396,2.9334,2.928,2.92,2.9123,2.9055,2.8994,2.8858,2.8798,2.8785,2.865,2.86,2.86,2.86,0.0,0.0,0.0,0.0,0.0,0.0,0.0,0.0,2.86,2.86,2.86,2.86,0.0,0.0,0.0,0.0,0.0,2.8744,2.997,3.1388,3.2128,3.2906,3.3549,3.3671,3.3698,3.3726,3.3793,3.4344,3.4857,3.5,3.6338,3.7491,0.0,0.0,0.0,0.0,0.0,0.0,0.0,0.0,0.0,0.0,0.0,0.0,0.0,0.0,0.0,0.0,0.0,0.0,4.4895,4.4974,4.4551,4.3618,4.2883,4.2163,4.1489,4.0752,4.0463,4.0607,4.0593,4.0629,0.0,0.0,4.0844,4.0917,4.098,4.1002,4.1198,4.3005,4.3693,4.3905,4.5656,4.6307,4.6308,0.0,0.0,0.0,0.0,0.0,0.0,0.0,0.0,0.0,0.0,0.0,0.0,0.0,0.0,0.0,0.0,0.0,0.0,0.0,0.0,2.45,2.45,2.5689,2.6516,2.6888,2.8152,2.8988,2.9396,2.9294,2.924,2.9189,2.9078,2.904,2.8994,2.8858,2.8798,2.8785,2.865,2.86,2.86,0.0,0.0,0.0,0.0,0.0,0.0,0.0,0.0,0.0,0.0,2.8238,2.86,2.86,0.0,0.0,0.0,0.0,0.0,2.86,2.9771,3.1089,3.1511,3.2526,3.3466,3.3577,3.3633,3.3657,3.3739,3.4408,3.5151,3.561,0.0,3.7786,0.0,0.0,0.0,0.0,0.0,0.0,0.0,0.0,0.0,0.0,0.0,0.0,0.0,0.0,0.0,0.0,0.0,0.0,0.0,4.4919,4.4801,4.4513,4.3278,4.2305,4.1636,4.0801,4.0458,4.0546,4.0571,4.0609,4.0649,0.0,4.0828,4.0908,4.0971,4.0999,4.1172,4.298,4.3708,4.3904,4.5659,4.6308,4.6305,0.0,0.0,0.0,0.0,0.0,0.0,0.0,0.0,0.0,0.0,0.0,0.0,0.0,0.0,0.0,0.0,0.0,0.0,0.0,2.4446,2.4465,2.4474,2.6005,2.6859,2.6907,2.8542,2.9396,2.9376,2.9262,2.9178,2.9145,2.9051,2.8994,2.8964,2.8846,2.8785,2.8761,2.865,2.86,2.86,0.0,0.0,0.0,0.0,0.0,0.0,0.0,0.0,0.0,0.0,0.0,0.0,0.0,0.0,0.0,2.86,2.86,2.86,2.86,2.9771,3.0998,3.0998,3.2198,3.3408,3.3495,3.3534,3.366,3.3922,3.4655,3.554,0.0,3.7294,0.0,0.0,0.0,0.0,0.0,0.0,0.0,0.0,0.0,0.0,0.0,0.0,0.0,0.0,0.0,0.0,0.0,0.0,0.0,0.0,4.4895,4.4955,4.5103,4.3436,4.2359,4.1876,4.086,4.0432,4.051,4.0576,4.0595,4.0602,4.0736,4.0837,4.0883,4.0963,4.0991,4.1179,4.2997,4.3946,4.4474,4.5818,4.6308,4.6302,0.0,0.0,0.0,0.0,0.0,0.0,0.0,0.0,0.0,0.0,0.0,0.0,0.0,0.0,0.0,0.0,0.0,0.0,0.0,2.4303,2.4339,2.4403,2.5883,2.6763,2.6907,2.8542,2.9376,2.9312,2.924,2.9152,2.9017,2.9005,2.897,2.8887,2.8834,2.8761,2.8694,2.8637,2.86,2.86,2.86,0.0,0.0,0.0,0.0,0.0,0.0,0.0,0.0,0.0,0.0,0.0,0.0,0.0,2.86,2.86,2.86,2.86,2.86,2.9771,3.0998,3.0998,3.2198,3.3408,3.3495,3.3491,3.3767,3.4635,3.5469,3.6307,0.0,3.8121,0.0,0.0,0.0,0.0,0.0,0.0,0.0,0.0,0.0,0.0,0.0,0.0,0.0,0.0,0.0,0.0,0.0,0.0,0.0,0.0,0.0,4.4955,4.5103,4.3436,4.2645,4.268,4.1137,4.0432,4.051,4.0576,4.0595,4.0602,4.0736,4.0807,4.0818,4.0958,4.0996,4.1182,4.2992,4.4696,4.6125,4.6244,4.6308,4.6306,0.0,0.0,0.0,0.0,0.0,0.0,0.0,0.0,0.0,0.0,0.0,0.0,0.0,0.0,0.0,0.0,0.0,0.0,0.0,2.4294,2.4303,2.4339,2.5864,2.6723,2.6763,2.8421,2.9262,2.924,2.9156,2.9096,2.9005,2.9005,2.8952,2.8905,2.8834,2.8761,2.8694,2.8637,2.86,2.86,2.86,2.86,0.0,0.0,0.0,0.0,0.0,0.0,0.0,0.0,2.6989,2.7532,2.8346,2.86,2.86,2.86,2.86,2.8708,2.921,3.0152,3.1125,3.1618,3.2578,3.3411,3.3437,3.3847,3.436,3.4692,3.5875,3.7134,0.0,0.0,0.0,0.0,0.0,0.0,0.0,0.0,0.0,0.0,0.0,0.0,0.0,0.0,0.0,0.0,0.0,0.0,0.0,0.0,0.0,0.0,0.0,4.5022,4.5103,4.3479,4.2704,4.2785,4.1176,4.0415,4.0441,4.0542,4.0595,4.0602,4.0736,4.0807,4.0818,4.0945,4.1003,4.1179,4.2989,4.4768,4.6291,4.63,4.6307,4.6308,0.0,0.0,0.0,0.0,0.0,0.0,0.0,0.0,0.0,0.0,0.0,0.0,0.0,0.0,0.0,0.0,0.0,0.0,2.4266,2.4266,2.4275,2.4266,2.5575,2.6423,2.6692,2.8046,2.8887,2.9167,2.9089,2.9051,2.9005,2.9005,2.894,2.887,2.8822,2.8749,2.8675,2.8625,2.86,2.86,2.86,2.86,0.0,0.0,0.0,0.0,0.0,0.0,0.0,0.0,2.6519,2.7145,2.8211,2.8536,2.8536,2.8536,2.8549,2.8737,2.9546,3.0355,3.1197,3.1999,3.2795,3.3465,3.3719,3.4238,3.4737,3.5021,3.6468,3.7885,3.8582,0.0,0.0,0.0,0.0,0.0,0.0,0.0,0.0,0.0,0.0,0.0,0.0,0.0,0.0,0.0,0.0,0.0,0.0,0.0,0.0,0.0,0.0,4.5026,4.5103,4.3501,4.2733,4.2775,4.1167,4.0407,4.0396,4.0534,4.0595,4.0621,4.0744,4.0796,4.0812,4.0927,4.131,4.1956,4.3209,4.4762,4.6302,4.6295,4.6305,4.6308,0.0,0.0,0.0,0.0,0.0,0.0,0.0,0.0,0.0,0.0,0.0,0.0,0.0,0.0,0.0,0.0,0.0,0.0,2.419,2.419,2.419,2.4201,2.4972,2.5817,2.6686,2.7434,2.8224,2.9089,2.904,2.9005,2.9005,2.9005,2.8935,2.8798,2.8798,2.8724,2.86,2.86,2.86,2.86,2.86,2.86,2.8419,0.0,0.0,0.0,0.0,0.0,0.0,0.0,2.6063,2.6278,2.789,2.8411,2.8411,2.8411,2.8445,2.8673,2.9485,3.0333,3.1184,3.1999,3.2814,3.361,3.4425,3.4624,3.4857,3.5745,3.7304,3.8525,3.8673,3.8707,0.0,0.0,0.0,0.0,0.0,0.0,0.0,0.0,0.0,0.0,0.0,0.0,0.0,0.0,0.0,0.0,0.0,0.0,0.0,0.0,0.0,0.0,4.5084,4.3501,4.2733,4.2775,4.1167,4.0407,4.0396,4.0534,4.0595,4.0621,4.0739,4.0798,4.0812,4.0869,4.196,4.3591,4.3663,4.4762,4.6282,4.629,4.6301,4.6307,0.0,0.0,0.0,0.0,0.0,0.0,0.0,0.0,0.0,0.0,0.0,0.0,0.0,0.0,0.0,0.0,0.0,0.0,2.4141,2.417,2.4199,2.419,2.498,2.5788,2.6615,2.7952,2.8778,2.904,2.9017,2.9005,2.9005,2.894,2.8881,2.8798,2.8749,2.8687,2.86,2.86,2.86,2.86,2.86,2.86,2.8406,0.0,0.0,0.0,0.0,0.0,0.0,0.0,0.0,0.0,2.789,2.8411,2.8411,2.8411,2.8406,2.8725,3.0106,3.066,3.1192,3.2621,3.3141,3.3554,3.441,3.5025,3.5854,3.7291,3.8041,3.8446,3.8544,0.0,0.0,0.0,0.0,0.0,0.0,0.0,0.0,0.0,0.0,0.0,0.0,0.0,0.0,0.0,0.0,0.0,0.0,0.0,0.0,0.0,4.5003,4.4787,4.4189,4.3238,4.2468,4.1858,4.088,4.0407,4.0396,4.0543,4.0605,4.0595,4.0694,4.0761,4.0818,4.0926,4.1653,4.2755,4.3389,4.4314,4.5404,4.6066,4.6294,4.6305,0.0,0.0,0.0,0.0,0.0,0.0,0.0,0.0,0.0,0.0,2.3937,2.3966,0.0,0.0,0.0,0.0,0.0,0.0,0.0,2.4094,2.4113,2.4113,2.4599,2.5358,2.6493,2.7782,2.8606,2.8923,2.897,2.8994,2.8952,2.8917,2.8858,2.8761,2.8706,2.8657,2.86,2.86,2.86,2.86,2.8574,2.8562,2.8417,0.0,0.0,0.0,0.0,0.0,0.0,0.0,0.0,0.0,2.7798,2.8318,2.8318,2.8318,2.8345,2.8712,3.0323,3.0787,3.1193,3.2817,3.3262,3.3614,3.4811,0.0,0.0,0.0,3.8338,3.8401,3.8478,0.0,0.0,0.0,0.0,0.0,0.0,0.0,0.0,0.0,0.0,0.0,0.0,0.0,0.0,0.0,0.0,0.0,0.0,0.0,0.0,0.0,4.5026,4.4684,4.3808,4.3144,4.2354,4.1485,4.0746,4.0407,4.0396,4.0546,4.0591,4.0621,4.0694,4.0754,4.0818,4.093,4.1513,4.2385,4.3254,4.4125,4.5002,4.5956,4.6306,4.63,0.0,0.0,2.3793,2.3793,0.0,0.0,0.0,0.0,0.0,0.0,2.3855,2.3886,0.0,0.0,0.0,0.0,0.0,0.0,0.0,2.3996,2.3996,2.3996,2.4069,2.478,2.6268,2.715,2.7971,2.8688,2.8899,2.894,2.8893,2.8875,2.8822,2.8694,2.8682,2.8662,2.86,2.86,2.8587,2.8587,2.8518,2.851,2.8407,2.7507,0.0,0.0,0.0,0.0,0.0,0.0,0.0,0.0,2.7714,2.8196,2.8196,2.8196,2.825,2.864,3.0252,3.0726,3.1146,3.2691,3.3306,0.0,3.5444,3.6472,3.7319,3.8129,0.0,3.8356,0.0,0.0,0.0,0.0,0.0,0.0,0.0,0.0,0.0,0.0,0.0,0.0,0.0,0.0,0.0,0.0,0.0,0.0,0.0,0.0,0.0,0.0,4.495,4.457,4.3694,4.303,4.224,0.0,4.0727,4.0407,4.0388,4.0527,4.0591,4.0602,4.073,4.0807,4.0812,4.0936,4.1462,4.2284,4.3221,4.4075,4.4902,4.5928,4.6296,4.6293,0.0,0.0,2.3721,2.3721,0.0,0.0,0.0,0.0,0.0,0.0,0.0,0.0,0.0,0.0,0.0,0.0,0.0,0.0,0.0,2.3976,2.3996,2.3996,2.4616,2.5098,2.5455,2.6877,2.7679,2.7861,2.8512,2.8852,2.8822,2.8773,2.8718,2.8694,2.865,2.8612,2.86,2.86,2.8574,2.8505,2.8523,2.8471,2.8334,2.7443,2.7005,0.0,0.0,0.0,0.0,0.0,0.0,0.0,2.7892,2.8196,2.8196,2.8196,2.8209,2.8562,3.013,3.054,3.0963,3.2616,3.4103,3.5291,3.565,3.6874,3.7991,3.8189,3.8257,0.0,0.0,0.0,0.0,0.0,0.0,0.0,0.0,0.0,0.0,0.0,0.0,0.0,0.0,0.0,0.0,0.0,0.0,0.0,0.0,0.0,0.0,4.4895,4.4368,4.3694,4.2865,4.2142,4.1361,0.0,4.0459,4.0407,4.0388,4.0476,4.0549,4.0621,4.0745,4.0804,4.0812,4.0893,4.1056,4.1428,4.2992,4.3705,4.407,4.564,4.6247,4.6305,0.0,0.0,0.0,0.0,0.0,0.0,0.0,0.0,0.0,0.0,0.0,0.0,0.0,0.0,0.0,0.0,0.0,0.0,0.0,0.0,2.3907,2.3907,2.4307,2.4714,2.5096,2.5932,2.6731,2.7495,2.7931,2.8343,2.8749,2.8724,2.8682,2.865,2.8612,2.8574,2.8549,2.8549,2.8523,2.8445,2.8419,2.8393,2.8304,2.7812,2.7388,2.6994,2.6545,0.0,0.0,0.0,0.0,0.0,0.0,0.0,2.8196,2.8196,2.8196,2.8534,3.0068,3.0496,3.0901,3.2585,0.0,3.5593,3.569,3.6949,3.8122,3.8192,0.0,0.0,0.0,0.0,0.0,0.0,0.0,0.0,0.0,0.0,0.0,0.0,0.0,0.0,0.0,0.0,0.0,0.0,0.0,0.0,0.0,4.4815,4.4688,4.4345,4.3981,4.3219,4.199,4.1665,4.1094,4.0301,4.0363,4.0413,4.0444,4.0512,4.0571,4.0621,4.0739,4.0798,4.0812,4.0873,4.0936,4.1178,4.2914,4.3607,4.3818,4.5568,4.6233,4.6294,0.0,0.0,0.0,0.0,0.0,0.0,0.0,0.0,0.0,0.0,0.0,0.0,0.0,0.0,0.0,0.0,0.0,0.0,0.0,0.0,0.0,2.3803,2.3795,2.4103,2.4773,2.4936,2.566,2.6989,2.7248,2.7755,2.8469,2.8615,2.865,2.8587,2.8587,2.8549,2.8479,2.8479,2.8445,2.8367,2.8313,2.8286,2.8273,2.8223,2.7799,2.721,2.721,2.6782,2.6318,2.6978,0.0,0.0,0.0,0.0,2.8196,2.8196,2.8196,2.8534,3.0068,3.0707,3.1258,3.2641,3.4194,0.0,3.5624,3.6882,3.8036,0.0,0.0,0.0,0.0,0.0,0.0,0.0,0.0,0.0,0.0,0.0,0.0,0.0,0.0,0.0,0.0,0.0,0.0,0.0,0.0,0.0,4.4699,4.4757,4.4461,4.372,4.3627,4.2857,4.1324,4.1303,4.096,4.0301,4.0363,4.0438,4.0496,4.0579,4.0595,4.0614,4.0732,4.0792,4.0812,4.0867,4.0932,4.1166,4.2739,4.3475,4.378,4.5397,4.6103,4.6282,0.0,0.0,0.0,0.0,0.0,0.0,0.0,0.0,0.0,0.0,2.3607,2.3641,0.0,0.0,0.0,0.0,0.0,0.0,2.3711,0.0,0.0,2.3797,2.3792,2.385,2.3958,2.4646,2.5117,2.5316,2.6652,2.738,2.7501,2.8261,2.8574,2.8505,2.8505,2.8484,2.8406,2.8406,2.8367,2.8313,2.83,2.8277,2.8209,2.8196,2.8142,2.8035,2.8035,2.7964,2.7892,2.7999,2.8035,0.0,0.0,0.0,2.8196,2.8196,2.8196,2.8534,3.0068,3.151,3.2632,0.0,3.4162,3.5426,0.0,0.0,3.8036,0.0,0.0,0.0,0.0,0.0,0.0,0.0,0.0,0.0,0.0,0.0,0.0,0.0,0.0,0.0,0.0,0.0,0.0,0.0,0.0,0.0,4.4699,4.4757,4.4461,4.372,4.3095,4.2294,4.1305,4.0749,4.0416,4.0301,4.0363,4.0438,4.0496,4.0579,4.0595,4.0614,4.0733,4.0794,4.0807,4.0812,4.0883,4.1107,4.2097,4.2938,4.3723,4.4712,4.5565,4.6215,0.0,0.0,0.0,0.0,0.0,0.0,0.0,0.0,0.0,0.0,0.0,2.3505,0.0,0.0,0.0,2.3596,2.3611,2.3663,2.37,2.3721,2.3732,2.3732,2.3736,2.3728,2.3728,2.4089,2.4486,2.4937,2.6039,2.6789,2.7252,2.8093,2.8471,2.8445,2.8445,2.8406,2.834,2.834,2.8318,2.825,2.825,2.8223,2.8196,2.8196,2.8196,2.8196,2.8196,2.8196,2.8196,2.8196,2.8196,2.8196,2.8196,0.0,0.0,0.0,2.8196,2.8534,3.0068,3.1671,3.29,0.0,3.4095,3.5324,3.5425,0.0,0.0,0.0,0.0,0.0,0.0,0.0,0.0,0.0,0.0,0.0,0.0,0.0,0.0,0.0,0.0,0.0,0.0,0.0,0.0,0.0,0.0,4.439,4.4057,4.4058,4.3535,4.2344,4.202,4.1476,4.0639,4.0406,4.031,4.0364,4.0389,4.0438,4.0496,4.0569,4.0612,4.0614,4.0746,4.0802,4.0804,4.0801,4.0858,4.1024,4.19,4.2805,4.3701,4.4588,4.5449,4.6206,0.0,0.0,0.0,0.0,0.0,0.0,0.0,0.0,0.0,0.0,0.0,0.0,0.0,0.0,0.0,0.0,2.3517,2.3585,2.3645,2.3674,2.3667,2.3667,2.3689,2.37,2.37,2.37,2.3988,2.4599,2.5326,2.6104,2.6901,2.7671,2.8143,2.8358,2.8384,2.834,2.8273,2.8273,2.825,2.8196,2.8196,2.8196,2.8196,2.8196,2.8196,2.8196,2.8196,2.8196,0.0,0.0,0.0,0.0,0.0,0.0,0.0,0.0,0.0,2.9034,3.019,0.0,3.29,3.29,3.3919,3.5006,0.0,0.0,0.0,0.0,0.0,0.0,0.0,0.0,0.0,0.0,0.0,0.0,0.0,0.0,0.0,0.0,0.0,0.0,0.0,0.0,0.0,0.0,0.0,4.3987,4.3516,4.3284,4.2554,4.1245,4.126,4.0906,4.0106,4.0234,4.0337,4.0407,4.0407,4.0438,4.0496,4.0573,4.0591,4.0614,4.0713,4.0784,4.08,4.0796,4.0842,4.0965,4.163,4.257,4.3657,4.4328,4.5253,4.6193,0.0,0.0,0.0,0.0,0.0,0.0,0.0,0.0,0.0,0.0,0.0,0.0,2.3301,2.3313,2.3336,2.3395,2.3407,2.3448,2.3517,2.3573,2.3607,2.3607,2.3674,0.0,2.37,2.37,2.3718,2.3754,2.4502,2.5237,2.5977,2.6731,2.7491,2.8209,2.8273,2.8277,2.8196,2.8196,2.8196,2.8196,2.8196,2.8196,2.8196,2.8196,2.8196,2.8196,2.8196,0.0,0.0,0.0,0.0,0.0,0.0,0.0,0.0,0.0,0.0,0.0,0.0,3.1671,0.0,3.29,3.3526,3.4382,0.0,0.0,0.0,0.0,0.0,0.0,0.0,0.0,0.0,0.0,0.0,0.0,0.0,0.0,0.0,0.0,0.0,0.0,0.0,0.0,0.0,0.0,0.0,4.3399,4.351,4.2731,4.1942,4.1226,4.126,4.0906,4.0106,4.0234,4.0337,4.0407,4.0407,4.0438,4.0496,4.0573,4.0591,4.0595,4.0668,4.0739,4.08,4.0796,4.0842,4.0907,4.1023,4.2056,4.3519,4.3623,4.4748,4.6197,0.0,0.0,0.0,0.0,0.0,0.0,0.0,0.0,0.0,0.0,0.0,0.0,0.0,2.3277,2.3313,2.3336,2.3336,2.3348,2.336,2.343,2.3471,2.3471,2.3539,2.3567,2.3567,2.3567,2.3567,2.3567,2.4349,2.5111,2.5843,2.66,2.7375,2.814,2.8209,2.8223,2.8213,2.8154,2.814,2.8126,2.8085,2.8071,2.8071,2.8071,2.8071,0.0,0.0,0.0,0.0,0.0,0.0,0.0,0.0,0.0,0.0,0.0,2.9226,3.0451,0.0,0.0,0.0,3.29,3.3491,3.4311,0.0,0.0,0.0,0.0,0.0,0.0,0.0,0.0,0.0,0.0,0.0,0.0,0.0,0.0,0.0,0.0,0.0,0.0,0.0,0.0,0.0,0.0,0.0,0.0,4.1926,4.1599,4.1099,4.0393,4.0463,4.0422,4.0225,4.0282,4.0337,4.0407,4.0407,4.0438,4.0496,4.0531,4.0549,4.0595,4.0621,4.0707,4.0796,4.08,4.0815,4.0842,4.0903,4.1985,4.349,4.3527,4.4634,4.6134,0.0,0.0,0.0,0.0,0.0,0.0,0.0,0.0,0.0,2.3767,0.0,0.0,0.0,0.0,2.3912,2.3701,2.343,2.3301,2.3301,2.3336,2.336,2.336,2.3407,2.343,2.343,2.343,2.343,2.343,2.3963,2.4746,2.573,2.6224,2.7045,2.8071,2.8112,2.8126,2.8126,2.8085,2.8071,2.8071,2.8028,2.8014,2.8014,2.8014,0.0,0.0,0.0,0.0,0.0,0.0,0.0,0.0,0.0,0.0,0.0,0.0,0.0,3.0404,3.0448,0.0,0.0,0.0,3.3311,3.3901,0.0,0.0,0.0,0.0,0.0,0.0,0.0,0.0,0.0,0.0,0.0,0.0,0.0,0.0,0.0,0.0,0.0,0.0,0.0,0.0,0.0,0.0,0.0,0.0,4.1021,4.0719,4.0374,3.9951,4.0036,4.0157,4.0263,4.0291,4.0337,4.0407,4.0407,4.0438,4.0496,4.0496,4.0534,4.0593,4.0607,4.0674,4.0797,4.0808,4.0792,4.0815,4.0872,4.1956,4.3467,4.3486,4.4588,4.6108,0.0,0.0,0.0,0.0,0.0,0.0,0.0,0.0,2.4385,2.5101,0.0,0.0,0.0,0.0,0.0,2.4486,2.3777,2.336,2.336,2.3354,2.3336,2.3336,2.3318,2.3301,2.3301,2.3301,2.3301,2.3301,2.3301,2.4097,2.5605,2.5605,2.645,2.8,2.7982,2.7982,2.7982,2.8,2.8,2.8,2.7982,2.8,2.8035,0.0,0.0,0.0,2.8053,2.8053,0.0,2.8053,0.0,0.0,0.0,0.0,0.0,0.0,0.0,3.0424,0.0,0.0,0.0,0.0,0.0,0.0,3.3919,0.0,0.0,0.0,0.0,0.0,0.0,0.0,0.0,0.0,0.0,0.0,0.0,0.0,0.0,0.0,0.0,0.0,0.0,0.0,0.0,0.0,0.0,4.081,4.0945,4.0153,3.9792,3.9996,4.0067,4.0137,4.0196,4.0263,4.0328,4.0407,4.0407,4.0438,4.0496,4.0496,4.0531,4.0607,4.0593,4.0674,4.0797,4.0802,4.0794,4.08,4.0881,4.1916,4.3402,4.3471,4.4598,4.61,0.0,0.0,0.0,0.0,0.0,2.4576,2.4858,2.4906,2.4976,0.0,0.0,0.0,2.523,2.5296,2.5246,2.508,2.4906,2.4809,2.4809,2.4363,2.41,2.41,2.3577,2.3301,2.3301,2.3301,2.3301,2.3301,2.3301,2.4097,2.5605,2.5548,2.64,2.7932,2.7839,2.7774,2.7792,2.7885,2.7932,2.7917,2.7821,2.8126,0.0,0.0,0.0,0.0,0.0,2.9519,2.9519,0.0,2.9519,2.9519,0.0,0.0,2.9534,0.0,0.0,3.1085,3.1231,0.0,0.0,0.0,0.0,0.0,3.3919,3.4703,0.0,0.0,0.0,0.0,0.0,0.0,0.0,0.0,0.0,0.0,0.0,0.0,0.0,0.0,0.0,0.0,0.0,0.0,0.0,0.0,4.0274,3.9921,4.0056,3.9875,3.9837,3.9996,4.0067,4.0137,4.0196,4.0263,4.0319,4.0325,4.037,4.0441,4.0507,4.05,4.0531,4.0607,4.0603,4.0646,4.0739,4.0771,4.0796,4.08,4.0818,4.1887,4.3402,4.3419,4.4528,4.6025,0.0,0.0,2.4353,2.4919,2.502,2.5138,2.5522,2.5588,2.5692,0.0,0.0,0.0,2.6159,2.5903,2.5722,2.5722,2.5471,2.531,2.531,2.4971,2.4778,2.4778,2.439,2.4028,2.3723,2.3723,2.3546,2.3217,2.3546,2.434,2.5526,2.5821,2.6616,2.781,2.7716,2.7701,2.7716,2.778,2.7827,0.0,2.8085,0.0,0.0,2.9281,2.9702,0.0,0.0,0.0,3.0106,3.0106,3.0106,0.0,0.0,0.0,0.0,0.0,0.0,3.1323,3.1437,3.212,3.2805,0.0,0.0,0.0,3.3491,3.4187,3.5022,0.0,0.0,0.0,0.0,0.0,0.0,0.0,0.0,0.0,0.0,0.0,0.0,0.0,0.0,0.0,0.0,0.0,0.0,4.0083,3.9718,3.9571,3.9679,3.9766,3.9848,3.9954,4.0046,4.0127,4.0157,4.0253,4.0291,4.0307,4.037,4.0432,4.0502,4.0492,4.0523,4.0565,4.058,4.061,4.066,4.07,4.0739,4.0802,4.0794,4.1645,4.2908,4.3269,4.4275,4.5514,0.0,0.0,2.4906,2.5099,2.5131,2.5367,2.6098,2.6199,2.6458,0.0,2.7329,2.7407,2.7465,2.6854,2.642,2.642,2.5828,2.5463,2.5463,2.5429,2.5401,2.5401,2.5386,2.5076,2.4405,2.4388,2.4042,2.3328,2.4042,2.4774,2.5515,2.6234,2.697,2.7672,2.7672,2.7672,2.7672,2.7774,0.0,2.7847,2.8599,2.9,0.0,0.0,3.0282,3.0369,3.0369,3.0369,3.0369,3.0369,3.0369,0.0,0.0,0.0,0.0,0.0,3.0857,3.1432,3.143,3.2092,3.2773,0.0,0.0,0.0,3.29,3.3508,3.4343,0.0,0.0,0.0,0.0,0.0,0.0,0.0,0.0,0.0,0.0,0.0,0.0,0.0,0.0,0.0,0.0,3.9101,3.9242,3.9391,3.9469,3.9564,3.9689,3.9758,3.9815,3.99,4.0026,4.0087,4.0106,4.0225,4.0281,4.0298,4.0362,4.0424,4.0493,4.0503,4.0489,4.0496,4.0565,4.058,4.0607,4.0612,4.0668,4.0784,4.0796,4.1311,4.2194,4.3077,4.3941,4.4814,2.5541,2.5676,2.5864,2.6478,2.6596,2.663,2.68,2.6817,2.6869,2.7039,2.712,2.72,2.7329,2.7253,2.7197,2.7197,2.7102,2.7061,2.7061,2.6466,2.6098,2.6098,2.5558,2.5174,2.5035,2.5018,2.4948,2.4795,2.4948,2.5401,2.613,2.6286,2.6775,2.7539,2.7539,2.7539,2.7592,2.8169,0.0,2.8448,2.8763,0.0,3.0756,3.0931,3.1388,3.1949,3.1949,3.1949,3.1949,3.1949,3.1949,3.1949,0.0,0.0,0.0,0.0,0.0,0.0,0.0,0.0,0.0,0.0,0.0,0.0,3.29,3.3508,3.4166,0.0,0.0,0.0,0.0,0.0,0.0,0.0,0.0,0.0,0.0,0.0,0.0,0.0,0.0,0.0,0.0,3.9059,3.9202,3.9391,3.9502,3.9626,3.9689,3.9705,3.9762,3.99,3.9975,4.0046,4.0106,4.0176,4.0253,4.0301,4.0317,4.0342,4.0424,4.0474,4.0495,4.0496,4.0504,4.0539,4.0607,4.0595,4.0631,4.0635,4.0707,4.1242,4.2137,4.3002,4.3866,4.4737,2.6213,2.6298,2.6434,2.6874,2.6959,2.6959,2.6991,2.6991,2.6991,2.6991,2.704,2.7088,2.7138,2.7186,2.7201,2.7249,2.7279,2.7341,2.739,2.7039,2.6846,2.6846,2.6527,2.6159,2.5759,2.5741,2.5567,2.5188,2.5567,2.5933,2.6312,2.6713,2.7113,2.7496,2.7496,2.7496,2.7548,2.8296,2.882,2.9236,2.9701,0.0,3.1095,3.1515,3.1899,3.2249,3.2249,3.2267,3.2301,3.2301,3.2354,0.0,0.0,3.2406,3.2406,0.0,3.2406,3.2423,0.0,0.0,0.0,3.2673,0.0,0.0,0.0,3.3221,3.363,0.0,0.0,0.0,0.0,0.0,0.0,0.0,0.0,0.0,0.0,0.0,0.0,0.0,0.0,0.0,0.0,3.9031,3.9188,3.9373,3.9514,3.9626,3.9691,3.9689,3.9747,3.9856,3.9954,4.0017,4.0106,4.0166,4.0225,4.0301,4.0299,4.0316,4.0362,4.0424,4.0474,4.0503,4.0503,4.0527,4.0539,4.0539,4.0554,4.0564,4.0614,4.0924,4.1472,4.276,4.3535,4.407,2.6657,2.6674,2.6708,2.6809,2.6842,2.6876,2.6942,2.7061,2.7214,2.7367,2.7401,2.7401,2.7418,2.7418,2.7451,2.7499,2.7499,2.7549,2.7664,2.7575,2.7554,2.7552,2.7475,2.7122,2.6512,2.6494,2.6202,2.5597,2.6202,2.6494,2.6512,2.7154,2.745,2.745,2.745,2.7537,2.7728,0.0,0.0,3.0056,0.0,3.1098,3.1203,3.1864,3.209,3.2108,3.2265,3.2265,3.2196,3.2354,0.0,3.2336,3.2354,3.2354,0.0,0.0,0.0,0.0,0.0,0.0,0.0,0.0,0.0,3.2805,0.0,0.0,0.0,0.0,0.0,0.0,0.0,0.0,0.0,0.0,0.0,0.0,0.0,0.0,0.0,0.0,0.0,0.0,0.0,3.8716,3.896,3.913,3.9427,3.962,3.9693,3.9703,3.9724,3.9804,3.9922,4.0007,4.0077,4.0157,4.0206,4.0272,4.029,4.0298,4.0307,4.0362,4.0424,4.0485,4.0485,4.0471,4.0484,4.0484,4.0484,4.05,4.0564,4.06,4.0812,4.2555,4.3199,4.345,2.652,2.6555,2.6623,2.6623,2.6691,2.6742,2.6725,2.7283,2.7978,2.8762,2.8864,2.8883,2.8937,2.8955,2.8955,2.8972,2.8972,0.0,2.8972,0.0,2.8048,2.8115,2.7495,2.7148,2.7192,2.7192,2.7158,2.7072,2.7158,2.7192,2.7192,2.7279,2.7313,2.7313,2.7313,2.7693,2.8349,0.0,2.9868,0.0,3.1405,3.1808,0.0,3.2073,3.209,3.2195,3.2839,3.2665,3.2213,0.0,3.2666,3.2144,0.0,3.2214,3.2249,0.0,0.0,0.0,0.0,0.0,0.0,0.0,3.2658,0.0,0.0,0.0,0.0,0.0,0.0,0.0,0.0,0.0,0.0,0.0,0.0,0.0,0.0,0.0,0.0,0.0,0.0,0.0,0.0,0.0,3.8175,3.8233,3.902,3.9571,3.9693,3.9703,3.9724,3.9804,3.9878,3.9943,4.0007,4.0077,4.0147,4.0206,4.0272,4.03,4.0307,4.0316,4.0353,4.0415,4.0415,4.0415,4.0405,4.0405,4.0405,4.0422,4.055,4.0595,4.0815,4.2567,4.3199,4.345,2.6468,2.652,2.6537,2.6537,2.6555,2.6724,2.711,2.7851,2.8512,2.8869,2.8993,2.9065,2.9084,0.0,0.0,0.0,0.0,2.9157,0.0,0.0,2.875,2.8784,0.0,0.0,2.7756,2.7328,2.7122,2.7122,2.7122,2.7122,2.7122,2.7122,2.7122,2.7139,2.7649,0.0,2.8422,0.0,3.0386,0.0,0.0,0.0,0.0,3.2084,3.2188,3.2673,3.3434,3.3542,3.3373,0.0,3.3617,0.0,0.0,0.0,0.0,0.0,0.0,0.0,0.0,0.0,0.0,0.0,0.0,0.0,3.2773,0.0,3.2836,0.0,0.0,0.0,0.0,0.0,0.0,0.0,0.0,0.0,0.0,0.0,0.0,0.0,0.0,0.0,0.0,0.0,0.0,0.0,0.0,3.8783,3.8881,3.9392,3.9715,3.9735,3.9804,3.9881,3.9996,4.0036,4.0077,4.0147,4.0206,4.0234,4.0244,4.0291,4.0327,4.0334,4.0334,4.0362,4.0407,4.0407,4.0407,4.0415,4.0455,4.0471,4.0633,4.1868,4.2626,4.3203,2.638,2.6433,2.6451,2.6451,2.6618,2.707,2.7955,2.8632,2.9124,2.9343,0.0,0.0,2.9527,2.9527,0.0,0.0,2.9622,2.9659,0.0,0.0,2.9447,0.0,0.0,0.0,0.0,0.0,2.7298,2.7298,2.7093,2.6991,2.6991,2.6991,2.711,2.7315,2.7946,2.8476,2.8956,0.0,3.0745,3.0969,3.1484,3.2154,3.2792,3.2522,3.2748,3.3335,3.4111,3.4308,3.4194,3.4419,3.4406,0.0,3.4328,0.0,0.0,0.0,0.0,0.0,3.3773,0.0,0.0,0.0,0.0,0.0,0.0,0.0,0.0,0.0,0.0,0.0,0.0,0.0,0.0,3.3367,0.0,0.0,0.0,0.0,0.0,0.0,0.0,0.0,0.0,0.0,0.0,0.0,3.7355,3.7959,3.8264,3.8961,3.9453,3.9696,3.9777,3.9848,3.9954,3.9986,4.0017,4.0067,4.0147,4.0176,4.0176,4.0225,4.0253,4.0271,4.0271,4.0308,4.0372,4.0372,4.0363,4.0354,4.0354,4.0326,4.0432,4.1356,4.2198,4.3023,2.622,2.6276,2.6313,2.6313,2.695,2.7955,0.0,0.0,0.0,0.0,0.0,0.0,0.0,0.0,0.0,0.0,0.0,3.0988,3.1123,0.0,3.0095,0.0,0.0,2.9104,0.0,0.0,0.0,2.8049,2.7349,2.6991,2.6991,2.6991,2.7384,2.8066,2.8101,2.8955,3.0337,3.0388,3.0815,3.1483,3.15,3.1961,3.2715,0.0,3.4044,3.4165,3.4887,0.0,0.0,3.4941,3.47,0.0,0.0,0.0,0.0,0.0,0.0,0.0,0.0,0.0,0.0,3.4636,0.0,0.0,0.0,0.0,3.503,0.0,0.0,0.0,0.0,0.0,3.331,3.3292,3.3408,0.0,0.0,0.0,0.0,0.0,0.0,0.0,0.0,0.0,0.0,3.5634,3.6441,3.7306,3.8165,3.8355,3.8839,3.9656,3.9785,3.9804,3.9804,3.9943,3.9996,3.9996,4.0067,4.0087,4.0087,4.0117,4.0147,4.0206,4.0206,4.0244,4.031,4.031,4.0263,4.0206,4.0206,4.0166,4.0242,4.1302,4.2198,4.3023,2.7402,2.7405,2.7333,2.7018,0.0,0.0,0.0,2.9992,0.0,0.0,0.0,0.0,0.0,3.2273,3.2294,0.0,0.0,3.2337,3.2379,3.1745,0.0,0.0,0.0,2.9685,0.0,0.0,0.0,0.0,2.8455,2.8319,2.8319,2.8319,2.8472,2.8727,2.9256,2.9785,0.0,0.0,0.0,0.0,0.0,3.343,3.4168,0.0,0.0,3.4802,3.5576,3.5742,0.0,3.5835,3.5766,3.5563,3.5583,3.5604,3.5624,3.576,3.5439,0.0,0.0,0.0,3.4577,3.4577,0.0,0.0,0.0,0.0,0.0,0.0,0.0,0.0,0.0,0.0,3.381,3.3367,3.3382,3.3452,0.0,0.0,0.0,0.0,0.0,0.0,0.0,0.0,0.0,3.474,3.5546,3.6204,0.0,3.7652,3.8444,3.8839,3.9421,3.9738,3.9735,3.9815,3.9859,3.9859,3.9975,4.0017,4.0046,4.0077,4.0117,4.0137,4.0137,4.0147,4.0166,4.0166,4.0157,4.0137,4.0137,4.0127,4.0212,4.1101,4.198,4.2896,2.801,2.8207,0.0,0.0,0.0,0.0,0.0,0.0,0.0,0.0,3.2024,0.0,3.285,0.0,3.29,0.0,3.2961,3.2983,3.3009,3.2591,0.0,3.2408,3.1291,0.0,0.0,0.0,0.0,0.0,0.0,2.892,2.892,2.8975,2.9145,2.9397,2.9927,3.0321,3.0592,0.0,3.1538,0.0,0.0,3.4316,0.0,0.0,3.5237,3.5419,0.0,3.6148,3.6195,3.6195,3.6216,3.6255,3.6255,3.628,3.6322,3.6402,3.6098,3.574,3.5838,3.5573,0.0,3.5306,3.5381,0.0,3.5553,0.0,0.0,0.0,0.0,0.0,0.0,0.0,3.4451,3.3772,3.3704,3.3704,0.0,3.3577,0.0,0.0,0.0,0.0,0.0,0.0,3.4136,3.4221,3.479,3.5298,0.0,0.0,3.7928,3.8317,3.9168,3.9656,3.9703,3.9735,3.977,3.977,3.9889,3.9933,3.9933,4.0005,4.0046,4.0067,4.0067,4.0077,4.0106,4.0106,4.0096,4.0057,4.0036,4.0015,4.01,4.098,4.2026,4.3171,2.8089,2.8661,0.0,0.0,2.8986,0.0,0.0,0.0,3.1643,0.0,3.231,3.2762,3.2779,3.2796,3.2857,3.3001,3.3001,0.0,3.3083,3.3071,0.0,0.0,3.239,3.2043,3.2064,0.0,0.0,0.0,0.0,2.891,2.891,2.9021,2.9482,3.014,3.014,0.0,3.1207,3.1241,3.1698,3.253,3.3952,3.4506,3.4624,3.5329,3.5756,3.5975,3.5997,3.5997,3.5997,3.5997,3.6062,3.6187,3.6187,3.6233,3.628,3.6301,3.6381,3.6482,3.6502,3.6602,3.6722,3.6768,0.0,0.0,0.0,0.0,3.7108,0.0,0.0,0.0,0.0,0.0,0.0,3.4469,3.4369,3.4204,3.359,0.0,0.0,0.0,0.0,0.0,0.0,3.4023,3.4086,3.4099,3.4221,3.4647,0.0,0.0,3.7287,3.8109,3.9014,3.9564,3.9681,3.9684,3.9689,3.9689,3.9758,3.9792,3.9804,3.9867,3.9922,3.9986,3.9986,4.0026,4.0067,4.0067,4.0046,3.9975,3.9911,3.9894,4.0023,4.0984,4.2378,4.3848,2.9415,2.9588,2.9897,0.0,3.0598,3.0882,0.0,0.0,0.0,0.0,3.3185,3.3568,3.4129,3.4289,3.4359,3.4383,3.4399,0.0,0.0,0.0,0.0,3.3745,3.3045,3.2689,3.2742,3.1876,0.0,3.1407,0.0,0.0,3.0362,3.0401,3.0502,3.0687,3.0687,3.0804,3.1026,3.1625,3.2684,3.3964,3.4336,3.4827,0.0,0.0,3.5644,3.5711,3.5817,3.5927,3.5997,3.5997,3.6019,3.6041,3.6041,3.6062,3.6105,3.6208,3.6251,3.6293,3.6339,3.6444,3.6544,3.6585,3.6647,3.6745,0.0,0.0,0.0,0.0,0.0,0.0,0.0,0.0,0.0,3.523,3.4715,3.4158,0.0,0.0,0.0,3.3549,0.0,0.0,0.0,3.3934,3.3972,3.4023,3.4099,0.0,0.0,0.0,0.0,3.7231,3.8658,3.9464,3.9546,3.9564,3.9594,3.9698,3.972,3.9724,3.9724,3.9735,3.9758,3.977,3.977,3.98,3.9792,3.9792,3.9781,3.977,3.9758,4.0502,4.1635,4.186,4.3013,4.4467,2.9896,3.0184,0.0,3.1359,0.0,0.0,3.1755,0.0,0.0,3.335,3.3766,0.0,3.5013,3.5161,3.5325,3.5638,3.5721,0.0,3.5323,0.0,0.0,3.4413,3.3682,3.3306,3.3339,3.2662,0.0,3.2317,0.0,0.0,3.1278,3.1022,3.0892,3.0908,3.1227,3.1377,3.1444,3.2542,3.3547,3.4403,3.4723,0.0,0.0,3.5828,3.5946,3.5996,3.6403,3.6463,3.6355,3.6355,3.6581,3.6865,3.6865,3.6904,3.6989,3.7055,3.7077,3.71,3.7192,3.7275,3.7361,3.7486,3.7307,3.713,3.7213,3.7073,3.6911,0.0,0.0,0.0,0.0,0.0,0.0,3.5985,3.5026,0.0,0.0,0.0,0.0,0.0,0.0,0.0,0.0,0.0,0.0,0.0,0.0,0.0,0.0,0.0,0.0,3.682,3.843,3.936,3.9457,3.9458,3.9508,3.9608,3.9613,3.9642,3.9703,3.9708,3.9701,3.9701,3.9701,3.9701,3.9701,3.9701,3.9701,3.9727,4.0056,4.0948,4.2063,4.2406,4.3437,4.4592,3.0172,0.0,0.0,0.0,0.0,0.0,0.0,3.309,0.0,3.363,0.0,3.4898,3.5635,3.5725,3.5971,3.6535,0.0,3.6593,3.5951,3.6001,3.5761,3.5017,3.4395,3.4015,3.3915,3.321,0.0,0.0,0.0,0.0,3.1919,3.1375,3.1136,3.1152,3.1821,0.0,0.0,3.3645,3.4225,3.4398,3.5157,3.5442,3.5525,3.6262,3.6539,3.6623,3.7276,3.7244,3.6924,3.6924,3.7401,3.7986,3.7986,3.8074,3.8167,3.8167,3.8167,3.8213,3.8345,3.8368,3.8414,3.8679,3.8204,3.7746,3.7909,3.7492,3.703,3.6983,3.7108,3.7193,0.0,0.0,0.0,0.0,0.0,0.0,0.0,0.0,0.0,0.0,0.0,0.0,0.0,0.0,0.0,0.0,0.0,0.0,0.0,0.0,0.0,3.666,3.8306,0.0,3.936,0.0,3.9418,3.9482,3.9489,3.9552,3.9657,3.9668,3.9654,3.9654,3.9654,3.9654,3.9654,3.9654,3.9654,3.9736,4.0472,4.1186,4.1885,4.2673,4.36,4.4416,0.0,0.0,0.0,0.0,0.0,3.3251,3.3697,3.39,3.4208,3.4809,3.5089,3.5498,3.6189,3.6375,3.646,3.6584,3.6626,0.0,0.0,0.0,0.0,3.5506,3.5457,3.5144,3.4574,3.3925,3.3607,0.0,0.0,0.0,3.2542,3.2431,3.2365,3.2381,0.0,0.0,3.3667,3.3934,0.0,3.5174,3.5911,3.6212,3.6296,3.7025,3.7309,3.7326,3.746,3.7507,3.7542,3.7542,3.7715,3.7912,3.7912,3.7936,3.7943,3.8027,3.8033,3.8057,3.8213,3.8236,3.8259,3.8414,3.8356,3.8338,3.8577,3.8538,3.8326,3.7868,3.7828,3.7699,3.7193,0.0,0.0,0.0,0.0,0.0,0.0,0.0,0.0,0.0,0.0,0.0,0.0,0.0,0.0,0.0,0.0,0.0,0.0,0.0,0.0,0.0,3.816,0.0,0.0,0.0,3.9301,3.9418,3.9412,3.9425,3.9457,3.9451,3.9451,3.9451,3.9451,3.9451,3.9451,3.9451,3.9451,3.9526,4.0341,4.1077,4.1818,4.256,4.3333,4.4008,0.0,0.0,0.0,0.0,0.0,0.0,0.0,3.4991,0.0,3.5211,3.5604,3.6133,3.6805,3.6923,3.7113,3.7498,3.7611,3.7475,3.71,3.713,3.6872,3.6151,3.6186,0.0,3.5186,3.4897,3.4583,3.4275,0.0,0.0,3.3243,3.2884,3.2702,3.2718,0.0,3.3719,0.0,0.0,0.0,3.5738,3.6463,3.6762,3.6845,3.7594,3.786,3.791,3.8293,3.8529,3.8589,3.8279,3.8471,3.8841,3.8841,3.889,3.894,3.898,3.9037,3.911,3.9248,3.9296,3.932,3.9457,3.9213,3.8968,3.913,3.891,3.8637,3.8447,3.8446,3.829,3.771,3.739,0.0,0.0,0.0,0.0,0.0,0.0,0.0,0.0,0.0,0.0,0.0,0.0,0.0,0.0,0.0,0.0,0.0,0.0,0.0,0.0,0.0,0.0,0.0,0.0,0.0,3.9229,3.9229,3.9288,3.9405,3.9405,3.9405,3.9405,3.9405,3.9405,3.9386,3.9315,3.9261,3.931,4.0537,4.1219,4.1646,4.2791,4.3416,4.3699,0.0,3.3024,0.0,0.0,3.4771,0.0,3.5334,3.5964,3.6222,3.5704,3.6157,3.6788,3.7441,3.7522,3.7776,3.8359,3.8492,3.8305,3.772,3.7791,3.7518,3.6783,3.6783,3.6483,3.5789,3.5798,3.5513,0.0,0.0,0.0,0.0,3.3356,0.0,0.0,0.0,0.0,0.0,0.0,3.6241,3.6307,3.7052,3.7334,3.7417,3.8162,3.8444,3.851,3.91,3.9352,3.9375,3.8896,3.9183,3.9703,3.9703,3.9781,3.9875,3.9875,3.9935,4.0045,4.0163,4.0213,4.0238,4.0412,4.0017,3.9614,3.9699,3.9387,3.9037,3.9,3.8937,3.8707,3.8128,3.7619,0.0,0.0,0.0,0.0,0.0,0.0,0.0,0.0,0.0,0.0,0.0,0.0,0.0,0.0,0.0,0.0,0.0,0.0,0.0,0.0,0.0,3.8818,3.8851,0.0,3.8935,0.0,3.9059,3.9133,3.9293,3.9293,3.9293,3.9293,3.9293,3.9293,3.9293,3.9175,3.9156,3.9357,4.0799,4.1403,4.1641,4.303,4.3478,4.3428,0.0,0.0,0.0,0.0,0.0,0.0,0.0,3.6373,3.6906,3.7074,3.715,3.7501,3.8213,3.8294,3.8327,3.8391,3.8391,3.8403,3.8339,3.8322,3.7998,3.7269,3.7346,3.7058,3.6342,3.6431,3.6191,0.0,0.0,0.0,0.0,0.0,0.0,0.0,0.0,0.0,0.0,3.6638,3.7003,3.7069,3.7788,3.8112,3.8195,3.8934,3.9199,3.9216,3.9282,3.9299,3.9309,3.9242,3.9444,3.9703,3.9703,3.9703,3.9729,3.9729,3.9729,3.9781,3.9901,3.9952,4.0003,4.0238,4.0279,4.0235,4.0383,4.0453,4.0332,3.9738,3.9217,3.8681,3.7955,3.7885,3.7729,0.0,0.0,0.0,0.0,0.0,0.0,0.0,0.0,0.0,0.0,0.0,0.0,0.0,0.0,0.0,0.0,0.0,0.0,3.7085,0.0,3.859,3.8723,3.8777,0.0,3.8921,3.8921,3.8921,3.8954,3.8954,3.8954,3.8954,3.8954,3.8954,3.8954,3.8921,3.9305,4.0004,4.087,4.1564,4.2131,4.3009,4.325,4.3105,0.0,0.0,0.0,0.0,0.0,0.0,0.0,3.7054,3.753,3.7644,3.7774,3.7971,3.8375,3.8391,3.8391,3.8391,3.8391,3.8391,3.8391,3.8391,3.8278,3.7987,3.8026,3.7686,3.6956,3.6994,3.6716,0.0,0.0,0.0,0.0,0.0,0.0,0.0,0.0,3.6277,3.6326,3.7117,3.7456,3.7521,3.8262,3.8558,3.8591,3.8897,3.9013,3.9013,3.9013,3.9013,3.9013,3.9013,3.9202,3.9458,3.9458,3.9511,3.959,3.959,3.9642,3.9703,3.9755,3.9781,3.9824,4.0028,4.0054,4.013,4.0337,4.0429,4.0417,4.0213,3.9755,3.9294,3.9,3.8356,3.7791,0.0,0.0,0.0,0.0,0.0,0.0,0.0,0.0,0.0,0.0,0.0,0.0,0.0,0.0,0.0,0.0,0.0,0.0,3.7073,0.0,3.8435,3.853,3.8544,3.8588,3.8649,3.8649,3.8698,3.878,3.878,3.8762,3.8725,3.8762,3.8732,3.8686,3.9182,3.9538,3.988,4.1129,4.1772,4.2049,4.2741,4.2918,4.2785,3.5394,0.0,3.5836,0.0,3.652,3.7084,3.7084,3.7645,3.8091,3.8134,3.8459,3.8653,3.8588,3.8613,3.8723,3.8949,3.8994,3.9023,3.9023,3.8829,3.8715,3.8715,3.8521,0.0,3.7647,3.7603,3.7318,3.6653,3.6653,0.0,0.0,0.0,0.0,0.0,3.6777,3.6859,3.6908,3.7681,3.8035,3.8068,3.8592,3.8805,3.8805,3.8805,3.8936,3.9116,3.9116,3.9263,3.946,3.946,3.9599,3.9715,3.9297,3.9245,3.9352,3.9352,3.9458,3.9599,3.9625,3.9625,3.9677,3.9824,3.9849,3.9884,4.0062,4.0188,4.0288,4.0461,4.0203,3.9868,3.9645,3.8898,3.8148,3.7758,0.0,0.0,0.0,0.0,0.0,0.0,3.5553,3.508,3.5098,0.0,0.0,0.0,0.0,0.0,0.0,0.0,0.0,0.0,0.0,0.0,0.0,3.8285,3.8334,3.843,3.843,3.8496,3.8611,3.885,3.8941,3.8907,3.9166,3.9209,3.9163,3.9714,4.0011,4.027,4.1361,4.1886,4.2102,4.2528,4.257,4.2371,3.5394,3.5932,3.6393,3.6393,3.699,3.7494,3.7494,3.8049,3.8552,3.8656,3.9322,3.9575,3.9054,3.9106,3.9497,4.0208,4.0391,4.0464,4.0464,3.9833,3.9505,0.0,0.0,3.8391,3.8391,3.8391,3.8035,3.7279,0.0,0.0,3.6303,0.0,3.6303,3.6335,3.7129,3.7476,3.7552,3.8423,3.8788,3.8788,3.8805,3.8805,3.8805,3.8805,3.9247,3.9886,3.9886,4.0361,4.0971,4.0971,4.0987,4.0709,3.9263,3.8914,3.8996,3.8996,3.9148,3.9325,3.9475,3.9501,3.9537,3.9677,3.9703,3.9703,3.9703,3.9893,4.0171,4.0461,4.0493,4.027,3.9535,3.9435,3.902,3.7615,0.0,0.0,0.0,0.0,0.0,0.0,3.5971,3.5523,3.5586,0.0,0.0,0.0,0.0,0.0,0.0,0.0,0.0,3.7863,3.7899,0.0,3.8001,3.8001,3.8104,3.8307,3.8307,3.8338,3.8435,3.9221,3.9586,3.9622,4.0287,4.058,4.058,4.051,4.089,4.1483,4.1501,4.1872,4.2394,4.2394,4.219,4.1895,3.6846,3.699,3.7148,3.7148,3.7717,3.8191,3.8191,3.876,3.9187,3.9233,3.9439,3.9707,4.0055,3.989,3.985,0.0,4.0121,4.0212,0.0,4.0169,4.007,4.0173,3.9946,3.9606,3.9165,3.9136,3.878,3.8051,0.0,0.0,0.0,3.7728,3.7728,3.7744,3.801,3.8119,3.8168,3.8955,3.9292,3.9312,3.9767,3.9962,3.9962,3.9962,4.0092,4.0304,4.0304,4.045,4.0661,4.0661,4.0661,4.058,4.0109,4.0152,4.0357,4.0357,4.0414,4.0487,4.0499,4.0583,4.0707,4.0812,4.0967,4.1082,4.1174,4.0879,4.0464,4.0164,4.0163,4.0178,4.0031,3.9692,3.9292,3.8859,3.8334,0.0,0.0,0.0,0.0,0.0,0.0,3.6183,0.0,3.6093,0.0,0.0,0.0,0.0,0.0,0.0,0.0,0.0,3.7558,0.0,3.7792,3.7792,3.815,3.885,3.885,3.912,3.9643,3.9878,4.0005,4.0023,4.0221,4.0292,4.0309,4.0773,4.1075,4.1284,4.1741,4.1976,4.2044,4.1998,4.1744,4.1418,3.7812,3.7875,3.7938,3.8191,3.8602,3.8886,3.8886,3.9471,3.9914,3.9914,4.0135,4.0451,4.0925,4.0737,0.0,4.072,4.0767,4.0845,4.0954,4.0744,4.063,4.072,4.0538,4.0229,3.9793,0.0,0.0,3.9185,3.9185,3.9185,3.9185,3.9185,3.9185,3.9185,3.9185,3.9185,3.9217,3.9671,3.9894,3.9897,4.0318,4.0496,4.0496,4.0496,4.0658,4.0931,4.0931,4.1063,4.129,4.129,4.129,4.129,4.129,4.1427,4.1512,4.1017,4.0929,4.1003,4.1003,4.1045,4.1144,4.1214,4.1345,4.1491,4.1683,4.1399,4.0963,4.0369,4.0305,4.0307,4.0113,3.9765,3.9433,3.9193,3.8758,3.8227,3.7541,0.0,0.0,0.0,0.0,0.0,0.0,3.6398,0.0,0.0,0.0,0.0,0.0,0.0,0.0,3.728,3.7581,0.0,3.7968,3.8253,3.8719,3.9332,3.9387,3.9639,4.0104,4.0391,4.0535,4.0535,4.08,4.0865,4.08,4.1261,4.1375,4.1324,4.1697,4.1766,4.1635,4.1542,4.1255,4.0931,3.846,3.8586,0.0,0.0,3.9534,0.0,3.9582,4.0198,4.0672,4.0672,4.1209,4.1588,4.1588,4.1588,4.167,4.1866,0.0,0.0,0.0,4.1502,4.115,4.1181,4.0696,4.0387,4.0355,4.0458,4.0515,4.0467,4.0467,4.0467,4.0496,4.0496,4.0496,4.0496,4.0496,4.0496,4.0496,4.0545,4.0577,4.0577,4.0626,4.0642,4.0642,4.0612,4.1033,4.1646,4.1646,4.2036,4.2571,4.2571,4.2571,4.2571,4.2571,4.2571,4.2344,4.1181,4.0971,4.1122,4.1122,4.1122,4.1122,4.1122,4.1151,4.1205,4.1394,4.1581,4.1538,4.0963,4.0789,4.0555,3.9904,3.9737,3.9495,3.8866,3.8881,3.8751,3.8136,0.0,0.0,0.0,0.0,0.0,0.0,3.6107,3.619,0.0,0.0,0.0,0.0,0.0,3.7009,3.7228,3.795,3.8377,3.8439,3.9184,3.9633,3.9749,3.9919,4.0012,4.003,4.08,4.1141,4.1156,4.1783,4.1977,4.1831,4.1784,4.167,4.1538,4.1391,4.1277,4.114,4.1001,4.0734,4.0444,0.0,0.0,3.9313,3.9471,3.9977,4.034,4.034,4.0909,4.1351,4.1351,4.1494,4.1588,4.1588,4.1588,4.1621,4.167,4.1687,4.1801,4.1931,4.1804,4.1741,4.1869,4.1741,4.1421,4.094,4.0939,4.0666,4.0121,4.0121,4.0198,4.0349,4.0349,4.0393,4.0496,4.0496,4.0496,4.0529,4.111,4.1353,4.1371,4.1781,4.1945,4.1945,4.1772,4.1853,4.1981,4.1981,4.2061,4.2206,4.2206,4.2206,4.2206,4.2206,4.2206,4.2205,4.2151,4.2194,4.2225,4.2225,4.2333,4.2441,4.2441,4.2547,4.2458,4.1973,4.1888,4.1807,4.1337,4.0823,4.0429,4.0521,4.0089,3.9636,3.9495,3.9487,3.9261,3.8564,3.8488,0.0,0.0,3.7458,3.7412,3.7243,3.7297,3.743,0.0,0.0,0.0,0.0,3.7928,3.8047,3.8457,3.8649,3.8818,3.894,3.9115,3.9564,4.025,4.0891,4.1212,4.1212,4.1388,4.1476,4.1476,4.1648,4.1587,4.1351,4.1346,4.1226,4.1059,4.086,4.0741,4.0638,4.0534,4.0221,3.9884,3.9945,4.0008,4.0103,4.0403,4.0783,4.1051,4.1051,4.1367,4.1588,4.1588,4.1588,4.1588,4.1588,4.1588,4.1588,4.1588,4.1588,4.167,4.1752,4.1752,4.1801,4.1883,4.1964,4.1837,4.147,4.155,4.1342,4.0958,4.0958,4.1021,4.1114,4.1114,4.1176,4.1222,4.1222,4.1222,4.1269,4.1672,4.1833,4.1865,4.2157,4.227,4.2238,4.2142,4.2109,4.2109,4.2109,4.2109,4.2109,4.2109,4.2109,4.2109,4.2109,4.2109,4.2142,4.2302,4.2365,4.2365,4.2365,4.2429,4.2571,4.2634,4.2852,4.2892,4.25,4.2463,4.234,4.1794,4.1362,4.104,4.0928,4.0276,3.979,3.979,3.9561,3.9239,3.883,3.8911,0.0,3.797,3.797,3.7935,3.7575,3.7631,3.7704,3.7769,0.0,0.0,3.8465,3.8465,3.8525,3.8661,3.9012,3.923,3.9376,3.9745,4.0172,4.064,4.1058,4.129,4.129,4.129,4.129,4.129,4.129,4.1134,4.0884,4.0884,4.0734,4.051,4.0279,4.0154,4.0096,3.9876,3.9566,3.9292,4.0625,4.0751,4.0925,4.1494,4.1588,4.1588,4.1588,4.1588,4.1588,4.1588,4.1588,4.1588,4.1588,4.1588,4.1588,4.1588,4.1588,4.1588,4.1588,4.1588,4.1588,4.1588,4.1752,4.1866,4.1866,4.1964,4.2013,4.2013,4.2013,4.2045,4.2093,4.2093,4.2077,4.2109,4.2109,4.2109,4.2109,4.2109,4.2109,4.2109,4.2077,4.2093,4.2093,4.2045,4.2013,4.2013,4.2013,4.2013,4.2013,4.2013,4.2013,4.2013,4.2013,4.2013,4.2013,4.2013,4.2013,4.2045,4.2077,4.2109,4.2142,4.2318,4.2571,4.2775,4.2775,4.2883,4.2841,4.222,4.2037,4.1805,4.1249,4.0574,4.0066,4.0066,3.9527,3.9133,3.9133,0.0,3.9129,3.8465,3.8535,3.8395,3.777,3.7703,3.7703,3.7728,3.7728,3.8054,0.0,3.8866,3.8762,3.8542,3.9217,3.9654,3.9765,4.0425,4.0776,4.0776,4.0776,4.0776,4.0776,4.0776,4.0776,4.0776,4.0752,4.0607,4.037,4.0345,4.0196,3.9944,3.9661,3.9556,3.9504,3.9195,3.8898,3.865,4.1415,4.143,4.1462,4.1573,4.1588,4.1588,4.1588,4.1588,4.1588,4.1588,4.1588,4.1588,4.1588,4.1588,4.1588,4.1588,4.1588,4.1588,4.1588,4.1588,4.1588,4.1588,4.1621,4.167,4.167,4.1654,4.1687,4.1687,4.1687,4.1768,4.1931,4.1931,4.198,4.2109,4.2109,4.2109,4.2109,4.2109,4.2109,4.2077,4.198,4.1931,4.1898,4.1736,4.1687,4.1687,4.1687,4.1687,4.1687,4.1687,4.1687,4.1687,4.1687,4.1687,4.1687,4.1687,4.1687,4.1753,4.2013,4.2109,4.2109,4.2142,4.2174,4.2206,4.2206,4.2365,4.2507,4.2519,4.214,4.182,4.1855,4.1282,4.0823,4.0823,4.023,3.975,3.975,0.0,3.8865,3.875,3.875,3.8728,3.8629,3.8586,3.864,3.8747,3.8774,3.8877,3.912,3.9146,3.9123,3.9085,3.9665,4.0026,4.0026,4.017,4.0221,4.0221,4.0221,4.0221,4.0221,4.0221,4.0221,4.0238,4.0113,3.9961,3.9807,3.9644,3.947,3.9312,3.9034,3.8942,3.8914,3.8628,3.8303,3.803,4.1588,4.1588,4.1588,4.1588,4.1588,4.1588,4.1588,4.1588,4.1588,4.1588,4.1588,4.1588,4.1588,4.1588,4.1588,4.1588,4.1952,4.2173,4.2173,4.181,4.1588,4.1588,4.1588,4.1588,4.1588,4.1588,4.1588,4.1588,4.1983,4.2256,4.2354,4.2685,4.2893,4.2978,4.2978,4.2978,4.2978,4.2978,4.2978,4.2944,4.2893,4.2859,4.2859,4.2776,4.2742,4.2742,4.2742,4.2658,4.2575,4.2575,4.2506,4.2404,4.2404,4.2404,4.2404,4.2404,4.2005,4.1621,4.1785,4.1899,4.198,4.198,4.2061,4.2109,4.2109,4.2174,4.2254,4.2318,4.2139,4.1976,4.2054,4.1504,4.1051,4.1051,4.0437,0.0,0.0,3.9703,3.9579,3.9699,3.9426,3.9266,3.9394,3.9034,3.8832,3.8887,3.8887,3.8914,3.898,3.898,3.898,3.898,3.9391,3.9618,3.9618,3.9618,3.9618,3.9618,3.9618,3.9618,3.9618,3.9618,3.9618,3.9618,3.9478,3.9345,3.9212,3.9034,3.8898,3.875,3.8427,3.8315,3.8286,3.7988,3.7862,3.791,4.1588,4.1588,4.1588,4.1588,4.1588,4.1588,4.1588,4.1588,4.1588,4.1588,4.1588,4.1652,4.1825,4.1841,4.1904,4.2062,4.26,4.2932,4.2916,4.2394,4.2078,4.2078,4.2078,4.2078,4.2078,4.2078,4.2078,4.2078,4.2647,4.2932,4.2932,4.3469,4.3687,4.3687,4.3687,4.3687,4.3687,4.3722,4.3687,4.3687,4.3687,4.3687,4.3687,4.3687,4.3687,4.3636,4.3636,4.3481,4.3325,4.3325,4.322,4.3114,4.3114,4.3114,4.3114,4.3114,4.2557,4.1929,4.1929,4.2061,4.2129,4.1987,4.2055,4.2123,4.1947,4.198,4.2061,4.2061,4.2077,4.2109,4.2109,4.1693,4.1341,4.1341,0.0,0.0,0.0,4.0187,4.0196,4.0379,3.9952,3.9758,3.9919,3.9414,3.9088,3.9088,3.9088,3.9088,3.9088,3.9088,3.9088,3.9088,3.9106,3.9098,3.9098,3.9098,3.9098,3.9098,3.9071,3.9071,3.9071,3.9034,3.9007,3.9007,3.8843,3.8706,3.8567,3.8444,3.8303,3.8119,3.7799,3.7762,3.7862,3.7518,3.7608,3.7884,4.1555,4.1588,4.1588,4.1588,4.1588,4.1588,4.1588,4.1588,4.1588,4.1588,4.1588,4.1841,4.2537,4.2616,4.2868,4.3482,4.3576,4.3643,4.3646,4.3579,4.3529,4.3529,4.3529,4.3529,4.3529,4.3529,4.3529,4.3529,4.3592,4.3608,4.3608,4.3671,4.3687,4.3687,4.3687,4.3687,4.3687,4.369,4.369,4.3687,4.3687,4.3687,4.3687,4.3687,4.3567,4.3431,4.3431,4.329,4.3114,4.3114,4.3114,4.3114,4.3114,4.3114,4.3114,4.3114,4.3036,4.2993,4.2993,4.2993,4.2837,4.2247,4.2244,4.2189,4.1498,4.1637,4.1898,4.1898,4.1996,4.2109,4.2109,4.2061,4.2045,4.2045,0.0,0.0,4.1038,4.0431,4.0015,4.0046,3.9998,3.9996,3.9996,3.9948,3.9916,3.9916,3.9916,3.9916,3.9916,3.9916,3.9916,3.9916,3.9198,3.8832,3.8832,3.8832,3.8832,3.8832,3.8706,3.8623,3.8623,3.8516,3.8448,3.8448,3.8258,3.8087,3.7972,3.7831,3.7655,3.7447,3.7087,3.7342,3.7857,3.7528,3.7606,3.7919,4.139,4.1522,4.1588,4.1588,4.1588,4.1588,4.1588,4.1588,4.1746,4.2205,4.2268,4.2537,4.3248,4.3327,4.3437,4.3671,4.4066,4.4322,4.4322,4.4764,4.4587,4.3734,4.3687,4.3687,4.3687,4.3687,4.3687,4.3687,4.4132,4.4338,4.4338,4.4796,4.5017,4.5017,4.5017,4.5017,4.5017,4.5001,4.5001,4.4982,4.4874,4.4802,4.4802,4.4694,4.457,4.4533,4.4533,4.4372,4.421,4.421,4.4136,4.4025,4.4025,4.4025,4.4025,4.4025,4.4025,4.4025,4.4025,4.3588,4.3051,4.2786,4.2774,4.2766,4.2485,4.2213,4.2016,4.2016,4.1738,4.1488,4.1488,4.1488,4.1488,4.1488,0.0,4.1209,4.1209,4.1069,4.1055,4.1167,4.0769,4.0545,4.067,4.0271,4.0015,4.0015,4.0015,4.0015,4.0015,4.0015,3.9938,3.9829,3.953,3.9436,3.954,3.954,3.954,3.954,3.9497,3.9392,3.9271,3.9228,3.9154,3.9049,3.8865,3.8666,3.8512,3.8388,3.8184,3.7996,3.766,3.7699,3.7864,3.7516,3.7669,3.7998,4.1239,4.139,4.1522,4.1522,4.1555,4.1667,4.1904,4.1936,4.2189,4.2916,4.3011,4.3279,4.3959,4.4003,4.4097,4.4318,4.4796,4.5065,4.5065,4.5539,4.5381,4.4382,4.435,4.435,4.435,4.435,4.435,4.435,4.4828,4.5065,4.5065,4.557,4.5807,4.5807,4.5807,4.5807,4.5823,4.5735,4.5698,4.5698,4.5478,4.5405,4.5405,4.5257,4.5182,4.5092,4.5092,4.4964,4.4799,4.4799,4.4723,4.461,4.461,4.4549,4.4496,4.4435,4.4396,4.4396,4.4396,4.3895,4.3345,4.3273,4.3298,4.3272,4.3054,4.272,4.2412,4.2412,4.2053,4.1679,4.146,4.1414,4.1351,4.1148,4.1187,4.1239,4.1239,4.1339,4.1472,4.1636,4.1209,4.0957,4.1086,4.0642,4.0357,4.0357,4.0357,4.0357,4.0357,4.0357,4.0277,4.0134,4.0134,4.0214,4.0325,4.0022,3.983,3.983,3.9783,3.9675,3.9549,3.9503,3.9393,3.925,3.9092,3.8899,3.8688,3.851,3.8345,3.8132,3.7778,3.7744,3.7822,3.7526,3.7695,3.8025,4.1083,4.1236,4.129,4.129,4.1472,4.1857,4.2584,4.2695,4.2947,4.3608,4.3703,4.394,4.4654,4.4717,4.5017,4.5744,4.5807,4.5807,4.5807,4.5807,4.5807,4.5807,4.5807,4.5807,4.5807,4.5807,4.5807,4.5807,4.5807,4.5807,4.5807,4.5807,4.5807,4.5807,4.5807,4.5807,4.5771,4.5589,4.5515,4.5478,4.5294,4.5182,4.5182,4.5182,4.5092,4.4911,4.4911,4.4761,4.461,4.461,4.461,4.461,4.4587,4.4473,4.4243,4.4065,4.3988,4.3988,4.3988,4.3988,4.3937,4.3666,4.3704,4.3644,4.2963,4.2951,4.3114,4.3114,4.3114,4.2895,4.2225,4.21,4.1881,4.1226,4.1099,4.1133,4.1133,4.1133,4.1117,4.1117,4.1117,4.1117,4.1117,4.1117,4.1117,4.1117,4.1117,4.1117,4.1117,4.1117,4.1117,4.1083,4.1083,4.1083,4.1083,4.0037,3.9503,3.9503,3.9314,3.9203,3.9203,3.9075,3.8898,3.8704,3.8704,3.8523,3.8208,3.7977,3.7842,3.7654,3.7277,3.7384,3.7788,3.7557,3.7673,3.7886,4.1596,4.2108,4.256,4.256,4.2594,4.2742,4.2961,4.3097,4.3418,4.411,4.4311,4.4685,4.5412,4.5476,4.557,4.5792,4.5807,4.5807,4.5807,4.5807,4.5807,4.5807,4.5807,4.5807,4.5807,4.5807,4.5807,4.5807,4.5807,4.5807,4.5807,4.5807,4.5735,4.5589,4.5589,4.5515,4.5368,4.5331,4.5294,4.5257,4.5077,4.5002,4.4964,4.4814,4.4739,4.4685,4.4685,4.4648,4.4587,4.4435,4.4396,4.4358,4.4205,4.4143,4.4065,4.4026,4.3988,4.3988,4.3988,4.3988,4.3966,4.3884,4.4014,4.4104,4.3905,4.3639,4.3447,4.3447,4.3092,4.2705,4.2504,4.2458,4.2412,4.2175,4.222,4.214,4.1658,4.17,4.1632,4.1164,4.1117,4.1117,4.1117,4.1117,4.1117,4.1117,4.1117,4.1117,4.1117,4.1117,4.0966,4.0677,4.0677,4.0589,4.0312,4.0528,4.0626,4.0626,4.0429,4.0246,4.0112,3.9927,3.9772,3.9596,3.9477,3.9269,3.9038,3.8796,3.8546,3.8237,3.7967,3.7863,3.786,3.765,3.7515,3.7443,4.2133,4.2585,4.2972,4.2972,4.3043,4.3207,4.3472,4.3591,4.3912,4.4617,4.482,4.5065,4.5505,4.5552,4.5552,4.5552,4.5625,4.5662,4.5662,4.5771,4.5771,4.5698,4.5662,4.5698,4.5807,4.5807,4.5771,4.5662,4.5662,4.5625,4.5552,4.5552,4.5515,4.5368,4.5368,4.5331,4.5182,4.5129,4.5092,4.5055,4.4852,4.4761,4.4761,4.4663,4.461,4.461,4.461,4.4549,4.4458,4.4358,4.4243,4.4143,4.3949,4.3871,4.3871,4.3738,4.3699,4.3699,4.3699,4.3699,4.3699,4.3699,4.3934,4.4166,4.4166,4.396,4.3746,4.3746,4.3439,4.3087,4.2827,4.2781,4.2637,4.2362,4.2395,4.2314,4.1914,4.1945,4.1877,4.1441,4.141,4.141,4.141,4.141,4.141,4.141,4.1214,4.1059,4.1059,4.0813,4.0555,4.0296,4.0296,4.0191,4.0011,4.0451,4.0658,4.0658,4.0539,4.0436,4.0296,4.0091,3.993,3.9747,3.9553,3.9358,3.9141,3.8848,3.8612,3.8366,3.8066,3.7787,3.7519,3.7419,3.7187,3.6929,4.2694,4.2855,4.2978,4.2978,4.3122,4.3432,4.4055,4.4148,4.4419,4.5089,4.5182,4.5182,4.5182,4.5182,4.5182,4.5182,4.5368,4.5478,4.5478,4.5625,4.5662,4.5478,4.5541,4.5646,4.5829,4.5766,4.5662,4.5478,4.5541,4.5446,4.5298,4.536,4.5369,4.5354,4.5354,4.5354,4.5316,4.5135,4.506,4.5022,4.4871,4.4795,4.4795,4.4795,4.4756,4.4756,4.4756,4.4603,4.4426,4.4426,4.4271,4.4076,4.3895,4.3816,4.3777,4.3549,4.3424,4.3379,4.3379,4.3349,4.329,4.329,4.3621,4.3949,4.3988,4.3988,4.3988,4.3988,4.3988,4.379,4.3183,4.3077,4.2864,4.219,4.2083,4.2068,4.2008,4.1992,4.1962,4.1901,4.1901,4.1901,4.1901,4.1901,4.1901,4.1901,4.1407,4.1088,4.1088,4.0512,4.0178,4.0142,4.0142,4.0112,4.0051,4.0016,4.0001,4.0011,3.996,3.994,3.9925,3.9732,3.9502,3.9337,3.9104,3.8907,3.8723,3.8315,3.8127,3.8089,3.7687,3.7303,3.6993,3.6954,3.6693,3.6365,4.3393,4.3824,4.4216,4.4216,4.4253,4.4337,4.4476,4.462,4.4778,4.4933,4.5092,4.5182,4.5182,4.5182,4.5182,4.5182,4.5257,4.5257,4.5257,4.5294,4.5331,4.5257,4.5794,4.6059,4.6097,4.5597,4.5294,4.5257,4.5809,4.6022,4.5999,4.653,4.6664,4.6509,4.6509,4.6431,4.6275,4.6236,4.6236,4.6236,4.6196,4.6157,4.6157,4.6157,4.6078,4.5935,4.5935,4.5776,4.5536,4.5344,4.5182,4.4993,4.4967,4.4952,4.4952,4.487,4.4511,4.4067,4.4067,4.3678,4.329,4.329,4.3369,4.3503,4.3714,4.3871,4.3988,4.3988,4.3988,4.3942,4.379,4.3775,4.3714,4.3563,4.3532,4.3365,4.2834,4.2758,4.2561,4.1962,4.1901,4.1901,4.1901,4.1901,4.1901,4.1901,4.1765,4.1689,4.1689,4.1568,4.1418,4.1316,4.1316,4.0986,4.0312,4.0172,4.0064,4.0011,3.9676,3.9532,3.9532,3.9177,3.8965,3.8907,3.8538,3.8352,3.8315,3.7915,3.7649,3.7457,3.7226,3.6993,3.6747,3.6589,3.6391,3.6112,4.4086,4.4379,4.461,4.461,4.461,4.461,4.461,4.4685,4.4761,4.4761,4.4852,4.4889,4.4889,4.4889,4.4889,4.4889,4.5017,4.5179,4.5506,4.5597,4.579,4.6003,4.6345,4.6493,4.6377,4.6036,4.5904,4.6019,4.6361,4.6493,4.6377,4.6733,4.6865,4.6746,4.6746,4.6707,4.6603,4.6603,4.6603,4.6603,4.6603,4.6603,4.6588,4.6484,4.6404,4.6284,4.6163,4.5961,4.5742,4.5522,4.5372,4.5289,4.5289,4.5289,4.5289,4.5289,4.505,4.4781,4.4781,4.4526,4.4272,4.4272,4.4272,4.4107,4.3613,4.3581,4.366,4.366,4.366,4.366,4.366,4.366,4.366,4.366,4.366,4.3539,4.3193,4.3133,4.3012,4.2597,4.2552,4.2552,4.2552,4.2552,4.2552,4.2552,4.2304,4.2138,4.2138,4.1836,4.1596,4.1414,4.1399,4.1121,4.056,4.0446,4.0382,4.03,3.9511,3.9104,3.9104,3.8811,3.8612,3.8501,3.8179,3.7991,3.7877,3.7572,3.7341,3.7148,3.6929,3.6668,3.6405,3.6286,3.6032,3.5737,4.461,4.461,4.461,4.461,4.461,4.461,4.461,4.461,4.461,4.461,4.461,4.461,4.461,4.461,4.4671,4.4779,4.4931,4.5301,4.5982,4.6182,4.6431,4.6849,4.6949,4.6916,4.6757,4.688,4.6899,4.6865,4.6949,4.6916,4.6773,4.688,4.6942,4.6942,4.6942,4.6942,4.6942,4.6942,4.6942,4.6942,4.6942,4.6902,4.6862,4.6716,4.6595,4.6499,4.6269,4.6048,4.5868,4.5675,4.5633,4.5633,4.5633,4.5633,4.5633,4.5633,4.5559,4.5469,4.5469,4.5394,4.5289,4.5289,4.5289,4.5005,4.3888,4.3544,4.3424,4.3319,4.329,4.329,4.329,4.329,4.329,4.329,4.329,4.329,4.329,4.329,4.329,4.329,4.329,4.329,4.329,4.329,4.329,4.329,4.2781,4.2482,4.2482,4.1936,4.156,4.1383,4.1383,4.1207,4.088,4.0842,4.0744,4.0626,3.9524,3.9047,3.9084,3.8837,3.8612,3.846,3.8208,3.803,3.7862,3.759,3.7394,3.7223,3.6974,3.6695,3.6373,3.6306,3.6008,3.5597,4.461,4.461,4.461,4.461,4.461,4.461,4.461,4.461,4.461,4.461,4.461,4.461,4.461,4.461,4.4818,4.5403,4.5488,4.578,4.6458,4.6528,4.6575,4.6628,4.7198,4.7506,4.7465,4.8035,4.7758,4.6643,4.7213,4.7506,4.7481,4.8065,4.8343,4.8343,4.8343,4.8343,4.8343,4.8343,4.8343,4.8343,4.8343,4.8219,4.8053,4.8026,4.7775,4.741,4.7395,4.7239,4.7068,4.704,4.704,4.704,4.704,4.704,4.704,4.704,4.6636,4.6145,4.6145,4.5753,4.5289,4.5289,4.5289,4.5244,4.5065,4.4586,4.4018,4.3409,4.329,4.329,4.329,4.329,4.329,4.329,4.329,4.329,4.329,4.329,4.329,4.329,4.329,4.329,4.329,4.329,4.329,4.329,4.3081,4.2902,4.2902,4.2668,4.2503,4.2478,4.2478,4.2197,4.1558,4.1385,4.1013,4.0432,4.0086,4.0037,4.0169,3.9793,3.9596,3.9557,3.9173,3.9027,3.8946,3.8527,3.8322,3.824,3.78,3.762,3.755,3.7199,3.6732,3.6346,4.461,4.461,4.461,4.461,4.461,4.461,4.461,4.461,4.461,4.461,4.461,4.461,4.461,4.491,4.5418,4.6095,4.6157,4.6434,4.7111,4.7157,4.7327,4.7711,4.8004,4.8173,4.8173,4.8466,4.8327,4.7727,4.8019,4.8173,4.8173,4.8481,4.862,4.862,4.862,4.862,4.862,4.862,4.862,4.8578,4.8495,4.837,4.8244,4.8007,4.7794,4.7596,4.7467,4.7396,4.7309,4.7309,4.7309,4.7309,4.7309,4.7309,4.7309,4.7309,4.71,4.6875,4.6875,4.6651,4.6426,4.6426,4.6426,4.6322,4.5948,4.5648,4.5244,4.4571,4.4421,4.4317,4.3943,4.3843,4.3723,4.3349,4.329,4.329,4.329,4.329,4.329,4.329,4.321,4.3115,4.3115,4.305,4.297,4.297,4.2875,4.2835,4.2835,4.2729,4.2662,4.2541,4.2541,4.2327,4.1942,4.1846,4.1619,4.1342,4.1111,4.068,4.0039,3.9895,3.9656,3.947,3.9282,3.9039,3.8779,3.8573,3.8353,3.8089,3.7866,3.7656,3.7429,3.6973,3.6671,3.6537]}]]